     2              OBSERVATION DATA    GPS                 RINEX VERSION / TYPE
teqc 2000Jul20 Karen Wendt 20040109 23:03:20UTC             PGM / RUN BY / DATE
                                                            COMMENT
L2: 1 -> 1; 150 -> 5; 250 -> 9                              COMMENT
L2: 1 -> 1; 150 -> 5; 250 -> 9                              COMMENT
L2: 1 -> 1; 150 -> 5; 250 -> 9                              COMMENT
L2: 1 -> 1; 150 -> 5; 250 -> 9                              COMMENT
L2: 1 -> 1; 150 -> 5; 250 -> 9                              COMMENT
L2: 1 -> 1; 150 -> 5; 250 -> 9                              COMMENT
L2: 1 -> 1; 150 -> 5; 250 -> 9                              COMMENT
L2: 1 -> 1; 150 -> 5; 250 -> 9                              COMMENT
L2: 1 -> 1; 150 -> 5; 250 -> 9                              COMMENT
L2: 1 -> 1; 150 -> 5; 250 -> 9                              COMMENT
L2: 1 -> 1; 150 -> 5; 250 -> 9                              COMMENT
L2: 1 -> 1; 150 -> 5; 250 -> 9                              COMMENT
L2: 1 -> 1; 150 -> 5; 250 -> 9                              COMMENT
L2: 1 -> 1; 150 -> 5; 250 -> 9                              COMMENT
Original Marker Name: 2076 2076_stmpd_SLO-01_PM53.8_GPS-7_19COMMENT
Campaign Name: USGS San Simeon 2003-2004                    COMMENT
4-Character Station Name: 2076                              COMMENT
6-Character Antenna Code: DMRCHT                            COMMENT
Vertical Measurement Point: BCR                             COMMENT
Vertical Offset to Rinex Ref. Point: 0.0348                 COMMENT
Radial Measurement Point: ECF                               COMMENT
Radial Offset to Rinex Ref. Point: 0.1897                   COMMENT
Antenna Height from Field Measurement: 0.5850 m             COMMENT
Additional Antenna Identification Info.:                    COMMENT
Turborogue and Ashtech Choke Ring                           COMMENT
Original XYZ: -2684304.3612 -4443820.5417 3692665.8875      COMMENT
New XYZ position is based on association with SCEC monument COMMENT
E1F0L6J2+0011. Position of that monument is believed to be  COMMENT
valid to within 1 m horizontally; vertical accuracy         COMMENT
should be no worse than 3-times this value.                 COMMENT
                                                            COMMENT
Revised Rinex header created by UCSD GPS archive for        COMMENT
GSAC on 20-Apr-2005 (2005:110) 16:28:26 GMT                 COMMENT
For assistance contact dagnew@ucsd.edu                      COMMENT
or anderson@python.ucsd.edu                                 COMMENT
                                                            COMMENT
SLO 01 PM53.8 GPS7 1986                                     MARKER NAME
JLS US GEOLOGICAL SURVEY                                    OBSERVER / AGENCY
ZE120023202 ASHTECH UZ-12 ZE00                              REC # / TYPE / VERS
CR520031626 DORNE-MARGOL. TYPE T                            ANT # / TYPE
 -2684321.0000 -4443797.0000  3692656.0000                  APPROX POSITION XYZ
        0.5186        0.0000        0.0000                  ANTENNA: DELTA H/E/N
     1     1     0                                          WAVELENGTH FACT L1/2
     5    C1    L1    L2    P1    P2                        # / TYPES OF OBSERV
    30                                                      INTERVAL
  2004     1     8     0     0    0.000000                  TIME OF FIRST OBS
  2004     1     8    20    11    0.000000                  TIME OF LAST OBS
                                                            END OF HEADER
 04  1  8  0  0  0.0000000  0  7G17G24G30G21G10G 6G 5
  20661663.658   -24254883.10544 -18891744.20442  20661664.210    20661661.242
  22490089.555   -14932956.70743 -11625075.26442  22490090.387    22490087.783
  20210610.947   -27286454.06744 -21251263.67742  20210612.877    20210608.576
  23934423.036   -10730508.03043  -8328615.24542  23934424.616    23934421.713
  21050240.437   -20256348.65443 -15743348.79442  21050241.208    21050238.309
  21920694.933   -20464220.21043 -15941714.36942  21920696.418    21920693.127
  21106222.050   -24400182.78144 -18980079.84542  21106223.007    21106219.889
 04  1  8  0  0 30.0000000  0  7G17G24G30G21G10G 6G 5
  20665889.045   -24232678.44544 -18874441.86342  20665889.607    20665886.640
  22505197.792   -14853562.49743 -11563209.65942  22505198.624    22505196.010
  20209275.888   -27293469.88944 -21256730.54542  20209277.804    20209273.501
  23918003.798   -10816791.40943  -8395848.96242  23918005.375    23918002.467
  21047151.499   -20272580.95043 -15755997.31042  21047152.269    21047149.378
  21909398.340   -20523584.19743 -15987971.99642  21909399.822    21909396.503
  21119213.552   -24331911.95544 -18926881.81342  21119214.516    21119211.396
 04  1  8  0  1  0.0000000  0  7G17G24G30G21G10G 6G 5
  20670179.354   -24210132.73944 -18856873.77342  20670179.908    20670176.925
  22520327.380   -14774055.93243 -11501256.50542  22520328.224    22520325.590
  20208052.378   -27299899.39844 -21261740.54642  20208054.306    20208049.990
  23901619.061   -10902893.54943  -8462941.46842  23901620.642    23901617.703
  21044182.885   -20288181.18343 -15768153.32542  21044183.643    21044180.723
  21898122.172   -20582840.79743 -16034145.94742  21898123.641    21898120.334
  21132288.006   -24263205.29144 -18873344.16742  21132288.973    21132285.858
 04  1  8  0  1 30.0000000  0  7G17G24G30G21G10G 6G 5
  20674532.850   -24187254.90844 -18839046.87842  20674533.411    20674530.435
  22535476.571   -14694446.36843 -11439223.08142  22535477.443    22535474.796
  20206939.106   -27305749.70844 -21266299.22142  20206941.019    20206936.713
  23885267.465   -10988821.23543  -8529898.00542  23885269.051    23885266.120
  21041333.178   -20303156.34943 -15779822.26142  21041333.958    21041331.024
  21886865.087   -20641996.89343 -16080241.58342  21886866.580    21886863.271
  21145443.531   -24194072.47044 -18819474.44742  21145444.516    21145441.402
 04  1  8  0  2  0.0000000  0  7G17G24G30G21G10G 6G 5
  20678951.071   -24164036.93144 -18820954.94142  20678951.650    20678948.667
  22550646.809   -14614726.24243 -11377103.51242  22550647.716    22550645.021
  20205937.982   -27311010.60744 -21270398.61842  20205939.910    20205935.568
  23868951.123   -11074564.15043  -8596710.59542  23868952.684    23868949.690
  21038604.377   -20317496.28943 -15790996.22042  21038605.155    21038602.190
  21875629.191   -20701042.03043 -16126250.75542  21875630.665    21875627.347
  21158681.692   -24124505.52944 -18765266.45542  21158682.675    21158679.554
 04  1  8  0  2 30.0000000  0  7G17G24G30G21G10G 6G 5
  20683432.065   -24140489.15844 -18802606.02042  20683432.633    20683429.648
  22565836.085   -14534906.00343 -11314905.93042  22565837.006    22565834.313
  20205047.435   -27315690.53144 -21274045.31042  20205049.344    20205044.988
  23852668.328   -11160130.69143  -8663385.75842  23852669.941    23852666.808
  21035994.910   -20331209.19443 -15801681.57742  21035995.670    21035992.711
  21864412.787   -20759984.37943 -16172179.83442  21864414.295    21864410.970
  21172000.335   -24054515.61244 -18710728.86942  21172001.320    21171998.185
 04  1  8  0  3  0.0000000  0  7G17G24G30G21G10G 6G 5
  20687977.052   -24116605.02244 -18783994.99642  20687977.625    20687974.652
  22581045.565   -14454979.55743 -11252625.58442  22581046.516    22581043.800
  20204269.009   -27319781.17044 -21277232.81342  20204270.924    20204266.579
  23836420.712   -11245512.10043  -8729916.63742  23836422.319    23836419.183
  21033506.322   -20344286.70243 -15811871.81942  21033507.081    21033504.117
  21853217.616   -20818815.25643 -16218022.05142  21853219.148    21853215.797
  21185400.661   -23984096.40344 -18655856.76942  21185401.675    21185398.539
 04  1  8  0  3 30.0000000  0  7G17G24G30G21G10G 6G 5
  20692585.370   -24092388.17044 -18765124.71942  20692585.926    20692582.959
  22596274.534   -14374950.94943 -11190265.63842  22596275.467    22596272.742
  20203602.423   -27323284.12044 -21279962.38342  20203604.346    20203600.002
  23820208.090   -11330709.68743  -8796304.28942  23820209.632    23820206.579
  21031138.393   -20356730.26143 -15821568.07742  21031139.122    21031136.162
  21842043.401   -20877535.94543 -16263778.40742  21842044.940    21842041.610
  21198881.857   -23913252.31344 -18600653.59842  21198882.837    21198879.729
 04  1  8  0  4  0.0000000  0  7G17G24G30G21G10G 6G 5
  20697256.207   -24067842.71044 -18745998.38242  20697256.772    20697253.798
  22611522.078   -14294824.60543 -11127829.53742  22611523.005    22611520.258
  20203047.276   -27326201.51544 -21282235.67342  20203049.168    20203044.826
  23804030.135   -11415725.28543  -8862550.13442  23804031.690    23804028.566
  21028890.677   -20368541.90143 -15830771.93142  21028891.434    21028888.456
  21830889.836   -20936148.28143 -16309450.33942  21830891.375    21830888.024
  21212443.126   -23841987.42544 -18545122.52742  21212444.107    21212440.984
 04  1  8  0  4 30.0000000  0  7G17G24G30G21G10G 6G 5
  20701989.329   -24042969.90044 -18726616.96342  20701989.891    20701986.929
  22626787.849   -14214602.48443 -11065318.79542  22626788.796    22626786.033
  20202603.560   -27328533.19144 -21284052.55942  20202605.470    20202601.119
  23787886.796   -11500559.06143  -8928654.29642  23787888.291    23787885.136
  21026763.319   -20379721.20743 -15839483.05342  21026764.066    21026761.089
  21819756.979   -20994651.69343 -16355037.38742  21819758.519    21819755.178
  21226083.961   -23770304.50444 -18489265.71642  21226084.909    21226081.825
 04  1  8  0  5  0.0000000  0  7G17G24G30G21G10G 6G 5
  20706785.131   -24017767.66044 -18706978.84842  20706785.708    20706782.751
  22642072.297   -14134282.24143 -11002731.60142  22642073.235    22642070.469
  20202272.139   -27330274.77544 -21285409.63342  20202274.046    20202269.704
  23771779.010   -11585205.73243  -8994612.63942  23771780.507    23771777.385
  21024757.137   -20390263.69143 -15847697.95542  21024757.867    21024754.901
  21808645.835   -21053041.21343 -16400535.69242  21808647.324    21808643.996
  21239804.778   -23698201.10743 -18433081.26642  21239805.736    21239802.656
 04  1  8  0  5 30.0000000  0  7G17G24G30G21G10G 6G 5
  20711642.512   -23992241.93844 -18687088.66842  20711643.100    20711640.131
  22657374.182   -14053870.31043 -10940072.95842  22657375.132    22657372.341
  20202052.178   -27331430.59444 -21286310.26542  20202054.089    20202049.761
  23755705.994   -11669669.71343  -9060428.64142  23755707.496    23755704.355
  21022871.336   -20400173.59943 -15855419.94442  21022872.057    21022869.080
  21797555.618   -21111320.66843 -16445948.23442  21797557.100    21797553.773
  21253604.298   -23625684.12443 -18376574.54142  21253605.276    21253602.193
 04  1  8  0  6  0.0000000  0  7G17G24G30G21G10G 6G 5
  20716562.195   -23966388.79444 -18666943.35642  20716562.784    20716559.823
  22672694.122   -13973363.45643 -10877340.34642  22672695.073    22672692.305
  20201944.800   -27331994.86944 -21286749.95542  20201946.705    20201942.374
  23739668.923   -11753945.03743  -9126097.61942  23739670.465    23739667.197
  21021106.973   -20409445.29143 -15862644.61842  21021107.706    21021104.715
  21786487.500   -21169483.91443 -16491270.22042  21786488.980    21786485.627
  21267483.191   -23552750.18043 -18319742.91242  21267484.159    21267481.071
 04  1  8  0  6 30.0000000  0  7G17G24G30G21G10G 6G 5
  20721543.553   -23940211.53944 -18646545.49342  20721544.156    20721541.186
  22688031.483   -13892765.26543 -10814536.56342  22688032.407    22688029.627
  20201949.641   -27331969.30944 -21286730.03342  20201951.549    20201947.244
  23723667.494   -11838033.03143  -9191620.65142  23723669.014    23723665.692
  21019463.794   -20418080.30043 -15869373.17442  21019464.506    21019461.504
  21775441.292   -21227532.02743 -16536502.49742  21775442.787    21775439.404
  21281440.618   -23479403.38143 -18262589.57542  21281441.591    21281438.502
 04  1  8  0  7  0.0000000  0  7G17G24G30G21G10G 6G 5
  20726585.981   -23913713.46944 -18625897.64342  20726586.570    20726583.584
  22703385.599   -13812078.95943 -10751664.12442  22703386.510    22703383.713
  20202066.441   -27331355.44344 -21286251.69242  20202068.367    20202064.049
  23707701.500   -11921934.65843  -9256998.44142  23707703.039    23707699.688
  21017941.501   -20426079.89243 -15875606.60942  21017942.220    21017939.209
  21764416.859   -21285465.77443 -16581645.65542  21764418.329    21764414.954
  21295475.948   -23405647.28243 -18205117.29742  21295476.906    21295473.822
 04  1  8  0  7 30.0000000  0  7G17G24G30G21G10G 6G 5
  20731689.267   -23886895.53044 -18605000.54642  20731689.851    20731686.852
  22718756.181   -13731305.93143 -10688724.10542  22718757.098    22718754.323
  20202295.442   -27330152.08644 -21285314.01042  20202297.345    20202293.035
  23691771.349   -12005647.93043  -9322229.46842  23691772.881    23691769.522
  21016540.409   -20433442.65543 -15881343.81542  21016541.118    21016538.108
  21753414.505   -21343283.41343 -16626698.33942  21753415.986    21753412.576
  21309588.914   -23331483.11643 -18147327.05442  21309589.886    21309586.801
 04  1  8  0  8  0.0000000  0  7G17G24G30G21G10G 6G 5
  20736853.431   -23859757.76344 -18583854.22942  20736854.002    20736850.998
  22734143.276   -13650446.34943 -10625716.64542  22734144.161    22734141.420
  20202636.848   -27328357.95544 -21283915.98542  20202638.749    20202634.435
  23675877.248   -12089171.79243  -9387312.91742  23675878.686    23675875.345
  21015260.703   -20440167.42843 -15886583.87542  21015261.433    21015258.414
  21742434.628   -21400982.94943 -16671658.99942  21742436.118    21742432.691
  21323779.366   -23256911.93343 -18089219.65442  21323780.305    21323777.237
 04  1  8  0  8 30.0000000  0  7G17G24G30G21G10G 6G 5
  20742078.091   -23832302.02944 -18562460.14642  20742078.649    20742075.625
  22749546.403   -13569502.41343 -10562643.45942  22749547.278    22749544.537
  20203090.647   -27325973.24244 -21282057.76542  20203092.544    20203088.227
  23660019.275   -12172505.84343  -9452248.45242  23660020.642    23660017.325
  21014102.357   -20446254.38843 -15891326.94142  21014103.091    21014100.078
  21731477.264   -21458564.05043 -16716527.37042  21731478.780    21731475.369
  21338046.791   -23181936.17243 -18030796.99742  21338047.736    21338044.670
 04  1  8  0  9  0.0000000  0  7G17G24G30G21G10G 6G 5
  20747362.854   -23804530.46444 -18540819.96342  20747363.409    20747360.377
  22764965.067   -13488476.78543 -10499506.61042  22764965.924    22764963.216
  20203656.771   -27322998.24444 -21279739.58242  20203658.665    20203654.330
  23644197.382   -12255650.21743  -9517036.19042  23644198.757    23644195.442
  21013065.318   -20451703.98843 -15895573.36742  21013066.057    21013063.030
  21720542.514   -21516026.37143 -16761303.18242  21720544.043    21720540.632
  21352390.720   -23106558.45443 -17972061.12542  21352391.663    21352388.597
 04  1  8  0  9 30.0000000  0  7G17G24G30G21G10G 6G 5
  20752707.403   -23776444.66444 -18518934.92042  20752707.957    20752704.920
  22780398.936   -13407371.21543 -10436307.47242  22780399.803    22780397.113
  20204335.200   -27319433.02444 -21276961.48742  20204337.113    20204332.773
  23628411.617   -12338604.57243  -9581675.87142  23628413.018    23628409.679
  21012149.612   -20456515.92843 -15899322.91542  21012150.359    21012147.333
  21709630.536   -21573369.10643 -16805985.81542  21709632.076    21709628.645
  21366810.645   -23030781.20743 -17913013.93242  21366811.601    21366808.538
 04  1  8  0 10  0.0000000  0  7G17G24G30G21G10G 6G 5
  20758112.318   -23748041.69444 -18496802.73442  20758112.864    20758109.818
  22795848.601   -13326182.64443 -10373043.66242  22795849.476    22795846.817
  20205126.860   -27315272.94044 -21273719.86342  20205128.739    20205124.399
  23612663.102   -12421363.43543  -9646163.22042  23612664.404    23612661.123
  21011356.129   -20460685.60343 -15902571.99942  21011356.877    21011353.874
  21698742.385   -21630586.76343 -16850570.98542  21698743.898    21698740.469
  21381307.110   -22954601.89143 -17853653.44042  21381308.064    21381305.020
 04  1  8  0 10 30.0000000  0  7G17G24G30G21G10G 6G 5
  20763575.688   -23719331.43344 -18474431.09742  20763576.226    20763573.183
  22811312.207   -13244920.93743 -10309722.86542  22811313.043    22811310.426
  20206030.134   -27310526.18544 -21270021.09142  20206032.041    20206027.683
  23596950.234   -12503934.86043  -9710504.51442  23596951.532    23596948.263
  21010683.310   -20464221.20143 -15905326.99442  21010684.069    21010681.065
  21687876.588   -21687686.99043 -16895064.64742  21687878.068    21687874.650
  21395878.033   -22878031.28343 -17793988.04342  21395878.979    21395875.933
 04  1  8  0 11  0.0000000  0  7G17G24G30G21G10G 6G 5
  20769098.621   -23690308.16144 -18451815.55942  20769099.169    20769096.118
  22826790.721   -13163580.81243 -10246340.96042  22826791.546    22826788.966
  20207046.414   -27305185.50944 -21265859.52542  20207048.320    20207043.963
  23581274.533   -12586310.85543  -9774693.51842  23581275.847    23581272.534
  21010132.541   -20467115.45243 -15907582.23742  21010133.288    21010130.317
  21677034.704   -21744661.44943 -16939460.31542  21677036.174    21677032.754
  21410524.424   -22801063.95243 -17734013.51242  21410525.383    21410522.332
 04  1  8  0 11 30.0000000  0  7G17G24G30G21G10G 6G 5
  20774680.464   -23660975.29744 -18428958.77842  20774681.026    20774677.961
  22842283.443   -13082165.94743 -10182900.82042  22842284.276    22842281.713
  20208175.353   -27299252.97444 -21261236.77542  20208177.257    20208172.870
  23565635.752   -12668493.08243  -9838731.53742  23565637.055    23565633.688
  21009703.514   -20469369.93943 -15909338.96442  21009704.243    21009701.297
  21666216.524   -21801511.14743 -16983758.76742  21666218.024    21666214.620
  21425245.479   -22723704.37543 -17673733.34042  21425246.439    21425243.379
 04  1  8  0 12  0.0000000  0  7G17G24G30G21G10G 6G 5
  20780320.521   -23631336.57844 -18405863.66742  20780321.086    20780318.023
  22857789.649   -13000680.42343 -10119405.62042  22857790.478    22857787.940
  20209416.490   -27292730.71344 -21256154.49442  20209418.397    20209414.011
  23550033.569   -12750482.91543  -9902619.65642  23550034.818    23550031.503
  21009395.791   -20470986.96243 -15910598.96242  21009396.528    21009393.576
  21655421.863   -21858237.42243 -17027961.04242  21655423.339    21655419.950
  21440040.319   -22645956.93243 -17613150.93142  21440041.301    21440038.226
 04  1  8  0 12 30.0000000  0  7G17G24G30G21G10G 6G 5
  20786019.421   -23601388.62444 -18382527.59642  20786019.962    20786016.937
  22873309.956   -12919120.74643 -10055852.64342  22873310.778    22873308.266
  20210770.832   -27285613.53844 -21250608.64742  20210772.736    20210768.362
  23534468.984   -12832275.04143  -9966353.69542  23534470.167    23534466.902
  21009210.245   -20471961.80444 -15911358.56642  21009211.016    21009208.051
  21644651.770   -21914834.44643 -17072062.60142  21644653.255    21644649.905
  21454909.605   -22567818.35043 -17552263.73542  21454910.589    21454907.528
 04  1  8  0 13  0.0000000  0  7G17G24G30G21G10G 6G 5
  20791775.415   -23571140.80644 -18358957.87042  20791775.927    20791772.890
  22888842.549   -12837496.57043  -9992249.40442  22888843.347    22888840.833
  20212236.795   -27277909.91244 -21244605.82442  20212238.689    20212234.336
  23518940.634   -12913877.03843 -10029939.60742  23518941.776    23518938.549
  21009145.478   -20472302.30443 -15911623.87742  21009146.232    21009143.228
  21633904.860   -21971309.58643 -17116069.18742  21633906.371    21633903.030
  21469851.257   -22489299.35443 -17491080.11342  21469852.246    21469849.218
 04  1  8  0 13 30.0000000  0  7G17G24G30G21G10G 6G 5
  20797589.629   -23540586.88444 -18335149.61742  20797590.144    20797587.120
  22904388.584   -12755801.63843  -9928591.02542  22904389.378    22904386.893
  20213815.939   -27269611.57744 -21238139.59042  20213817.811    20213813.476
  23503450.040   -12995280.41643 -10093370.76442  23503451.170    23503447.930
  21009202.927   -20472000.44943 -15911388.65342  21009203.656    21009200.665
  21623182.965   -22027653.59043 -17159973.58642  21623184.436    21623181.098
  21484866.421   -22410394.17143 -17429595.56842  21484867.401    21484864.411
 04  1  8  0 14  0.0000000  0  7G17G24G30G21G10G 6G 5
  20803461.393   -23509730.57044 -18311105.73142  20803461.889    20803458.874
  22919947.293   -12674040.05143  -9864880.71242  22919948.119    22919945.615
  20215507.720   -27260721.15344 -21231211.98842  20215509.600    20215505.253
  23487996.931   -13076486.78543 -10156648.39242  23487998.095    23487994.792
  21009382.154   -20471058.63743 -15910654.76242  21009382.868    21009379.864
  21612485.720   -22083867.90143 -17203776.92942  21612487.193    21612483.865
  21499954.236   -22331107.25643 -17367813.56842  21499955.218    21499952.234
 04  1  8  0 14 30.0000000  0  7G17G24G30G21G10G 6G 5
  20809390.144   -23478574.69244 -18286828.42242  20809390.666    20809387.647
  22935518.238   -12592214.30843  -9801120.41142  22935519.048    22935516.574
  20217311.991   -27251239.62544 -21223823.78442  20217313.879    20217309.542
  23472581.183   -13157496.82343 -10219773.01442  23472582.347    23472579.059
  21009682.926   -20469478.03543 -15909423.10542  21009683.640    21009680.621
  21601813.140   -22139952.64143 -17247479.30442  21601814.615    21601811.276
  21515114.096   -22251441.72243 -17305736.54142  21515115.061    21515112.090
 04  1  8  0 15  0.0000000  0  7G17G24G30G21G10G 6G 5
  20815375.862   -23447119.55644 -18262317.92442  20815376.365    20815373.358
  22951101.213   -12510325.21643  -9737310.73642  22951102.060    22951099.564
  20219228.861   -27241166.48244 -21215974.58342  20219230.740    20219226.397
  23457203.041   -13238309.25443 -10282743.67342  23457204.221    23457200.954
  21010105.403   -20467257.84643 -15907693.07442  21010106.123    21010103.097
  21591165.564   -22195905.99943 -17291079.30542  21591167.016    21591163.683
  21530345.730   -22171398.96943 -17243365.57742  21530346.682    21530343.740
 04  1  8  0 15 30.0000000  0  7G17G24G30G21G10G 6G 5
  20821418.791   -23415363.67244 -18237573.08042  20821419.296    20821416.307
  22966696.558   -12428371.20643  -9673450.47442  22966697.426    22966694.893
  20221258.943   -27230498.40344 -21207661.79642  20221260.805    20221256.499
  23441863.215   -13318920.27143 -10345557.38542  23441864.404    23441861.134
  21010650.160   -20464395.04544 -15905462.30542  21010650.884    21010647.864
  21580543.839   -22251723.55743 -17334573.49042  21580545.301    21580541.929
  21545649.305   -22090978.16343 -17180700.02642  21545650.267    21545647.330
 04  1  8  0 16  0.0000000  0  7G17G24G30G21G10G 6G 5
  20827517.354   -23383315.43843 -18212600.42842  20827517.870    20827514.895
  22982302.660   -12346360.75143  -9609546.23342  22982303.515    22982300.949
  20223400.844   -27219242.61344 -21198891.05242  20223402.704    20223398.419
  23426560.525   -13399336.24143 -10408219.10542  23426561.716    23426558.474
  21011315.797   -20460897.08944 -15902736.61242  21011316.520    21011313.485
  21569946.760   -22307411.64543 -17377966.78442  21569948.218    21569944.811
  21561023.018   -22010188.79443 -17117747.28142  21561023.984    21561021.022
 04  1  8  0 16 30.0000000  0  7G17G24G30G21G10G 6G 5
  20833672.386   -23350970.56244 -18187396.63442  20833672.894    20833669.902
  22997920.199   -12264290.00343  -9545595.00742  22997921.094    22997918.472
  20225655.628   -27207393.60044 -21189658.05842  20225657.499    20225653.216
  23411296.078   -13479550.95743 -10470724.00642  23411297.293    23411294.088
  21012103.376   -20456758.22744 -15899511.51842  21012104.110    21012101.061
  21559375.612   -22362963.37343 -17421253.82842  21559377.072    21559373.651
  21576467.647   -21929026.79143 -17054504.17642  21576468.603    21576465.660
 04  1  8  0 17  0.0000000  0  7G17G24G30G21G10G 6G 5
  20839883.158   -23318332.71544 -18161964.54542  20839883.674    20839880.692
  23013548.575   -12182162.45243  -9481599.52742  23013549.481    23013546.822
  20228022.851   -27194953.71744 -21179964.64542  20228024.727    20228020.455
  23396069.620   -13559566.26643 -10533073.53842  23396070.809    23396067.562
  21013012.484   -20451980.80244 -15895788.83442  21013013.222    21013010.163
  21548830.162   -22418379.91443 -17464435.53042  21548831.651    21548828.203
  21591982.239   -21847497.19043 -16990974.63042  21591983.167    21591980.225
 04  1  8  0 17 30.0000000  0  7G17G24G30G21G10G 6G 5
  20846149.758   -23285401.49844 -18136303.85142  20846150.258    20846147.294
  23029187.880   -12099977.38643  -9417559.22442  23029188.780    23029186.111
  20230502.895   -27181921.02244 -21169809.30242  20230504.755    20230500.504
  23380881.627   -13639379.24043 -10595265.40042  23380882.860    23380879.596
  21014043.482   -20446562.83844 -15891567.03142  21014044.212    21014041.160
  21538311.054   -22473657.99643 -17507509.34642  21538312.541    21538309.115
  21607566.812   -21765599.72143 -16927158.43642  21607567.737    21607564.813
 04  1  8  0 18  0.0000000  0  7G17G24G30G21G10G 6G 5
  20852470.909   -23252183.59844 -18110419.77042  20852471.424    20852468.464
  23044836.823   -12017741.54243  -9353479.35142  23044837.743    23044835.101
  20233094.676   -27168301.13844 -21159196.41042  20233096.538    20233092.270
  23365731.261   -13718994.83743 -10657303.45142  23365732.456    23365729.250
  21015195.286   -20440509.88544 -15886850.43542  21015196.052    21015192.986
  21527817.476   -22528801.96643 -17550478.65742  21527818.974    21527815.555
  21623219.819   -21683342.56743 -16863061.96442  21623220.750    21623217.819
 04  1  8  0 18 30.0000000  0  7G17G24G30G21G10G 6G 5
  20858847.610   -23218673.86644 -18084308.28442  20858848.108    20858845.158
  23060496.345   -11935450.27443  -9289356.29542  23060497.253    23060494.607
  20235799.409   -27154087.66044 -21148120.97642  20235801.287    20235797.019
  23350619.746   -13798405.82143 -10719182.06542  23350621.010    23350617.797
  21016469.164   -20433815.58844 -15881634.08742  21016469.916    21016466.853
  21517350.894   -22583804.12943 -17593337.46942  21517352.401    21517348.976
  21638942.234   -21600720.90543 -16798681.45942  21638943.148    21638940.221
 04  1  8  0 19  0.0000000  0  7G17G24G30G21G10G 6G 5
  20865279.013   -23184876.51244 -18057972.68442  20865279.540    20865276.593
  23076165.635   -11853107.55943  -9225193.15442  23076166.554    23076163.932
  20238616.551   -27139283.55944 -21136585.31842  20238618.406    20238614.143
  23335546.841   -13877614.18343 -10780902.81342  23335548.067    23335544.802
  21017864.507   -20426482.95243 -15875920.33742  21017865.253    21017862.202
  21506911.053   -22638665.89943 -17636086.88842  21506912.542    21506909.093
  21654733.105   -21517739.39743 -16734020.55542  21654734.031    21654731.073
 04  1  8  0 19 30.0000000  0  7G17G24G30G21G10G 6G 5
  20871764.833   -23150793.33743 -18031414.36242  20871765.354    20871762.407
  23091844.331   -11770715.44843  -9160991.51642  23091845.276    23091842.658
  20241545.922   -27123889.71844 -21124590.12342  20241547.759    20241543.514
  23320512.381   -13956620.66243 -10842466.23942  23320513.542    23320510.313
  21019381.149   -20418512.81344 -15869709.82642  21019381.903    21019378.852
  21496497.995   -22693386.97643 -17678726.66642  21496499.447    21496495.986
  21670591.873   -21434401.19043 -16669081.69942  21670592.794    21670589.827
 04  1  8  0 20  0.0000000  0  7G17G24G30G21G10G 6G 5
  20878304.414   -23116427.59244 -18004635.85342  20878304.938    20878301.989
  23107531.820   -11688277.14143  -9096753.87942  23107532.758    23107530.170
  20244587.163   -27107907.94344 -21112136.79642  20244588.988    20244584.760
  23305516.142   -14035426.07543 -10903872.96642  23305517.289    23305514.113
  21021018.694   -20409907.34544 -15863004.24942  21021019.464    21021016.391
  21486111.565   -22747967.91143 -17721257.25242  21486113.020    21486109.553
  21686517.758   -21350710.19343 -16603867.94842  21686518.680    21686515.705
 04  1  8  0 20 30.0000000  0  7G17G24G30G21G10G 6G 5
  20884897.791   -23081779.07644 -17977637.00542  20884898.334    20884895.379
  23123228.231   -11605792.02143  -9032479.77342  23123229.180    23123226.578
  20247740.522   -27091336.92744 -21099224.31942  20247742.358    20247738.127
  23290558.642   -14114027.88043 -10965121.05442  23290559.779    23290556.587
  21022777.440   -20400665.01143 -15855802.42142  21022778.197    21022775.141
  21475752.376   -22802405.72243 -17763676.31042  21475753.832    21475750.356
  21702510.657   -21266667.06643 -16538379.81242  21702511.592    21702508.576
 04  1  8  0 21  0.0000000  0  7G17G24G30G21G10G 6G 5
  20891545.737   -23046843.91943 -17950414.80142  20891546.281    20891543.312
  23138934.216   -11523256.52043  -8968166.40242  23138935.153    23138932.541
  20251006.952   -27074171.71244 -21085848.83342  20251008.797    20251004.564
  23275640.941   -14192420.58243 -11026206.21842  23275642.058    23275638.816
  21024658.320   -20390780.91143 -15848100.51142  21024659.078    21024656.011
  21465421.629   -22856694.13643 -17805978.95442  21465423.077    21465419.610
  21718571.077   -21182268.95143 -16472615.06342  21718572.015    21718569.019
 04  1  8  0 21 30.0000000  0  7G17G24G30G21G10G 6G 5
  20898246.303   -23011632.16743 -17922977.07142  20898246.844    20898243.875
  23154647.919   -11440680.74943  -8903821.65342  23154648.806    23154646.193
  20254384.677   -27056421.61144 -21072017.59142  20254386.516    20254382.300
  23260761.464   -14270612.29943 -11087134.76042  23260762.596    23260759.380
  21026659.574   -20380264.20144 -15839905.66342  21026660.338    21026657.274
  21455117.867   -22910840.70643 -17848171.07442  21455119.324    21455115.843
  21734696.997   -21097526.76243 -16406582.20042  21734697.920    21734694.923
 04  1  8  0 22  0.0000000  0  7G17G24G30G21G10G 6G 5
  20905000.264   -22976139.80844 -17895320.68642  20905000.808    20904997.848
  23170370.116   -11358060.37143  -8839442.14142  23170370.986    23170368.354
  20257874.806   -27038080.95944 -21057726.17842  20257876.627    20257872.410
  23245921.472   -14348596.86943 -11147901.91042  23245922.574    23245919.331
  21028782.185   -20369109.71344 -15831213.84042  21028782.972    21028779.862
  21444842.410   -22964838.46343 -17890247.23142  21444843.863    21444840.407
  21750889.058   -21012436.78743 -16340278.33542  21750889.994    21750887.028
 04  1  8  0 22 30.0000000  0  7G17G24G30G21G10G 6G 5
  20911806.683   -22940371.80144 -17867449.50942  20911807.254    20911804.275
  23186099.806   -11275400.18343  -8775031.61742  23186100.698    23186098.066
  20261476.489   -27019153.94644 -21042977.85842  20261478.310    20261474.099
  23231120.278   -14426377.25243 -11208509.93042  23231121.434    23231118.083
  21031025.458   -20357321.34843 -15822028.08942  21031026.214    21031023.111
  21434594.822   -23018689.85043 -17932209.33442  21434596.279    21434592.805
  21767146.230   -20927004.77043 -16273707.94342  21767147.179    21767144.222
 04  1  8  0 23  0.0000000  0  7G17G24G30G21G10G 6G 5
  20918665.206   -22904330.16744 -17839365.11842  20918665.742    20918662.772
  23201836.658   -11192702.62543  -8710591.97342  23201837.510    23201834.900
  20265189.542   -26999641.65744 -21027773.48242  20265191.373    20265187.168
  23216357.877   -14503954.01643 -11268959.29042  23216359.006    23216355.693
  21033389.096   -20344900.32343 -15812349.36342  21033389.859    21033386.759
  21424375.208   -23072394.24943 -17974056.90742  21424376.659    21424373.208
  21783467.885   -20841233.99543 -16206873.58542  21783468.800    21783465.865
 04  1  8  0 23 30.0000000  0  7G17G24G30G21G10G 6G 5
  20925576.774   -22868009.61944 -17811063.38742  20925577.320    20925574.356
  23217581.671   -11109961.99543  -8646118.76142  23217582.552    23217579.943
  20269015.196   -26979537.68444 -21012108.05442  20269017.048    20269012.847
  23201635.701   -14581319.35443 -11329243.90242  23201636.819    23201633.496
  21035874.341   -20331840.35244 -15802172.75042  21035875.100    21035871.978
  21414185.059   -23125943.69643 -18015783.72542  21414186.526    21414183.066
  21799854.874   -20755119.89343 -16139771.70842  21799855.787    21799852.871
 04  1  8  0 24  0.0000000  0  7G17G24G30G21G10G 6G 5
  20932539.848   -22831418.53243 -17782550.85142  20932540.371    20932537.395
  23233333.256   -11027186.76043  -8581618.57942  23233334.160    23233331.514
  20272952.007   -26958849.68744 -20995987.54342  20272953.831    20272949.638
  23186952.418   -14658480.17843 -11389369.15542  23186953.474    23186950.167
  21038479.669   -20318149.10044 -15791504.23642  21038480.453    21038477.323
  21404023.227   -23179344.18343 -18057394.48642  21404024.726    21404021.265
  21816305.330   -20668672.10343 -16072409.80542  21816306.252    21816303.321
 04  1  8  0 24 30.0000000  0  7G17G24G30G21G10G 6G 5
  20939554.991   -22794553.55544 -17753824.89342  20939555.543    20939552.561
  23249092.141   -10944373.38843  -8517088.69342  23249093.014    23249090.366
  20277000.805   -26937573.19244 -20979408.45842  20277002.638    20276998.437
  23172309.028   -14735431.20943 -11449330.92542  23172310.085    23172306.817
  21041205.951   -20303822.42544 -15780340.58142  21041206.707    21041203.616
  21393890.939   -23232589.62243 -18098884.42342  21393892.432    21393888.980
  21832819.784   -20581888.07343 -16004785.90142  21832820.710    21832817.816
 04  1  8  0 25  0.0000000  0  7G17G24G30G21G10G 6G 5
  20946620.533   -22757423.93744 -17724892.72442  20946621.082    20946618.078
  23264856.506   -10861531.03443  -8452536.21942  23264857.395    23264854.734
  20281159.982   -26915716.51644 -20962377.28742  20281161.814    20281157.618
  23157704.314   -14812179.42043 -11509134.64742  23157705.334    23157702.103
  21044051.565   -20288868.54643 -15768688.19942  21044052.323    21044049.226
  21383786.892   -23285686.69143 -18140258.74842  21383788.370    21383784.941
  21849396.350   -20494777.69943 -15936907.70242  21849397.281    21849394.373
 04  1  8  0 25 30.0000000  0  7G17G24G30G21G10G 6G 5
  20953737.938   -22720021.78244 -17695748.18842  20953738.461    20953735.473
  23280627.999   -10778651.58743  -8387954.84442  23280628.839    23280626.149
  20285431.255   -26893270.80544 -20944887.12842  20285433.089    20285428.895
  23143139.980   -14888714.99443 -11568772.69642  23143140.980    23143137.770
  21047018.180   -20273278.70943 -15756540.27042  21047018.943    21047015.861
  21373713.125   -23338624.67543 -18181509.11842  21373714.606    21373711.153
  21866036.273   -20407334.07743 -15868769.82742  21866037.253    21866034.377
 04  1  8  0 26  0.0000000  0  7G17G24G30G21G10G 6G 5
  20960905.992   -22682353.28944 -17666396.11842  20960906.536    20960903.529
  23296405.350   -10695741.30043  -8323349.43442  23296406.168    23296403.467
  20289813.567   -26870241.63444 -20926942.32442  20289815.371    20289811.229
  23128615.265   -14965042.58143 -11628248.67542  23128616.336    23128613.017
  21050104.779   -20257058.44444 -15743901.09442  21050105.551    21050102.465
  21363668.922   -23391407.20743 -18222638.34542  21363670.415    21363666.963
  21882738.314   -20319564.42543 -15800377.90542  21882739.283    21882736.407
 04  1  8  0 26 30.0000000  0  7G17G24G30G21G10G 6G 5
  20968124.541   -22644419.49744 -17636837.32042  20968125.104    20968122.079
  23312188.338   -10612801.10343  -8258720.72642  23312189.156    23312186.424
  20294306.891   -26846629.01344 -20908542.88542  20294308.724    20294304.566
  23114130.371   -15041160.92943 -11687561.60942  23114131.447    23114128.152
  21053311.353   -20240207.83743 -15730770.74842  21053312.111    21053309.019
  21353654.649   -23444032.56943 -18263645.10742  21353656.149    21353652.679
  21899502.039   -20231470.50843 -15731733.31042  21899502.995    21899500.137
 04  1  8  0 27  0.0000000  0  7G17G24G30G21G10G 6G 5
  20975393.673   -22606219.93743 -17607071.43042  20975394.223    20975391.202
  23327977.223   -10529830.26843  -8194068.13842  23327977.964    23327975.280
  20298911.466   -26822431.79544 -20889687.91542  20298913.295    20298909.144
  23099685.657   -15117068.00143 -11746709.91542  23099686.752    23099683.431
  21056638.063   -20222725.85943 -15717148.42442  21056638.818    21056635.710
  21343670.862   -23496497.70443 -18304527.01842  21343672.343    21343668.890
  21916327.365   -20143052.81743 -15662836.41142  21916328.333    21916325.467
 04  1  8  0 27 30.0000000  0  7G17G24G30G21G10G 6G 5
  20982712.229   -22567760.61343 -17577103.12742  20982712.795    20982709.770
  23343770.779   -10446834.74243  -8129396.30342  23343771.480    23343768.852
  20303626.359   -26797654.97344 -20870381.30742  20303628.177    20303624.033
  23085280.437   -15192767.86343 -11805696.78142  23085281.603    23085278.049
  21060083.976   -20204617.50843 -15703038.01542  21060084.722    21060081.608
  21333716.934   -23548805.91343 -18345286.64942  21333718.409    21333714.961
  21933213.004   -20054318.36043 -15593692.68542  21933213.955    21933211.087
 04  1  8  0 28  0.0000000  0  7G17G24G30G21G10G 6G 5
  20990080.773   -22529038.69843 -17546930.20742  20990081.321    20990078.296
  23359569.591   -10363811.58843  -8064702.95442  23359570.293    23359567.713
  20308452.124   -26772295.37044 -20850620.58242  20308453.945    20308449.796
  23070915.445   -15268256.06443 -11864518.69042  23070916.605    23070913.138
  21063649.661   -20185879.76343 -15688437.16942  21063650.390    21063647.281
  21323793.882   -23600951.85643 -18385919.84042  21323795.354    21323791.904
  21950159.213   -19965265.42343 -15524300.79642  21950160.187    21950157.289
 04  1  8  0 28 30.0000000  0  7G17G24G30G21G10G 6G 5
  20997498.796   -22490056.81043 -17516554.70942  20997499.328    20997496.302
  23375373.209   -10280763.04643  -7999989.81742  23375373.871    23375371.330
  20313388.532   -26746354.49044 -20830406.91542  20313390.333    20313386.199
  23056590.620   -15343533.26343 -11923176.20242  23056591.792    23056588.274
  21067334.741   -20166514.50143 -15673347.35042  21067335.465    21067332.350
  21313901.786   -23652935.27343 -18426426.38242  21313903.233    21313899.776
  21967165.325   -19875897.74643 -15454663.65242  21967166.315    21967163.430
 04  1  8  0 29  0.0000000  0  7G17G24G30G21G10G 6G 5
  21004966.142   -22450815.69144 -17485977.21442  21004966.673    21004963.622
  23391181.541   -10197689.93143  -7935257.52942  23391182.181    23391179.669
  20318435.476   -26719832.62644 -20809740.53442  20318437.285    20318433.123
  23042306.238   -15418598.04843 -11981668.21042  23042307.427    23042303.777
  21071139.213   -20146521.83544 -15657768.64342  21071139.956    21071136.831
  21304040.961   -23704754.25543 -18466804.79642  21304042.401    21304038.926
  21984231.085   -19786216.74043 -15384782.36342  21984232.057    21984229.137
 04  1  8  0 29 30.0000000  0  7G17G24G30G21G10G 6G 5
  21012482.781   -22411315.51943 -17455197.86442  21012483.310    21012480.255
  23406994.478   -10114592.29843  -7870506.14042  23406995.114    23406992.591
  20323593.082   -26692729.30844 -20788621.07242  20323594.894    20323590.717
  23028062.513   -15493449.00743 -12039993.57642  23028063.710    23028060.077
  21075063.173   -20125901.40944 -15641700.77542  21075063.886    21075060.768
  21294211.849   -23756406.62643 -18507053.38442  21294213.291    21294209.785
  22001356.249   -19696223.49443 -15314657.77842  22001357.216    22001354.305
 04  1  8  0 30  0.0000000  0  7G17G24G30G21G10G 6G 5
  21020047.170   -22371564.34443 -17424222.92242  21020047.701    21020044.643
  23422810.593   -10031477.59643  -7805741.44642  23422811.305    23422808.826
  20328859.985   -26665051.61344 -20767054.04042  20328861.789    20328857.623
  23013858.356   -15568092.20443 -12098157.05542  23013859.605    23013855.921
  21079105.206   -20104660.24243 -15625149.20942  21079105.934    21079102.827
  21284413.483   -23807897.22743 -18547175.91542  21284414.953    21284411.434
  22018539.069   -19605927.13743 -15244296.99342  22018540.057    22018537.149
 04  1  8  0 30 30.0000000  0  7G17G24G30G21G10G 6G 5
  21027660.519   -22331555.90743 -17393047.52042  21027661.040    21027658.006
  23438631.093    -9948340.14743  -7740959.03042  23438631.846    23438629.411
  20334237.414   -26636792.94144 -20745034.30242  20334239.243    20334235.061
  22999695.171   -15642519.99443 -12156152.71042  22999696.461    22999692.640
  21083266.588   -20082792.19043 -15608109.16242  21083267.290    21083264.159
  21274647.558   -23859217.50643 -18587165.73142  21274649.026    21274645.488
  22035780.582   -19515322.44043 -15173695.94842  22035781.549    22035778.648
 04  1  8  0 31  0.0000000  0  7G17G24G30G21G10G 6G 5
  21035321.496   -22291297.22143 -17361677.11442  21035322.025    21035318.966
  23454454.769    -9865186.04143  -7676163.63842  23454455.543    23454453.165
  20339724.238   -26607959.53544 -20722566.71842  20339726.051    20339721.878
  22985572.124   -15716737.15043 -12213984.23342  22985573.429    22985569.598
  21087546.061   -20060303.37943 -15590585.40442  21087546.760    21087543.634
  21264913.273   -23910371.58943 -18627026.03942  21264914.720    21264911.181
  22053079.300   -19424417.14143 -15102860.66842  22053080.256    22053077.382
 04  1  8  0 31 30.0000000  0  7G17G24G30G21G10G 6G 5
  21043030.704   -22250785.12043 -17330109.24242  21043031.199    21043028.163
  23470282.270    -9782012.01343  -7611352.71442  23470283.040    23470280.650
  20345321.096   -26578547.79844 -20699648.48642  20345322.906    20345318.748
  22971490.094   -15790738.55843 -12271647.62242  22971491.433    22971487.619
  21091944.333   -20037190.31043 -15572575.21142  21091945.026    21091941.892
  21255211.710   -23961353.50243 -18666752.18842  21255213.188    21255209.624
  22070435.567   -19333209.30843 -15031789.63942  22070436.528    22070433.661
 04  1  8  0 32  0.0000000  0  7G17G24G30G21G10G 6G 5
  21050787.331   -22210023.79343 -17298347.17442  21050787.813    21050784.780
  23486112.720    -9698822.56343  -7546529.78242  23486113.451    23486111.102
  20351027.340   -26548561.37144 -20676282.44742  20351029.154    20351024.971
  22957448.574   -15864527.10043 -12329145.16442  22957449.909    22957445.973
  21096460.671   -20013456.77043 -15554081.53542  21096461.358    21096458.217
  21245542.624   -24012164.88943 -18706345.46342  21245544.091    21245540.526
  22087848.390   -19241704.35043 -14960487.09142  22087849.352    22087846.517
 04  1  8  0 32 30.0000000  0  7G17G24G30G21G10G 6G 5
  21058590.858   -22169015.85943 -17266392.94542  21058591.359    21058588.313
  23501945.677    -9615619.78843  -7481696.45542  23501946.430    23501944.048
  20356842.600   -26518001.99544 -20652469.95442  20356844.418    20356840.226
  22943447.498   -15938103.39343 -12386477.32142  22943448.807    22943444.870
  21101094.755   -19989104.56543 -15535105.78342  21101095.433    21101092.275
  21235906.031   -24062805.46643 -18745805.63942  21235907.493    21235903.929
  22105317.104   -19149905.59143 -14888955.61142  22105318.108    22105315.233
 04  1  8  0 33  0.0000000  0  7G17G24G30G21G10G 6G 5
  21066441.490   -22127760.52743 -17234245.93342  21066441.985    21066438.940
  23517781.313    -9532402.53843  -7416851.84842  23517782.154    23517779.807
  20362767.052   -26486868.86444 -20628210.37842  20362768.879    20362764.687
  22929487.229   -16011464.89343 -12443642.08342  22929488.519    22929484.634
  21105846.635   -19964133.09543 -15515647.48142  21105847.351    21105844.180
  21226302.569   -24113271.85343 -18785130.08542  21226304.052    21226300.475
  22122841.696   -19057813.42543 -14817195.49942  22122842.671    22122839.827
 04  1  8  0 33 30.0000000  0  7G17G24G30G21G10G 6G 5
  21074339.544   -22086256.09343 -17201904.81642  21074340.021    21074336.988
  23533620.185    -9449168.87943  -7351994.46142  23533621.033    23533618.669
  20368801.153   -26455159.45444 -20603501.75342  20368802.970    20368798.783
  22915568.605   -16084608.07543 -12500636.76342  22915569.819    22915565.812
  21110716.853   -19938539.95143 -15495704.76442  21110717.546    21110714.394
  21216733.113   -24163559.57143 -18824315.30442  21216734.594    21216731.010
  22140422.141   -18965427.48343 -14745206.47342  22140423.125    22140420.309
 04  1  8  0 34  0.0000000  0  7G17G24G30G21G10G 6G 5
  21082283.489   -22044510.38043 -17169375.68842  21082283.955    21082280.930
  23549460.624    -9365926.58743  -7287130.34942  23549461.529    23549459.174
  20374943.482   -26422881.33844 -20578349.98142  20374945.305    20374941.090
  22901690.392   -16157538.34343 -12557465.51342  22901691.668    22901687.637
  21115703.909   -19912332.70443 -15475283.52642  21115704.605    21115701.438
  21207196.692   -24213673.84943 -18863365.37542  21207198.143    21207194.564
  22158056.858   -18872756.65743 -14672995.46142  22158057.803    22158055.005
 04  1  8  0 34 30.0000000  0  7G17G24G30G21G10G 6G 5
  21090273.445   -22002522.93543 -17136658.20142  21090273.910    21090270.855
  23565302.979    -9282674.49643  -7222258.60942  23565303.901    23565301.557
  20381194.216   -26390033.54044 -20552754.30242  20381196.036    20381191.823
  22887853.036   -16230254.15743 -12614127.14742  22887854.256    22887850.292
  21120807.958   -19885510.76543 -15454383.31142  21120808.649    21120805.492
  21197693.889   -24263611.33243 -18902277.68842  21197695.345    21197691.766
  22175745.777   -18779800.76943 -14600562.32742  22175746.742    22175743.943
 04  1  8  0 35  0.0000000  0  7G17G24G30G21G10G 6G 5
  21098308.779   -21960296.80743 -17103754.72342  21098309.282    21098306.224
  23581146.572    -9199415.74543  -7157381.65842  23581147.554    23581145.173
  20387552.831   -26356618.80544 -20526716.85042  20387554.651    20387550.427
  22874056.177   -16302757.00443 -12670622.85142  22874057.413    22874053.345
  21126028.454   -19858076.78843 -15433006.18042  21126029.150    21126025.985
  21188224.694   -24313372.30943 -18941052.46542  21188226.151    21188222.555
  22193488.145   -18686564.17043 -14527910.45542  22193489.100    22193486.335
 04  1  8  0 35 30.0000000  0  7G17G24G30G21G10G 6G 5
  21106390.530   -21917826.91643 -17070661.29942  21106391.014    21106387.964
  23596992.460    -9116144.87643  -7092495.27842  23596993.450    23596991.135
  20394020.329   -26322631.78644 -20500233.46842  20394022.165    20394017.968
  22860301.158   -16375039.82543 -12726947.09842  22860302.380    22860298.355
  21131366.404   -19830025.64243 -15411148.14042  21131367.099    21131363.933
  21178790.528   -24362949.03343 -18979683.66642  21178792.001    21178788.408
  22211284.554   -18593043.54943 -14455037.26942  22211285.510    22211282.746
 04  1  8  0 36  0.0000000  0  7G17G24G30G21G10G 6G 5
  21114516.956   -21875122.16343 -17037384.86742  21114517.476    21114514.418
  23612839.057    -9032870.44643  -7027606.12042  23612840.040    23612837.711
  20400595.158   -26288080.73544 -20473310.57742  20400597.001    20400592.821
  22846586.789   -16447109.54943 -12783105.30742  22846588.021    22846583.970
  21136820.207   -19801365.68243 -15388815.70342  21136820.905    21136817.715
  21169390.315   -24412347.58143 -19018176.02942  21169391.779    21169388.166
  22229133.203   -18499248.37043 -14381950.14042  22229134.119    22229131.395
 04  1  8  0 36 30.0000000  0  7G17G24G30G21G10G 6G 5
  21122689.172   -21832176.85743 -17003920.98742  21122689.682    21122686.632
  23628687.479    -8949586.49543  -6962709.53342  23628688.423    23628686.094
  20407278.482   -26252959.67044 -20445943.52342  20407280.310    20407276.139
  22832914.218   -16518958.94043 -12839091.80642  22832915.448    22832911.381
  21142390.988   -19772091.09743 -15366004.33442  21142391.674    21142388.481
  21160025.643   -24461559.33143 -19056522.83242  21160027.084    21160023.463
  22247034.981   -18405173.94243 -14308645.41142  22247035.902    22247033.186
 04  1  8  0 37  0.0000000  0  7G17G24G30G21G10G 6G 5
  21130905.728   -21788998.66443 -16970275.64042  21130906.243    21130903.161
  23644536.259    -8866300.77943  -6897811.57242  23644537.171    23644534.843
  20414068.872   -26217275.98244 -20418138.06042  20414070.686    20414066.522
  22819282.509   -16590594.25843 -12894911.51542  22819283.771    22819279.680
  21148077.262   -19742209.47943 -15342719.95742  21148077.949    21148074.760
  21150695.502   -24510589.38943 -19094728.06542  21150696.957    21150693.338
  22264988.220   -18310829.07643 -14235129.94942  22264989.149    22264986.430
 04  1  8  0 37 30.0000000  0  7G17G24G30G21G10G 6G 5
  21139167.490   -21745582.78843 -16936445.08842  21139168.021    21139164.921
  23660386.417    -8783007.89843  -6832908.04642  23660387.311    23660384.961
  20420967.244   -26181024.79044 -20389890.38942  20420969.064    20420964.898
  22805692.681   -16662008.83543 -12950559.18442  22805693.962    22805689.917
  21153880.015   -19711715.76543 -15318958.61842  21153880.709    21153877.496
  21141401.361   -24559430.42143 -19132786.01042  21141402.792    21141399.190
  22282993.583   -18216210.36043 -14161401.10342  22282994.485    22282991.795
 04  1  8  0 38  0.0000000  0  7G17G24G30G21G10G 6G 5
  21147472.595   -21701939.08843 -16902437.00642  21147473.149    21147470.040
  23676236.075    -8699717.32443  -6768006.30542  23676236.999    23676234.586
  20427971.797   -26144215.55844 -20361207.88242  20427973.624    20427969.459
  22792143.469   -16733210.41143 -13006040.90242  22792144.705    22792140.563
  21159797.371   -19680619.82143 -15294728.01042  21159798.059    21159794.846
  21132141.853   -24608089.30143 -19170702.01142  21132143.307    21132139.702
  22301048.977   -18121328.53743 -14087467.24142  22301049.940    22301047.190
 04  1  8  0 38 30.0000000  0  7G17G24G30G21G10G 6G 5
  21155822.086   -21658062.31243 -16868247.31242  21155822.628    21155819.518
  23692086.356    -8616423.59743  -6703102.10942  23692087.308    23692084.838
  20435083.579   -26106842.93444 -20332086.36742  20435085.395    20435081.249
  22778636.020   -16804192.25143 -13061351.37342  22778637.290    22778633.222
  21165830.286   -19648916.54643 -15270024.15642  21165830.991    21165827.779
  21122918.552   -24656558.02743 -19208469.83542  21122920.006    21122916.401
  22319155.279   -18026179.43243 -14013325.10842  22319156.232    22319153.502
 04  1  8  0 39  0.0000000  0  7G17G24G30G21G10G 6G 5
  21164215.277   -21613955.86043 -16833878.64442  21164215.828    21164212.692
  23707936.637    -8533129.82743  -6638197.86942  23707937.579    23707935.168
  20442302.023   -26068909.88644 -20302528.15642  20442303.848    20442299.668
  22765170.132   -16874956.02243 -13116491.92642  22765171.363    22765167.327
  21171978.224   -19616608.91243 -15244849.37342  21171978.914    21171975.706
  21113731.372   -24704837.04643 -19246089.83942  21113732.827    21113729.201
  22337311.593   -17930767.51743 -13938978.18342  22337312.527    22337309.793
 04  1  8  0 39 30.0000000  0  7G17G24G30G21G10G 6G 5
  21172651.828   -21569621.51143 -16799332.39942  21172652.368    21172649.233
  23723786.574    -8449837.76843  -6573294.96042  23723787.557    23723785.050
  20449626.740   -26030418.33244 -20272534.74942  20449628.566    20449624.386
  22751745.648   -16945502.15843 -13171462.90842  22751746.879    22751742.681
  21178240.777   -19583698.92543 -15219205.22642  21178241.485    21178238.261
  21104580.419   -24752925.58243 -19283561.41642  21104581.862    21104578.248
  22355517.342   -17835095.74843 -13864428.77942  22355518.300    22355515.550
 04  1  8  0 40  0.0000000  0  7G17G24G30G21G10G 6G 5
  21181131.326   -21525061.41843 -16764610.24742  21181131.877    21181128.763
  23739635.927    -8366548.94243  -6508394.56542  23739636.862    23739634.416
  20457057.381   -25991370.04544 -20242107.52242  20457059.230    20457055.034
  22738362.483   -17015830.76543 -13226264.36242  22738363.707    22738359.643
  21184617.558   -19550188.59743 -15193093.27842  21184618.273    21184615.068
  21095465.864   -24800822.81643 -19320883.92442  21095467.311    21095463.690
  22373771.935   -17739167.45343 -13789679.48542  22373772.869    22373770.152
 04  1  8  0 40 30.0000000  0  7G17G24G30G21G10G 6G 5
  21189654.463   -21480272.11743 -16729709.49442  21189655.004    21189651.892
  23755485.447    -8283259.39543  -6443493.62042  23755486.438    23755483.838
  20464594.653   -25951761.50844 -20211243.73542  20464596.491    20464592.305
  22725021.785   -17085936.85643 -13280892.45742  22725023.019    22725018.874
  21191109.244   -19516074.55843 -15166510.90542  21191109.950    21191106.768
  21086388.871   -24848522.63243 -19358052.59842  21086390.336    21086386.719
  22392075.770   -17642980.36143 -13714728.53842  22392076.707    22392073.933
 04  1  8  0 41  0.0000000  0  7G17G24G30G21G10G 6G 5
  21198219.405   -21435263.20043 -16694637.61142  21198219.926    21198216.824
  23771333.296    -8199978.52143  -6378599.42342  23771334.204    23771331.655
  20472236.690   -25911602.33244 -20179950.88142  20472238.526    20472234.358
  22711721.788   -17155828.40443 -13335353.36342  22711722.993    22711718.871
  21197713.988   -19481366.43543 -15139465.61142  21197714.680    21197711.498
  21077348.117   -24896032.07243 -19395072.93242  21077349.572    21077345.952
  22410426.767   -17546545.28743 -13639584.36542  22410427.689    22410424.961
 04  1  8  0 41 30.0000000  0  7G17G24G30G21G10G 6G 5
  21206827.055   -21390029.71043 -16659390.74142  21206827.577    21206824.488
  23787180.531    -8116700.89143  -6313707.75742  23787181.416    23787178.847
  20479984.494   -25870887.33244 -20148224.91942  20479986.346    20479982.174
  22698463.985   -17225498.81943 -13389641.95542  22698465.195    22698461.142
  21204432.711   -19446059.22343 -15111953.49542  21204433.427    21204430.244
  21068345.091   -24943343.22143 -19431938.75042  21068346.546    21068342.922
  22428825.742   -17449858.35943 -13564243.93342  22428826.644    22428823.858
 04  1  8  0 42  0.0000000  0  7G17G24G30G21G10G 6G 5
  21215477.259   -21344572.57343 -16623969.59842  21215477.780    21215474.692
  23803026.997    -8033427.22343  -6248819.18442  23803027.887    23803025.250
  20487837.906   -25829617.45544 -20116066.58242  20487839.752    20487835.560
  22685248.258   -17294947.34643 -13443757.64042  22685249.483    22685245.419
  21211265.242   -19410153.96443 -15083975.36242  21211265.957    21211262.760
  21059380.151   -24990454.15043 -19468648.54842  21059381.627    21059377.984
  22447272.278   -17352921.41743 -13488708.68642  22447273.162    22447270.388
 04  1  8  0 42 30.0000000  0  7G17G24G30G21G10G 6G 5
  21224168.375   -21298900.41643 -16588380.90842  21224168.901    21224165.826
  23818871.143    -7950166.02343  -6183940.33542  23818871.912    23818869.312
  20495795.236   -25787801.53644 -20083482.76442  20495797.076    20495792.890
  22672073.550   -17364181.19643 -13497706.06342  22672074.759    22672070.591
  21218209.827   -19373659.85943 -15055538.38842  21218210.546    21218207.342
  21050452.171   -25037370.95443 -19505207.08942  21050453.643    21050449.998
  22465764.441   -17255744.58243 -13412986.50642  22465765.333    22465762.547
 04  1  8  0 43  0.0000000  0  7G17G24G30G21G10G 6G 5
  21232901.338   -21253008.46443 -16552620.94842  21232901.839    21232898.787
  23834713.929    -7866911.85743  -6119066.95242  23834714.653    23834712.059
  20503857.446   -25745434.40044 -20050469.42242  20503859.290    20503855.102
  22658940.818   -17433193.63143 -13551481.93742  22658942.038    22658938.037
  21225267.471   -19336571.67943 -15026638.50742  21225268.204    21225264.991
  21041562.639   -25084085.73243 -19541608.20242  21041564.116    21041560.461
  22484302.900   -17158324.29543 -13337074.62342  22484303.818    22484301.032
 04  1  8  0 43 30.0000000  0  7G17G24G30G21G10G 6G 5
  21241676.118   -21206896.61043 -16516689.63842  21241676.622    21241673.600
  23850555.388    -7783664.38443  -6054198.78842  23850556.148    23850553.496
  20512024.552   -25702516.13844 -20017026.63042  20512026.383    20512022.186
  22645850.672   -17501983.03143 -13605084.04542  22645851.870    22645847.669
  21232438.108   -19298889.76043 -14997275.96642  21232438.827    21232435.602
  21032712.076   -25130595.71544 -19577849.73642  21032713.557    21032709.899
  22502887.550   -17060661.70243 -13260973.93842  22502888.441    22502885.670
 04  1  8  0 44  0.0000000  0  7G17G24G30G21G10G 6G 5
  21250491.578   -21160570.99143 -16480591.75442  21250492.096    21250489.079
  23866394.547    -7700428.83043  -5989339.91042  23866395.290    23866392.720
  20520295.301   -25659053.08244 -19983159.32242  20520297.123    20520292.954
  22632801.950   -17570554.19043 -13658516.07542  22632803.144    22632799.051
  21239720.542   -19260620.32443 -14967455.62442  21239721.244    21239718.007
  21023899.836   -25176904.31243 -19613934.33942  21023901.315    21023897.670
  22521516.934   -16962763.76243 -13184689.85042  22521517.823    22521515.046
 04  1  8  0 44 30.0000000  0  7G17G24G30G21G10G 6G 5
  21259348.066   -21114029.84243 -16444325.92842  21259348.566    21259345.593
  23882231.832    -7617203.41643  -5924488.92442  23882232.611    23882229.924
  20528670.095   -25615043.39244 -19948866.06642  20528671.912    20528667.734
  22619795.546   -17638903.57543 -13711775.30042  22619796.679    22619792.574
  21247115.025   -19221762.07443 -14937176.46542  21247115.734    21247112.476
  21015126.797   -25223006.88343 -19649858.41142  21015128.281    21015124.620
  22540191.191   -16864629.97243 -13108221.99042  22540192.078    22540189.342
 04  1  8  0 45  0.0000000  0  7G17G24G30G21G10G 6G 5
  21268244.793   -21067277.30743 -16407895.38342  21268245.256    21268242.327
  23898066.310    -7533992.43943  -5859649.21742  23898067.137    23898064.426
  20537148.040   -25570491.49044 -19914150.31042  20537149.866    20537145.689
  22606830.790   -17707033.75243 -13764863.73142  22606831.901    22606827.704
  21254620.696   -19182319.44543 -14906441.94742  21254621.404    21254618.159
  21006392.708   -25268904.89243 -19685623.08342  21006394.184    21006390.501
  22558909.231   -16766266.18143 -13031574.90942  22558910.095    22558907.364
 04  1  8  0 45 30.0000000  0  7G17G24G30G21G10G 6G 5
  21277182.221   -21020310.83043 -16371298.12942  21277182.685    21277179.753
  23913898.754    -7450792.29543  -5794817.92742  23913899.600    23913896.870
  20545729.694   -25525394.75744 -19879010.00942  20545731.500    20545727.323
  22593908.509   -17774940.71943 -13817778.20442  22593909.616    22593905.547
  21262237.998   -19142290.21943 -14875250.34042  21262238.715    21262235.449
  20997698.589   -25314592.84044 -19721224.06942  20997700.041    20997696.365
  22577671.396   -16667670.48243 -12954747.12142  22577672.244    22577669.539
 04  1  8  0 46  0.0000000  0  7G17G24G30G21G10G 6G 5
  21286159.495   -20973135.02543 -16334537.75942  21286159.928    21286157.013
  23929728.330    -7367607.41043  -5729998.53642  23929729.114    23929726.498
  20554414.061   -25479758.11744 -19843449.00442  20554415.869    20554411.705
  22581028.090   -17842627.56343 -13870521.16742  22581029.198    22581025.086
  21269965.996   -19101679.21143 -14843605.39742  21269966.731    21269963.466
  20989044.077   -25360072.54744 -19756662.77842  20989045.543    20989041.843
  22596476.507   -16568849.06443 -12877743.45142  22596477.352    22596474.644
 04  1  8  0 46 30.0000000  0  7G17G24G30G21G10G 6G 5
  21295176.554   -20925750.04743 -16297614.39842  21295176.984    21295174.078
  23945555.006    -7284437.75343  -5665190.99942  23945555.763    23945553.203
  20563201.082   -25433582.02244 -19807467.64542  20563202.900    20563198.728
  22568189.848   -17910092.77443 -13923091.43142  22568190.960    22568186.859
  21277804.643   -19060486.93043 -14811507.50942  21277805.362    21277802.107
  20980429.638   -25405341.61544 -19791937.36042  20980431.113    20980427.411
  22615324.281   -16469803.29043 -12800564.95742  22615325.168    22615322.443
 04  1  8  0 47  0.0000000  0  7G17G24G30G21G10G 6G 5
  21304233.338   -20878156.25943 -16260528.33142  21304233.780    21304230.856
  23961378.877    -7201282.90043  -5600395.01842  23961379.618    23961377.070
  20572090.692   -25386866.82444 -19771066.21142  20572092.517    20572088.358
  22555394.060   -17977334.80643 -13975487.77042  22555395.177    22555391.151
  21285753.785   -19018713.86543 -14778957.06742  21285754.509    21285751.256
  20971855.806   -25450397.40944 -19827045.76442  20971857.259    20971853.556
  22634214.531   -16370534.30943 -12723212.53342  22634215.453    22634212.754
 04  1  8  0 47 30.0000000  0  8G29G17G24G30G21G10G 6G 5
  24576987.614    -4500171.54953  -3498853.24552  24576989.423    24576987.085
  21313327.779   -20830364.57543 -16223288.06042  21313328.240    21313325.327
  23977197.882    -7118153.61943  -5535618.94442  23977198.617    23977196.045
  20581080.718   -25339623.89244 -19734253.55042  20581082.541    20581078.425
  22542638.898   -18044363.55343 -14027717.94242  22542640.001    22542635.868
  21293811.251   -18976371.61043 -14745963.10142  21293811.965    21293808.733
  20963320.998   -25495248.09444 -19861994.33642  20963322.465    20963318.754
  22653144.883   -16271054.74543 -12645696.00142  22653145.800    22653143.105
 04  1  8  0 48  0.0000000  0  8G29G17G24G30G21G10G 6G 5
  24563648.199    -4570270.48543  -3553475.71042  24563650.021    24563647.556
  21322462.561   -20782361.09343 -16185882.74942  21322463.008    21322460.079
  23993014.769    -7035035.37643  -5470851.48042  23993015.469    23993012.972
  20590173.816   -25291839.34644 -19697018.84942  20590175.658    20590171.522
  22529927.242   -18111163.47443 -14079769.78742  22529928.392    22529924.311
  21301979.547   -18933446.84043 -14712515.22042  21301980.270    21301977.035
  20954828.392   -25539876.89144 -19896770.00342  20954829.870    20954826.171
  22672117.701   -16171352.13543 -12568005.68042  22672118.608    22672115.905
 04  1  8  0 48 30.0000000  0  8G29G17G24G30G21G10G 6G 5
  24550327.922    -4640269.38643  -3608020.27142  24550329.528    24550327.151
  21331635.665   -20734156.11143 -16148320.42542  21331636.121    21331633.185
  24008827.745    -6951937.82643  -5406100.12642  24008828.424    24008825.869
  20599367.963   -25243523.81644 -19659370.39442  20599369.808    20599365.672
  22517257.535   -18177743.13843 -14131650.00542  22517258.693    22517254.555
  21310256.718   -18889950.04243 -14678621.60442  21310257.424    21310254.206
  20946376.586   -25584291.37744 -19931378.67642  20946378.053    20946374.341
  22691130.854   -16071437.40443 -12490150.06142  22691131.752    22691129.050
 04  1  8  0 49  0.0000000  0  8G29G17G24G30G21G10G 6G 5
  24537028.113    -4710160.30743  -3662480.66842  24537029.691    24537027.372
  21340847.782   -20685746.16343 -16110598.38742  21340848.241    21340845.272
  24024637.436    -6868857.30643  -5341362.06042  24024638.118    24024635.565
  20608663.709   -25194674.29544 -19621305.84242  20608665.544    20608661.427
  22504630.642   -18244097.98643 -14183355.05842  22504631.812    22504627.576
  21318643.231   -18845878.48943 -14644280.13342  21318643.942    21318640.749
  20937966.753   -25628485.35144 -19965815.53642  20937968.211    20937964.498
  22710184.686   -15971308.84643 -12412127.83842  22710185.598    22710182.892
 04  1  8  0 49 30.0000000  0  8G29G17G24G30G21G10G 6G 5
  24523748.535    -4779944.94343  -3716858.25842  24523750.015    24523747.759
  21350097.801   -20637136.99143 -16072721.11042  21350098.245    21350095.299
  24040442.870    -6785799.34943  -5276641.56742  24040443.528    24040441.011
  20618059.947   -25145296.74244 -19582829.83742  20618061.783    20618057.673
  22492045.663   -18310232.21843 -14234888.18742  22492046.840    22492042.688
  21327137.947   -18801238.40843 -14609495.64842  21327138.673    21327135.483
  20929598.328   -25672461.69344 -20000082.80042  20929599.784    20929596.081
  22729277.955   -15870973.23043 -12333944.26542  22729278.858    22729276.124
 04  1  8  0 50  0.0000000  0  8G29G17G24G30G21G10G 6G 5
  24510489.818    -4849619.42743  -3771150.04242  24510491.415    24510489.163
  21359385.606   -20588329.26443 -16034689.11442  21359386.053    21359383.087
  24056243.938    -6702764.15943  -5211938.81342  24056244.673    24056242.115
  20627556.485   -25095392.20644 -19543943.19742  20627558.311    20627554.214
  22479502.849   -18376145.03443 -14286248.79342  22479504.039    22479499.786
  21335740.660   -18756030.81343 -14574268.94742  21335741.390    21335738.204
  20921271.713   -25716218.30044 -20034178.84542  20921273.162    20921269.466
  22748410.132   -15770432.96043 -12255601.21742  22748411.025    22748408.319
 04  1  8  0 50 30.0000000  0  8G29G17G24G30G21G10G 6G 5
  24497253.659    -4919175.49343  -3825349.51542  24497255.287    24497253.072
  21368711.917   -20539319.22943 -15996499.48042  21368712.358    21368709.384
  24072041.576    -6619747.15343  -5147250.23342  24072042.243    24072039.786
  20637153.971   -25044957.20144 -19504643.20942  20637155.793    20637151.676
  22467003.202   -18441830.89143 -14337432.54442  22467004.393    22467000.211
  21344452.007   -18710252.39343 -14538597.45242  21344452.747    21344449.551
  20912988.155   -25759748.62344 -20068098.56942  20912989.627    20912985.910
  22767581.794   -15669685.28343 -12177096.56442  22767582.700    22767579.959
 04  1  8  0 51  0.0000000  0  8G29G17G24G30G21G10G 6G 5
  24484039.527    -4988616.13443  -3879459.09042  24484041.119    24484038.970
  21378075.344   -20490113.94643 -15958157.70242  21378075.815    21378072.829
  24087834.418    -6536755.29143  -5082581.24142  24087835.043    24087832.722
  20646850.915   -24993999.34744 -19464935.80342  20646852.767    20646848.652
  22454545.745   -18507295.30643 -14388443.74242  22454546.889    22454542.666
  21353270.527   -18663910.66843 -14502487.01342  21353271.265    21353268.070
  20904746.873   -25803056.88744 -20101845.26042  20904748.324    20904744.619
  22786791.441   -15568738.03843 -12098436.40942  22786792.344    22786789.631
 04  1  8  0 51 30.0000000  0  8G29G17G24G30G21G10G 6G 5
  24470847.749    -5057938.84343  -3933476.71142  24470849.550    24470847.303
  21387475.597   -20440715.30543 -15919665.25042  21387476.068    21387473.056
  24103622.215    -6453789.97943  -5017932.94242  24103622.766    24103620.457
  20656646.974   -24942520.87944 -19424822.72242  20656648.816    20656644.689
  22442130.242   -18572539.13343 -14439283.06242  22442131.381    22442127.152
  21362195.769   -18617008.27143 -14465939.68642  21362196.484    21362193.301
  20896547.989   -25846142.33344 -20135418.32342  20896549.429    20896545.707
  22806038.384   -15467594.97743 -12019623.64942  22806039.250    22806036.513
 04  1  8  0 52  0.0000000  0  8G29G17G24G30G21G10G 6G 5
  24457679.829    -5127136.33743  -3987396.79942  24457681.661    24457679.259
  21396913.194   -20391120.31743 -15881019.80642  21396913.676    21396910.672
  24119405.624    -6370847.42743  -4953302.38242  24119406.247    24119403.906
  20666542.541   -24890519.44244 -19384302.13342  20666544.364    20666540.257
  22429757.527   -18637557.86643 -14489946.96442  22429758.670    22429754.534
  21371228.112   -18569542.97243 -14428953.74142  21371228.827    21371225.651
  20888392.621   -25888999.09144 -20168813.18742  20888394.051    20888390.333
  22825322.899   -15366254.31243 -11940656.92042  22825323.769    22825321.057
 04  1  8  0 52 30.0000000  0  8G29G17G24G30G21G10G 6G 5
  24444535.761    -5196208.52843  -4041219.21542  24444537.482    24444535.347
  21406387.328   -20341333.44243 -15842224.84042  21406387.801    21406384.813
  24135183.942    -6287931.74743  -4888692.75542  24135184.513    24135182.265
  20676536.748   -24837999.62344 -19343377.61142  20676538.573    20676534.457
  22417427.203   -18702354.26743 -14540437.65142  22417428.342    22417424.101
  21380366.619   -18521519.67143 -14391532.98442  21380367.328    21380364.165
  20880280.450   -25931628.71244 -20202031.06142  20880281.900    20880278.161
  22844643.954   -15264721.52043 -11861540.47742  22844644.839    22844642.122
 04  1  8  0 53  0.0000000  0  8G29G17G24G30G21G10G 6G 5
  24431416.121    -5265153.10443  -4094942.20642  24431417.701    24431415.700
  21415897.688   -20291356.10543 -15803281.46042  21415898.159    21415895.177
  24150956.868    -6205044.27443  -4824105.11242  24150957.493    24150955.232
  20686629.156   -24784963.73844 -19302050.95842  20686630.984    20686626.851
  22405139.013   -18766928.69043 -14590755.34642  22405140.169    22405136.007
  21389610.901   -18472940.71243 -14353679.24942  21389611.612    21389608.446
  20872211.760   -25974029.93044 -20235070.96242  20872213.198    20872209.473
  22864000.932   -15162999.82543 -11782276.84442  22864001.834    22863999.161
 04  1  8  0 53 30.0000000  0  8G29G17G24G30G21G10G 6G 5
  24418321.770    -5333963.87843  -4148560.89242  24418323.478    24418321.577
  21425444.523   -20241187.07943 -15764188.71442  21425445.007    21425442.026
  24166724.916    -6122182.73543  -4759537.66942  24166725.573    24166723.312
  20696819.971   -24731410.77644 -19260321.39642  20696821.780    20696817.633
  22392893.695   -18831278.29043 -14640897.87742  22392894.829    22392890.618
  21398961.070   -18423805.28043 -14315391.90342  21398961.761    21398958.612
  20864187.330   -26016198.50244 -20267929.58142  20864188.783    20864185.058
  22883393.948   -15061089.02743 -11702865.84842  22883394.831    22883392.150
 04  1  8  0 54  0.0000000  0  8G29G17G24G30G21G10G 6G 5
  24405253.080    -5402639.67643  -4202074.42842  24405254.948    24405252.983
  21435027.315   -20190829.19243 -15724948.80142  21435027.798    21435024.797
  24182487.512    -6039349.64843  -4694992.40142  24182488.161    24182485.931
  20707108.449   -24677344.32644 -19218191.70442  20707110.270    20707106.132
  22380690.779   -18895404.63243 -14690866.42842  22380691.957    22380687.757
  21408416.433   -18374116.98343 -14276673.74142  21408417.154    21408414.001
  20856207.131   -26058134.70044 -20300607.12642  20856208.569    20856204.837
  22902822.150   -14958993.15743 -11623310.65742  22902823.018    22902820.405
 04  1  8  0 54 30.0000000  0  9G29G17G24G30G21G10G 6G18G 5
  24392208.479    -5471189.32243  -4255489.61142  24392210.269    24392208.430
  21444643.530   -20140295.77643 -15685572.11942  21444643.989    21444640.988
  24198242.252    -5956558.12343  -4630479.51642  24198242.872    24198240.551
  20717491.993   -24622778.28844 -19175672.72442  20717493.827    20717489.720
  22368528.212   -18959319.40543 -14740670.12042  22368529.380    22368525.159
  21417974.356   -18323889.80643 -14237535.68342  21417975.070    21417971.919
  20848269.167   -26099849.04944 -20333111.80842  20848270.593    20848266.859
  24771778.659    -2119687.73253  -1644060.23752  24771780.268    24771777.489
  22922282.749   -14856727.24343 -11543622.95942  22922283.614    22922281.014
 04  1  8  0 55  0.0000000  0  9G29G17G24G30G21G10G 6G18G 5
  24379193.245    -5539584.54043  -4308784.43542  24379195.027    24379193.062
  21454297.742   -20089562.56543 -15646039.75042  21454298.208    21454295.188
  24213993.764    -5873783.59943  -4565979.88542  24213994.224    24213992.013
  20727975.157   -24567688.99244 -19132746.00942  20727976.971    20727972.881
  22356410.682   -19022997.16943 -14790289.12742  22356411.841    22356407.626
  21427639.195   -18273100.71143 -14197959.76042  21427639.917    21427636.777
  20840378.496   -26141314.65144 -20365422.65742  20840379.948    20840376.214
  24750643.043    -2230755.52343  -1730606.36242  24750644.650    24750642.108
  22941779.991   -14754268.50243 -11463785.00342  22941780.866    22941778.317
 04  1  8  0 55 30.0000000  0  9G29G17G24G30G21G10G 6G18G 5
  24366205.276    -5607835.90943  -4361967.21642  24366207.303    24366205.025
  21463987.138   -20038644.39143 -15606363.25342  21463987.606    21463984.594
  24229739.225    -5791040.41743  -4501504.66642  24229739.753    24229737.510
  20738554.937   -24512091.89244 -19089423.60042  20738556.757    20738552.644
  22344335.761   -19086451.39443 -14839733.94742  22344336.903    22344332.695
  21437408.024   -18221765.32543 -14157958.16142  21437408.729    21437405.572
  20832532.910   -26182543.40644 -20397548.95042  20832534.381    20832530.645
  24729511.847    -2341800.23143  -1817134.58542  24729513.510    24729510.671
  22961310.900   -14651632.74243 -11383809.11442  22961311.797    22961309.272
 04  1  8  0 56  0.0000000  0  9G29G17G24G30G21G10G 6G18G 5
  24353244.971    -5675942.01943  -4415036.74942  24353247.029    24353244.771
  21473711.126   -19987544.46843 -15566545.13642  21473711.615    21473708.595
  24245478.247    -5708331.12443  -4437055.86042  24245478.729    24245476.492
  20749230.641   -24455990.73744 -19045708.42642  20749232.464    20749228.332
  22332303.012   -19149683.77943 -14889005.90142  22332304.133    22332299.876
  21447280.089   -18169887.26643 -14117533.69742  21447280.780    21447277.644
  20824732.359   -26223535.60544 -20429490.91642  20824733.804    20824730.080
  24708385.266    -2452821.49643  -1903644.70642  24708386.843    24708383.882
  22980874.784   -14548824.32043 -11303698.68242  22980875.633    22980873.091
 04  1  8  0 56 30.0000000  0  9G29G17G24G30G21G10G 6G18G 5
  24340313.255    -5743897.81343  -4467989.14342  24340315.363    24340313.149
  21483469.995   -19936261.39243 -15526584.29742  21483470.456    21483467.447
  24261211.129    -5625653.78743  -4372631.95242  24261211.589    24261209.397
  20760002.308   -24399385.21744 -19001600.23942  20760004.151    20760000.029
  22320312.951   -19212691.78843 -14938103.01042  22320314.075    22320309.834
  21457255.443   -18117466.34043 -14076686.22242  21457256.157    21457253.024
  20816977.538   -26264287.52744 -20461245.64842  20816978.966    20816975.250
  24687263.461    -2563815.09843  -1990132.92542  24687265.044    24687262.836
  23000471.295   -14445843.74043 -11223454.09542  23000472.198    23000469.664
 04  1  8  0 57  0.0000000  0  9G29G17G24G30G21G10G 6G18G 5
  24327411.177    -5811698.00643  -4520820.27942  24327413.255    24327410.983
  21493263.718   -19884795.05343 -15486480.65542  21493264.187    21493261.152
  24276938.272    -5543007.14843  -4308231.95642  24276938.695    24276936.621
  20770870.015   -24342275.01644 -18957098.79342  20770871.833    20770867.738
  22308365.911   -19275473.82043 -14987024.04542  22308367.012    22308362.775
  21467334.117   -18064502.55543 -14035415.73742  21467334.839    21467331.683
  20809269.077   -26304795.50244 -20492810.29442  20809270.525    20809266.816
  24666148.176    -2674776.61043  -2076596.40042  24666149.739    24666147.280
  23020100.473   -14342691.61643 -11143075.84942  23020101.387    23020098.904
 04  1  8  0 57 30.0000000  0  9G29G17G24G30G21G10G 6G18G 5
  24314538.952    -5879341.47643  -4573529.32742  24314541.034    24314538.692
  21503091.794   -19833148.05743 -15446236.24042  21503092.277    21503089.252
  24292658.928    -5460394.18743  -4243858.21142  24292659.369    24292657.280
  20781832.987   -24284664.11544 -18912207.18942  20781834.818    20781830.742
  22296461.567   -19338031.30343 -15035770.09642  22296462.660    22296458.443
  21477515.330   -18010999.94243 -13993725.38842  21477516.024    21477512.878
  20801607.032   -26345059.82744 -20524185.08642  20801608.479    20801604.773
  24645038.883    -2785705.35143  -2163034.23442  24645040.548    24645038.215
  23039761.501   -14239372.43643 -11062567.41042  23039762.438    23039759.880
 04  1  8  0 58  0.0000000  0  9G29G17G24G30G21G10G 6G18G 5
  24301696.490    -5946828.00543  -4626116.06942  24301698.725    24301696.319
  21512953.528   -19781324.18143 -15405854.00042  21512954.007    21512951.013
  24308372.637    -5377817.76743  -4179512.93842  24308373.111    24308371.063
  20792890.372   -24226557.06143 -18866928.97442  20792892.207    20792888.140
  22284599.594   -19400366.47043 -15084342.91942  22284600.697    22284596.434
  21487798.164   -17956963.24943 -13951618.86742  21487798.873    21487795.726
  20793991.174   -26385081.44544 -20555370.75342  20793992.614    20793988.902
  24623936.118    -2896601.05743  -2249446.31842  24623937.773    24623935.534
  23059453.239   -14135891.50243 -10981932.95842  23059454.160    23059451.720
 04  1  8  0 58 30.0000000  0  9G29G17G24G30G21G10G 6G18G 5
  24288884.927    -6014152.73843  -4678576.73542  24288887.118    24288884.782
  21522848.989   -19729323.28143 -15365333.82042  21522849.451    21522846.433
  24324079.489    -5295277.22143  -4115195.61642  24324080.022    24324078.030
  20804042.106   -24167954.32444 -18821264.50942  20804043.942    20804039.876
  22272780.107   -19462477.86643 -15132741.37942  22272781.244    22272776.944
  21498182.490   -17902393.23043 -13909096.77542  21498183.202    21498180.067
  20786422.087   -26424857.28344 -20586364.90542  20786423.516    20786419.816
  24602840.233    -3007460.33043  -2335830.05242  24602841.927    24602839.606
  23079175.661   -14032249.76043 -10901173.15742  23079176.575    23079174.057
 04  1  8  0 59  0.0000000  0  9G29G17G24G30G21G10G 6G18G 5
  24276104.411    -6081314.53543  -4730910.48842  24276106.509    24276104.024
  21532777.577   -19677148.19043 -15324677.90542  21532778.047    21532775.022
  24339779.057    -5212775.10143  -4050908.24742  24339779.599    24339777.614
  20815287.492   -24108859.51344 -18775216.61642  20815289.326    20815285.261
  22261003.087   -19524366.66243 -15180966.37242  22261004.211    22260999.918
  21508667.627   -17847293.41443 -13866161.85342  21508668.335    21508665.201
  20778899.714   -26464387.65444 -20617167.78442  20778901.145    20778897.426
  24581751.438    -3118281.92443  -2422184.45442  24581753.055    24581750.642
  23098927.887   -13928451.32743 -10820291.30242  23098928.797    23098926.329
 04  1  8  0 59 30.0000000  0  9G29G17G24G30G21G10G 6G18G 5
  24263356.407    -6148305.14743  -4783110.85642  24263358.538    24263356.034
  21542739.994   -19624795.26343 -15283883.41642  21542740.466    21542737.440
  24355472.273    -5130306.87043  -3986647.28142  24355472.853    24355470.839
  20826627.067   -24049269.69643 -18728782.99942  20826628.895    20826624.802
  22249269.135   -19586028.57743 -15229014.57742  22249270.271    22249265.957
  21519254.042   -17791661.15943 -13822812.03842  21519254.783    21519251.679
  20771425.331   -26503665.83544 -20647774.14742  20771426.738    20771423.034
  24560671.250    -3229058.70543  -2508503.88442  24560672.864    24560670.471
  23118710.260   -13824493.94843 -10739285.57242  23118711.226    23118708.725
 04  1  8  1  0  0.0000000  0  9G29G17G24G30G21G10G 6G18G 5
  24250641.067    -6215124.30643  -4835177.63842  24250643.143    24250640.653
  21552735.575   -19572268.16943 -15242953.21042  21552736.045    21552733.007
  24371158.361    -5047875.65643  -3922415.14942  24371159.006    24371156.941
  20838059.986   -23989189.35943 -18681967.16042  20838061.812    20838057.736
  22237577.988   -19647466.01543 -15276887.85542  22237579.122    22237574.816
  21529940.966   -17735501.08043 -13779050.93542  21529941.665    21529938.582
  20763998.735   -26542692.85644 -20678184.79942  20764000.156    20763996.439
  24539599.373    -3339791.26843  -2594788.92242  24539601.018    24539598.460
  23138522.051   -13720382.79743 -10658160.02742  23138523.008    23138520.503
 04  1  8  1  0 30.0000000  0  9G29G17G24G30G21G10G 6G18G 5
  24237958.712    -6281770.09243  -4887109.32842  24237960.834    24237957.955
  21562763.887   -19519569.08643 -15201888.98642  21562764.351    21562761.329
  24386836.926    -4965483.54443  -3858213.47942  24386837.682    24386835.667
  20849585.590   -23928621.93143 -18634771.77142  20849587.428    20849583.337
  22225929.384   -19708679.74443 -15324586.82442  22225930.488    22225926.138
  21540727.697   -17678816.45143 -13734881.08742  21540728.374    21540725.304
  20756619.965   -26581468.50244 -20708399.58442  20756621.407    20756617.671
  24518536.141    -3450478.46543  -2681038.57642  24518537.797    24518535.400
  23158362.266   -13616121.36943 -10576917.39342  23158363.250    23158360.691
 04  1  8  1  1  0.0000000  0  9G29G17G24G30G21G10G 6G18G 5
  24225309.824    -6348240.27143  -4938904.20042  24225311.810    24225309.055
  21572824.509   -19466700.28243 -15160692.51542  21572824.967    21572821.924
  24402507.883    -4883131.94843  -3794043.40042  24402508.724    24402506.583
  20861203.375   -23867570.12343 -18587198.93942  20861205.198    20861201.130
  22214323.176   -19769670.51943 -15372112.05442  22214324.293    22214319.974
  21551613.555   -17621610.68943 -13690305.15642  21551614.266    21551611.215
  20749289.217   -26619991.78444 -20738417.71542  20749290.650    20749286.923
  24497482.038    -3561118.26643  -2767251.28842  24497483.682    24497481.284
  23178230.533   -13511713.21843 -10495560.41042  23178231.494    23178228.991
 04  1  8  1  1 30.0000000  0  9G29G17G24G30G21G10G 6G18G 5
  24212695.252    -6414529.53743  -4990558.02942  24212697.271    24212694.703
  21582917.596   -19413660.70243 -15119362.96942  21582918.053    21582915.028
  24418171.485    -4800819.47243  -3729903.78442  24418172.301    24418170.063
  20872913.357   -23806033.94043 -18539248.67642  20872915.164    20872911.080
  22202759.883   -19830436.09843 -15419461.81842  22202760.975    22202756.604
  21562598.615   -17563883.86243 -13645323.21342  21562599.324    21562596.251
  20742007.134   -26658259.12244 -20768236.40842  20742008.603    20742004.888
  24476437.946    -3671706.14743  -2853423.62042  24476439.472    24476437.016
  23198126.543   -13407159.03543 -10414089.63342  23198127.532    23198124.954
 04  1  8  1  2  0.0000000  0  9G29G17G24G30G21G10G 6G18G 5
  24200115.341    -6480636.45243  -5042069.77342  24200117.428    24200114.918
  21593042.685   -19360453.03543 -15077902.44942  21593043.122    21593040.088
  24433827.076    -4718548.24143  -3665796.30542  24433827.943    24433825.734
  20884714.814   -23744016.94844 -18490923.76442  20884716.631    20884712.553
  22191239.055   -19890978.04343 -15466637.32842  22191240.158    22191235.803
  21573682.115   -17505639.67243 -13599938.12742  21573682.848    21573679.735
  20734773.816   -26696270.53944 -20797855.68642  20734775.279    20734771.550
  24455403.517    -3782241.73643  -2939555.10442  24455405.057    24455402.869
  23218049.562   -13302462.80543 -10332508.19442  23218050.501    23218048.020
 04  1  8  1  2 30.0000000  0  9G29G17G24G30G21G10G 6G18G 5
  24187571.171    -6546555.76443  -5093435.34542  24187573.449    24187570.587
  21603200.025   -19307075.93943 -15036309.90342  21603200.453    21603197.436
  24449475.189    -4636316.38043  -3601719.51542  24449476.180    24449473.819
  20896607.795   -23681518.87643 -18442223.97842  20896609.617    20896605.573
  22179761.368   -19951293.77143 -15513636.55642  22179762.432    22179758.091
  21584864.086   -17446878.01543 -13554149.82142  21584864.788    21584861.688
  20727589.959   -26734021.91044 -20827272.32942  20727591.434    20727587.695
  24434380.014    -3892720.15843  -3025642.10742  24434381.533    24434379.428
  23237999.740   -13197624.49343 -10250816.00342  23238000.661    23237998.063
 04  1  8  1  3  0.0000000  0  9G29G17G24G30G21G10G 6G18G 5
  24175063.002    -6612286.20743  -5144653.77742  24175065.243    24175062.378
  21613389.021   -19253532.43343 -14994587.68942  21613389.435    21613386.417
  24465115.370    -4554126.36843  -3537675.32442  24465116.398    24465114.052
  20908591.563   -23618543.85543 -18393152.54242  20908593.392    20908589.342
  22168326.245   -20011385.51843 -15560461.26742  22168327.291    22168322.951
  21596143.770   -17387602.85143 -13507961.37142  21596144.466    21596141.365
  20720455.536   -26771513.61344 -20856486.63142  20720457.004    20720453.252
  24413367.611    -4003140.65843  -3111683.94642  24413369.168    24413366.871
  23257975.883   -13092648.90343 -10169016.89142  23257976.720    23257974.273
 04  1  8  1  3 30.0000000  0  9G29G17G24G30G21G10G 6G18G 5
  24162591.291    -6677826.13343  -5195723.76042  24162593.274    24162590.324
  21623609.140   -19199825.23743 -14952737.92342  21623609.584    21623606.560
  24480747.111    -4471980.32843  -3473665.39242  24480748.255    24480745.929
  20920665.451   -23555095.24243 -18343712.07742  20920667.263    20920663.236
  22156933.592   -20071254.33743 -15607112.26242  22156934.638    22156930.283
  21607520.462   -17327817.77643 -13461375.59142  21607521.191    21607518.084
  20713370.559   -26808745.39244 -20885498.40042  20713372.021    20713368.273
  24392366.484    -4113502.15143  -3197679.83842  24392367.999    24392365.674
  23277977.570   -12987539.86843 -10087113.75242  23277978.457    23277975.911
 04  1  8  1  4  0.0000000  0  9G29G17G24G30G21G10G 6G18G 5
  24150156.940    -6743169.04043  -5246640.22042  24150158.787    24150155.891
  21633860.813   -19145952.18843 -14910758.92342  21633861.287    21633858.268
  24496371.103    -4389875.32343  -3409687.44242  24496372.232    24496369.977
  20932829.663   -23491171.92043 -18293901.70242  20932831.499    20932827.432
  22145583.993   -20130896.79943 -15653586.87842  22145585.006    22145580.614
  21618994.350   -17267521.95143 -13414391.82542  21618995.103    21618991.988
  20706335.956   -26845712.36244 -20914303.81742  20706337.429    20706333.681
  24371377.648    -4223798.70843  -3283625.10142  24371379.241    24371376.876
  23298004.708   -12882296.40643 -10005105.88042  23298005.604    23298002.988
 04  1  8  1  4 30.0000000  0  9G29G17G24G30G21G10G 6G18G 5
  24137759.933    -6808315.56443  -5297403.68642  24137761.710    24137758.743
  21644143.214   -19091917.85343 -14868654.24042  21644143.671    21644140.667
  24511986.426    -4307815.82543  -3345744.94442  24511987.654    24511985.403
  20945083.143   -23426779.48043 -18243725.78042  20945084.978    20945080.926
  22134276.793   -20190316.15943 -15699887.64042  22134277.842    22134273.494
  21630564.376   -17206720.98543 -13367014.44042  21630565.122    21630562.046
  20699351.393   -26882416.41144 -20942904.36642  20699352.853    20699349.122
  24350401.022    -4334031.33243  -3369520.52542  24350402.553    24350400.255
  23318056.205   -12776925.17243  -9922998.46742  23318057.085    23318054.577
 04  1  8  1  5  0.0000000  0  9G29G17G24G30G21G10G 6G18G 5
  24125401.362    -6873260.15243  -5348009.79242  24125403.074    24125400.200
  21654456.602   -19037720.68443 -14826422.68042  21654457.064    21654454.034
  24527593.605    -4225799.47043  -3281836.05742  24527594.816    24527592.487
  20957425.925   -23361917.72743 -18193184.16342  20957427.774    20957423.717
  22123012.517   -20249510.29543 -15746012.92142  22123013.556    22123009.160
  21642230.537   -17145414.86643 -13319243.43442  21642231.280    21642228.192
  20692417.683   -26918853.33144 -20971296.76342  20692419.124    20692415.402
  24329437.186    -4444195.86743  -3455362.90342  24329438.827    24329436.528
  23338132.098   -12671425.86843  -9840791.21642  23338132.957    23338130.380
 04  1  8  1  5 30.0000000  0  9G29G17G24G30G21G10G 6G18G 5
  24113081.109    -6938002.51043  -5398458.33842  24113082.848    24113080.270
  21664800.136   -18983364.91143 -14784067.53342  21664800.623    21664797.596
  24543191.871    -4143829.92943  -3217963.67142  24543193.130    24543190.850
  20969857.070   -23296591.62343 -18142280.71842  20969858.920    20969854.885
  22111790.559   -20308481.60243 -15791964.55542  22111791.649    22111787.298
  21653991.791   -17083608.94343 -13271082.97142  21653992.558    21653989.469
  20685534.522   -26955024.49344 -20999482.06942  20685535.980    20685532.246
  24308486.597    -4554291.79643  -3541151.82842  24308488.058    24308485.984
  23358231.264   -12565803.92143  -9758488.46042  23358232.101    23358229.679
 04  1  8  1  6  0.0000000  0  9G29G17G24G30G21G10G 6G18G 5
  24100800.829    -7002535.65143  -5448743.82242  24100802.489    24100799.870
  21675174.483   -18928847.35443 -14741586.31542  21675174.976    21675171.949
  24558781.896    -4061903.60143  -3154124.95342  24558783.096    24558780.796
  20982376.957   -23230799.27143 -18091013.96242  20982378.799    20982374.743
  22100611.836   -20367226.06443 -15837739.44342  22100612.929    22100608.515
  21665848.600   -17021301.19943 -13222531.47942  21665849.334    21665846.221
  20678703.052   -26990924.09244 -21027455.77342  20678704.493    20678700.755
  24287550.048    -4664312.96243  -3626882.48042  24287551.653    24287549.373
  23378354.240   -12460057.67443  -9676088.77442  23378355.102    23378352.497
 04  1  8  1  6 30.0000000  0 10G29G17G26G24G30G21G10G 6G18G 5
  24088559.148    -7066865.82643  -5498871.17642  24088560.846    24088558.101
  21685577.591   -18874178.67743 -14698987.34342  21685578.073    21685575.043
  24280960.490    -6420153.52453  -4971587.86852  24280962.247    24280960.518
  24574361.800    -3980030.57443  -3090327.77142  24574363.041    24574360.703
  20994983.359   -23164552.38243 -18039393.02542  20994985.174    20994981.126
  22089474.513   -20425753.20943 -15883344.98842  22089475.580    22089471.173
  21677798.580   -16958503.72543 -13173598.37542  21677799.278    21677796.160
  20671921.768   -27026559.95244 -21055223.97042  20671923.203    20671919.462
  24266626.485    -4774266.61743  -3712560.52942  24266628.106    24266625.772
  23398498.299   -12354199.40643  -9593601.87342  23398499.184    23398496.747
 04  1  8  1  7  0.0000000  0 10G29G17G26G24G30G21G10G 6G18G 5
  24076359.367    -7130975.37543  -5548826.59642  24076361.144    24076358.384
  21696012.031   -18819345.22743 -14656259.97442  21696012.505    21696009.495
  24264005.467    -6509252.83943  -5041015.83542  24264007.063    24264005.418
  24589934.321    -3898196.53143  -3026560.94042  24589935.553    24589933.143
  21007678.616   -23097838.37443 -17987408.10342  21007680.416    21007676.392
  22078381.339   -20484048.13143 -15928769.58042  22078382.396    22078377.932
  21689844.109   -16895203.94643 -13124273.86442  21689844.807    21689841.693
  20665193.769   -27061915.77544 -21082773.95542  20665195.223    20665191.468
  24245719.167    -4884135.56743  -3798172.63242  24245720.678    24245718.192
  23418666.190   -12248216.95143  -9511018.12542  23418667.071    23418664.562
 04  1  8  1  7 30.0000000  0 10G29G17G26G24G30G21G10G 6G18G 5
  24064200.778    -5619450.62553  -4371015.01352  24064202.633    24064198.963
  21706475.862   -18764357.50243 -14613412.39242  21706476.324    21706473.301
  24247059.353    -6598304.99743  -5110407.05742  24247061.146    24247059.227
  24605497.482    -3816411.38543  -2962832.23542  24605498.772    24605496.204
  21020460.542   -23030668.90643 -17935068.27142  21020462.357    21020458.324
  22067330.637   -20542120.03843 -15974020.39342  22067331.689    22067327.174
  21701983.035   -16831413.45143 -13074566.97942  21701983.728    21701980.619
  20658517.622   -27096999.22744 -21110111.70042  20658519.051    20658515.306
  24224826.430    -4993926.82943  -3883724.14942  24224827.923    24224825.582
  23438855.283   -12142121.85443  -9428346.66242  23438856.171    23438853.802
 04  1  8  1  8  0.0000000  0 10G29G17G26G24G30G21G10G 6G18G 5
  24052082.572    -5683130.74343  -4420635.79242  24052084.091    24052081.061
  21716968.467   -18709218.63243 -14570447.03742  21716968.911    21716965.872
  24230122.465    -6687308.49143  -5179760.36242  24230124.364    24230122.376
  24621050.842    -3734677.78243  -2899143.68342  24621052.125    24621049.527
  21033328.289   -22963048.39543 -17882376.97842  21033330.103    21033326.084
  22056321.861   -20599971.22343 -16019099.20442  22056322.941    22056318.409
  21714214.450   -16767136.90243 -13024481.34942  21714215.150    21714212.045
  20651893.209   -27131810.71844 -21137237.52642  20651894.645    20651890.878
  24203948.489    -5103640.15943  -3969214.93042  24203949.994    24203947.641
  23459065.095   -12035919.20143  -9345591.36342  23459066.015    23459063.653
 04  1  8  1  8 30.0000000  0 10G29G17G26G24G30G21G10G 6G18G 5
  24040007.647    -5746585.14843  -4470080.69142  24040009.415    24040006.231
  21727491.017   -18653922.23443 -14527358.92842  21727491.473    21727488.421
  24213196.847    -6776252.51943  -5249067.32342  24213198.931    24213196.736
  24636595.751    -3652988.44943  -2835489.63842  24636597.086    24636594.600
  21046282.888   -22894971.48543 -17829330.04842  21046284.695    21046280.717
  22045356.600   -20657594.10543 -16064000.12542  22045357.666    22045353.126
  21726539.355   -16702369.18443 -12974012.99242  21726540.049    21726536.918
  20645322.256   -27166341.29644 -21164144.45842  20645323.690    20645319.924
  24183087.560    -5213265.24243  -4054636.98842  24183088.999    24183086.607
  23479296.185   -11929603.93543  -9262748.30642  23479297.129    23479294.751
 04  1  8  1  9  0.0000000  0 10G29G17G26G24G30G21G10G 6G18G 5
  24027975.291    -5809815.06743  -4519350.64642  24027977.043    24027974.040
  21738042.535   -18598473.69643 -14484152.28042  21738042.985    21738039.931
  24196282.524    -6865137.87443  -5318328.57842  24196284.667    24196282.362
  24652131.377    -3571348.51843  -2771874.06842  24652132.598    24652130.219
  21059323.070   -22826444.93443 -17775932.75242  21059324.886    21059320.858
  22034433.898   -20714993.34643 -16108726.78342  22034434.942    22034430.353
  21738956.388   -16637117.28243 -12923167.35342  21738957.074    21738953.941
  20638804.227   -27200593.73444 -21190834.66642  20638805.677    20638801.892
  24162242.966    -5322804.25143  -4139991.95442  24162244.403    24162241.988
  23499547.501   -11823182.95043  -9179822.90442  23499548.453    23499546.087
 04  1  8  1  9 30.0000000  0 10G29G17G26G24G30G21G10G 6G18G 5
  24015985.632    -5872820.40643  -4568445.63542  24015987.462    24015984.573
  21748622.316   -18542876.55243 -14440829.82442  21748622.742    21748619.698
  24179379.525    -6953963.82743  -5387543.55342  24179381.534    24179379.218
  24667657.010    -3489761.12243  -2708299.46142  24667658.193    24667655.741
  21072447.849   -22757473.68043 -17722188.93442  21072449.679    21072445.672
  22023553.236   -20772171.26343 -16153280.96942  22023554.317    22023549.768
  21751464.586   -16571386.16843 -12871948.29442  21751465.306    21751462.150
  20632338.938   -27234568.98444 -21217308.87942  20632340.390    20632336.604
  24141414.659    -5432257.49643  -4225280.10242  24141416.123    24141413.533
  23519817.864   -11716661.51243  -9096819.19342  23519818.841    23519816.371
 04  1  8  1 10  0.0000000  0 10G29G17G26G24G30G21G10G 6G18G 5
  24004040.681    -5935590.65243  -4617357.42342  24004042.462    24004039.695
  21759231.454   -18487125.03743 -14397387.08042  21759231.897    21759228.854
  24162489.877    -7042719.87143  -5456704.06542  24162491.832    24162489.386
  24683173.809    -3408219.67443  -2644760.63042  24683175.039    24683172.409
  21085658.187   -22688052.84643 -17668094.78542  21085660.006    21085655.989
  22012716.126   -20829120.46743 -16197656.94242  22012717.201    22012712.663
  21764064.951   -16505170.81943 -12820351.91542  21764065.668    21764062.506
  20625928.086   -27268258.16444 -21243560.18142  20625929.537    20625925.758
  24120604.559    -5541615.18143  -4310493.80142  24120606.032    24120603.498
  23540108.265   -11610034.99443  -9013733.61942  23540109.224    23540106.798
 04  1  8  1 10 30.0000000  0 10G29G17G26G24G30G21G10G 6G18G 5
  23992139.734    -5998130.21943  -4666089.47642  23992141.609    23992138.802
  21769868.457   -18431227.02943 -14353830.18242  21769868.927    21769865.898
  24145612.765    -7131409.55743  -5525812.85742  24145614.696    24145612.352
  24698680.508    -3326731.69343  -2581263.47542  24698681.647    24698678.998
  21098952.260   -22618192.01043 -17613657.78142  21098954.108    21098950.090
  22001921.173   -20885848.26043 -16241860.38542  22001922.246    22001917.697
  21776755.588   -16438481.06143 -12768385.86942  21776756.294    21776753.132
  20619570.604   -27301666.92044 -21269592.96742  20619572.064    20619568.279
  24099811.621    -5650882.34543  -4395636.96242  24099813.117    24099810.492
  23560416.875   -11503313.07943  -8930573.71142  23560417.807    23560415.283
 04  1  8  1 11  0.0000000  0 10G29G17G26G24G30G21G10G 6G18G 5
  23980284.032    -6060431.85843  -4714636.12542  23980285.953    23980283.192
  21780533.923   -18375179.51843 -14310156.78642  21780534.415    21780531.377
  24128749.729    -7220025.04643  -5594863.78642  24128751.627    24128749.395
  24714177.712    -3245293.35043  -2517804.98842  24714179.035    24714176.123
  21112330.470   -22547889.06943 -17558876.27842  21112332.319    21112328.275
  21991169.130   -20942350.52843 -16285888.08842  21991170.208    21991165.658
  21789536.794   -16371315.24543 -12716048.86342  21789537.524    21789534.353
  20613267.632   -27334789.31944 -21295402.62342  20613269.077    20613265.294
  24079037.008    -5760052.30643  -4480704.32342  24079038.583    24079036.164
  23580743.823   -11396494.11143  -8847338.14942  23580744.734    23580742.288
 04  1  8  1 11 30.0000000  0 10G29G17G26G24G30G21G10G 6G18G 5
  23968473.367    -6122497.06143  -4762998.53742  23968475.395    23968472.432
  21791226.745   -18318988.32343 -14266371.42442  21791227.243    21791224.195
  24111900.568    -7308567.60543  -5663857.89042  24111902.454    24111900.172
  24729664.499    -3163909.84443  -2454389.22642  24729665.885    24729662.818
  21125791.450   -22477151.18143 -17503755.86142  21125793.284    21125789.265
  21980459.222   -20998631.35743 -16329743.24342  21980460.300    21980455.734
  21802407.310   -16303680.30343 -12663346.30542  21802408.048    21802404.858
  20607018.539   -27367628.40444 -21320991.51242  20607020.004    20607016.194
  24058280.812    -5869126.55843  -4565697.18342  24058282.359    24058279.859
  23601087.917   -11289585.46443  -8764032.74742  23601088.833    23601086.375
 04  1  8  1 12  0.0000000  0 10G29G17G26G24G30G21G10G 6G18G 5
  23956708.971    -6184319.18443  -4811171.51342  23956710.917    23956707.960
  21801947.505   -18262650.30543 -14222471.66242  21801948.014    21801944.970
  24095066.658    -7397030.03143  -5732789.57842  24095068.477    24095066.194
  24745141.607    -3082577.59443  -2391013.40342  24745142.832    24745139.889
  21139335.500   -22405976.81543 -17448295.32842  21139337.353    21139333.318
  21969792.080   -21054687.40843 -16373423.25042  21969793.168    21969788.601
  21815367.314   -16235575.00843 -12610277.23242  21815368.052    21815364.871
  20600824.422   -27400178.73144 -21346355.39242  20600825.867    20600822.056
  24037543.972    -5978099.53743  -4650611.13542  24037545.486    24037542.803
  23621449.281   -11182585.32243  -8680656.03842  23621450.215    23621447.771
 04  1  8  1 12 30.0000000  0 10G29G17G26G24G30G21G10G 6G18G 5
  23944991.675    -6245893.90643  -4859151.75542  23944993.578    23944990.511
  21812696.182   -18206165.61943 -14178457.61442  21812696.674    21812693.607
  24078248.830    -7485407.54643  -5801655.08342  24078250.738    24078248.383
  24760609.005    -3001295.77743  -2327676.88642  24760610.124    24760607.271
  21152962.343   -22334367.33043 -17392495.74642  21152964.184    21152960.140
  21959167.848   -21110517.80443 -16416927.42042  21959168.967    21959164.410
  21828416.575   -16167000.75543 -12556842.74442  21828417.327    21828414.106
  20594685.767   -27432437.54644 -21371492.12042  20594687.200    20594683.404
  24016826.950    -6086967.54643  -4735443.21642  24016828.566    24016825.904
  23641827.971   -11075495.22043  -8597209.20842  23641828.898    23641826.443
 04  1  8  1 13  0.0000000  0 10G29G17G26G24G30G21G10G 6G18G 5
  23933321.241    -6307222.31943  -4906940.05742  23933323.108    23933319.986
  21823471.904   -18149538.86043 -14134332.85742  21823472.375    21823469.302
  24061447.244    -7573700.52843  -5870454.73442  24061449.008    24061446.670
  24776066.036    -2920068.82643  -2264383.12642  24776067.076    24776064.187
  21166670.863   -22262328.74743 -17336361.80042  21166672.697    21166668.647
  21948585.964   -21166125.83243 -16460258.30842  21948587.098    21948582.504
  21841553.844   -16097963.92343 -12503047.80042  21841554.600    21841551.389
  20588602.166   -27464406.93944 -21396403.32242  20588603.614    20588599.817
  23996129.747    -6195731.68743  -4820194.43842  23996131.365    23996128.535
  23662222.279   -10968322.08543  -8513697.72342  23662223.214    23662220.840
 04  1  8  1 13 30.0000000  0 10G29G17G26G24G30G21G10G 6G18G 5
  23921698.259    -6368301.05443  -4954533.80042  23921700.158    23921697.050
  21834274.396   -18092771.34943 -14090098.42442  21834274.870    21834271.785
  24044662.325    -7661905.28443  -5939185.59242  24044664.164    24044661.846
  24791512.416    -2838897.40643  -2201132.62642  24791513.401    24791510.694
  21180460.554   -22189863.54843 -17279895.42442  21180462.382    21180458.360
  21938046.399   -21221511.49343 -16503415.92742  21938047.505    21938042.949
  21854778.735   -16028466.83243 -12448894.21842  21854779.470    21854776.230
  20582573.966   -27496085.34944 -21421087.78342  20582575.418    20582571.598
  23975452.847    -6304389.70443  -4904862.94542  23975454.409    23975451.525
  23682632.173   -10861067.72443  -8430122.89142  23682633.070    23682630.672
 04  1  8  1 14  0.0000000  0 10G29G17G26G24G30G21G10G 6G18G 5
  23910124.104    -6429123.17043  -5001927.56342  23910126.019    23910122.913
  21845104.341   -18035859.48843 -14045751.50942  21845104.813    21845101.756
  24027895.709    -7750014.21643  -6007841.79542  24027897.553    24027895.138
  24806949.061    -2757777.21543  -2137922.03042  24806949.954    24806947.363
  21194331.804   -22116969.83743 -17223095.14242  21194333.616    21194329.584
  21927549.880   -21276670.85943 -16546397.21042  21927550.996    21927546.437
  21868091.488   -15958507.71143 -12394380.61242  21868092.238    21868089.000
  20576602.288   -27527466.80544 -21445540.85642  20576603.716    20576599.902
  23954797.245    -6412935.20043  -4989443.77642  23954798.750    23954795.957
  23703057.727   -10753730.93243  -8346483.89142  23703058.540    23703056.271
 04  1  8  1 14 30.0000000  0 10G29G17G26G24G30G21G10G 6G18G 5
  23898598.980    -6489688.10843  -5049120.95742  23898600.838    23898597.715
  21855960.999   -17978807.13943 -14001295.11942  21855961.514    21855958.437
  24011147.526    -7838026.22043  -6076422.47142  24011149.311    24011146.971
  24822375.332    -2676711.49943  -2074753.91442  24822376.112    24822373.552
  21208283.642   -22043652.62543 -17165964.86342  21208285.435    21208281.397
  21917095.955   -21331606.52243 -16589204.18642  21917097.036    21917092.517
  21881491.206   -15888091.61943 -12339510.92142  21881491.984    21881488.745
  20570686.916   -27558552.14544 -21469763.19442  20570688.367    20570684.552
  23934163.143    -6521367.94643  -5073936.75942  23934164.677    23934161.787
  23723498.015   -10646316.45943  -8262784.30042  23723498.873    23723496.506
 04  1  8  1 15  0.0000000  0 10G29G17G26G24G30G21G10G 6G18G 5
  23887122.470    -6549997.62843  -5096115.31742  23887124.268    23887121.109
  21866843.388   -17921619.81543 -13956733.56042  21866843.880    21866840.828
  23994417.511    -7925942.71243  -6144928.76542  23994419.281    23994416.931
  24837790.350    -2595705.22743  -2011632.09942  24837791.068    24837788.286
  21222314.716   -21969918.96043 -17108510.07142  21222316.533    21222312.458
  21906683.793   -21386322.59043 -16631840.04942  21906684.881    21906680.364
  21894976.523   -15817225.89043 -12284290.86442  21894977.271    21894974.044
  20564827.305   -27589344.60844 -21493757.31342  20564828.742    20564824.926
  23913550.119    -6629690.32843  -5158343.74542  23913551.632    23913548.660
  23743951.656   -10538831.69843  -8179029.96542  23743952.512    23743950.205
 04  1  8  1 15 30.0000000  0 10G29G17G26G24G30G21G10G 6G18G 5
  23875696.433    -6610041.67743  -5142902.83342  23875698.242    23875695.107
  21877752.622   -17864291.30943 -13912061.98842  21877753.122    21877750.074
  23977707.698    -8013752.78843  -6213352.07242  23977709.553    23977707.170
  24853195.362    -2514751.55043  -1948551.29042  24853195.987    24853193.376
  21236425.864   -21895764.42343 -17050727.33142  21236427.697    21236423.614
  21896314.759   -21440812.19343 -16674299.44542  21896315.816    21896311.321
  21908548.241   -15745905.87643 -12228716.81542  21908549.024    21908545.795
  20559025.099   -27619835.30044 -21517516.28142  20559026.550    20559022.716
  23892959.756    -6737893.05143  -5242657.48242  23892961.241    23892958.258
  23764419.570   -10431272.29943  -8095217.48742  23764420.414    23764418.159
 04  1  8  1 16  0.0000000  0 10G29G17G26G24G30G21G10G 6G18G 5
  23864320.733    -6669820.62543  -5189483.76842  23864322.583    23864319.473
  21888687.881   -17806826.04143 -13867283.84742  21888688.401    21888685.350
  23961018.137    -8101456.37643  -6281692.41142  23961020.100    23961017.632
  24868589.740    -2433854.24043  -1885514.39842  24868589.996    24868587.779
  21250616.032   -21821194.69643 -16992621.06442  21250617.872    21250613.766
  21885988.090   -21495079.15543 -16716585.35542  21885989.144    21885984.635
  21922205.318   -15674137.55843 -12172793.44142  21922206.064    21922202.834
  20553279.972   -27650025.98844 -21541041.47342  20553281.437    20553277.606
  23872392.088    -6845976.70243  -5326878.46042  23872393.551    23872390.472
  23784900.572   -10323643.76843  -8011351.12242  23784901.478    23784899.158
 04  1  8  1 16 30.0000000  0 10G29G17G26G24G30G21G10G 6G18G 5
  23852996.323    -6729330.68843  -5235855.19142  23852998.167    23852994.936
  21899649.231   -17749223.89443 -13822399.05042  21899649.727    21899646.669
  23944349.728    -8189049.03043  -6349946.33542  23944351.690    23944349.211
  24883973.311    -2353012.95243  -1822521.13342  24883973.675    24883971.200
  21264884.935   -21746211.25143 -16934192.41842  21264886.773    21264882.664
  21875703.981   -21549122.33643 -16758696.89442  21875705.042    21875700.566
  21935947.325   -15601922.64943 -12116522.07342  21935948.072    21935944.888
  20547592.433   -27679914.16544 -21564330.94942  20547593.892    20547590.067
  23851847.737    -6953938.13943  -5411004.19242  23851849.111    23851846.055
  23805394.587   -10215947.55943  -7927432.02942  23805395.491    23805393.114
 04  1  8  1 17  0.0000000  0  9G29G17G26G30G21G10G 6G18G 5
  23841725.856    -6788556.83243  -5282005.34642  23841727.705    23841724.532
  21910638.652   -17691474.08443 -13777399.18742  21910639.130    21910636.062
  23927705.402    -8276515.17543  -6418101.66042  23927707.337    23927704.822
  21279234.362   -21670804.63543 -16875434.03342  21279236.196    21279232.093
  21865464.745   -21602929.77243 -16800624.73742  21865465.798    21865461.320
  21949776.107   -15529251.72943 -12059895.37042  21949776.879    21949773.699
  20541965.049   -27709486.16944 -21587374.06142  20541966.498    20541962.688
  23831329.258    -7061762.94043  -5495023.45642  23831330.624    23831327.513
  23825903.087   -10108174.68943  -7843453.17842  23825904.022    23825901.624
 04  1  8  1 17 30.0000000  0  9G29G17G26G30G21G10G 6G18G 5
  23830504.673    -6847524.15243  -5327953.82442  23830506.501    23830503.273
  21921650.641   -17633605.58643 -13732306.83642  21921651.173    21921648.077
  23911080.498    -8363879.38143  -6486177.57642  23911082.381    23911079.902
  21293658.475   -21595005.32043 -16816369.64642  21293660.324    21293656.248
  21855265.095   -21656529.07343 -16842390.39342  21855266.172    21855261.686
  21963685.830   -15456155.59343 -12002937.33342  21963686.601    21963683.408
  20536392.818   -27738768.39844 -21610191.36642  20536394.267    20536390.467
  23810832.128    -7169476.44443  -5578956.01942  23810833.462    23810830.294
  23846420.401   -10000355.69943  -7759438.40242  23846421.320    23846418.901
 04  1  8  1 18  0.0000000  0  9G29G17G26G30G21G10G 6G18G 5
  23819336.834    -6906211.32643  -5373684.03242  23819338.675    23819335.378
  21932688.668   -17575600.48243 -13687108.04842  21932689.184    21932686.075
  23894479.224    -8451119.46743  -6554156.76742  23894481.063    23894478.525
  21308160.376   -21518797.40843 -16756986.86442  21308162.221    21308158.151
  21845108.473   -21709902.32643 -16883979.91142  21845109.560    21845105.075
  21977679.521   -15382618.19643 -11945635.47142  21977680.287    21977677.080
  20530879.586   -27767740.71744 -21632767.18442  20530881.020    20530877.198
  23790360.040    -7277057.72243  -5662785.52342  23790361.378    23790358.161
  23866949.606    -9892473.95943  -7675374.74542  23866950.534    23866948.223
 04  1  8  1 18 30.0000000  0  9G29G17G26G30G21G10G 6G18G 5
  23808222.216    -6964618.70643  -5419196.20242  23808224.101    23808220.805
  21943751.739   -17517463.44943 -13641806.45142  21943752.309    21943749.176
  23877901.574    -8538235.31843  -6622039.18742  23877903.395    23877900.838
  21322738.909   -21442186.60143 -16697290.14642  21322740.762    21322736.724
  21834994.331   -21763052.46943 -16925395.57642  21834995.407    21834990.912
  21991756.139   -15308645.12643 -11887994.09742  21991756.867    21991753.691
  20525424.980   -27796404.86744 -21655102.87542  20525426.405    20525422.578
  23769912.895    -7384507.80543  -5746512.80042  23769914.261    23769911.089
  23887489.646    -9784535.81643  -7591267.12042  23887490.528    23887488.103
 04  1  8  1 19  0.0000000  0  9G29G17G26G30G21G10G 6G18G 5
  23797160.603    -7022747.85443  -5464491.57442  23797162.490    23797159.108
  21954838.915   -17459199.94843 -13596406.31042  21954839.466    21954836.340
  23861347.408    -8625227.78643  -6689825.43742  23861349.239    23861346.595
  21337392.752   -21365180.18443 -16637285.15542  21337394.589    21337390.570
  21824921.698   -21815984.35843 -16966641.17042  21824922.804    21824918.282
  22005914.174   -15234243.95943 -11830019.14442  22005914.932    22005911.755
  20520028.425   -27824763.85544 -21677200.77542  20520029.862    20520026.024
  23749490.385    -7491829.02643  -5830139.68542  23749491.711    23749488.448
  23908038.916    -9676548.51543  -7507121.17142  23908039.869    23908037.440
 04  1  8  1 19 30.0000000  0  9G29G17G26G30G21G10G 6G18G 5
  23786154.147    -7080586.71943  -5509560.75042  23786156.008    23786152.636
  21965951.766   -17400801.39243 -13550900.93442  21965952.327    21965949.202
  23844819.047    -8712084.32943  -6757505.81142  23844820.931    23844818.236
  21352123.102   -21287771.58243 -16576966.77642  21352124.947    21352120.974
  21814892.216   -21868689.35043 -17007709.96342  21814893.356    21814888.816
  22020154.946   -15159408.09143 -11771705.46842  22020155.705    22020152.534
  20514692.018   -27852806.84844 -21699052.45042  20514693.454    20514689.604
  23729094.396    -7599009.96843  -5913657.23942  23729095.735    23729092.566
  23928598.908    -9568505.00643  -7422931.47742  23928599.867    23928597.547
 04  1  8  1 20  0.0000000  0  9G29G17G26G30G21G10G 6G18G 5
  23775202.461    -7138137.87043  -5554405.72442  23775204.398    23775200.927
  21977089.053   -17342274.57043 -13505295.60442  21977089.607    21977086.470
  23828316.322    -8798806.74343  -6825081.68142  23828318.131    23828315.454
  21366928.582   -21209968.46443 -16516340.98442  21366930.393    21366926.435
  21804905.035   -21921172.28043 -17048605.72442  21804906.157    21804901.606
  22034476.946   -15084145.37543 -11713059.18342  22034477.687    22034474.552
  20509415.021   -27880537.65444 -21720660.85942  20509416.471    20509412.598
  23708724.662    -7706053.15143  -5997067.44042  23708725.999    23708722.895
  23949168.111    -9460413.26643  -7338704.12542  23949169.089    23949166.615
 04  1  8  1 20 30.0000000  0  9G29G17G26G30G21G10G 6G18G 5
  23764305.721    -7195400.58843  -5599025.96842  23764307.645    23764304.148
  21988250.204   -17283622.40643 -13459592.60842  21988250.737    21988247.596
  23811839.382    -8885393.62643  -6892551.93942  23811841.111    23811838.478
  21381808.116   -21131775.95343 -16455411.77242  21381809.933    21381805.973
  21794959.736   -21973435.07043 -17089329.95142  21794960.856    21794956.291
  22048879.193   -15008460.88643 -11654084.24842  22048879.922    22048876.825
  20504197.351   -27907956.72544 -21742026.35642  20504198.776    20504194.912
  23688381.301    -7812958.29843  -6080370.12842  23688382.672    23688379.395
  23969745.575    -9352277.92843  -7254442.85642  23969746.560    23969744.071
 04  1  8  1 21  0.0000000  0  9G29G17G26G30G21G10G 6G18G 5
  23753465.129    -7252367.84243  -5643415.96242  23753466.978    23753463.621
  21999435.874   -17224841.28443 -13413789.12142  21999436.421    21999433.277
  23795389.775    -8971836.65143  -6959910.06442  23795391.523    23795388.851
  21396762.200   -21053191.80243 -16394177.38342  21396764.007    21396760.037
  21785057.098   -22025473.68843 -17129879.49242  21785058.216    21785053.633
  22063362.083   -14932352.57643 -11594779.05242  22063362.836    22063359.763
  20499040.128   -27935057.86844 -21763144.11342  20499041.603    20499037.731
  23668065.406    -7919718.71943  -6163560.00042  23668066.770    23668063.477
  23990331.809    -9244096.89643  -7170145.96942  23990332.821    23990330.294
 04  1  8  1 21 30.0000000  0  9G29G17G26G30G21G10G 6G18G 5
  23742681.323    -7309037.30843  -5687573.91642  23742683.089    23742679.644
  22010645.724   -17165933.08243 -13367886.60942  22010646.274    22010643.136
  23778968.042    -9058133.46743  -7027154.29242  23778969.769    23778967.031
  21411790.068   -20974219.76843 -16332640.75042  21411791.894    21411787.921
  21775196.934   -22077289.09743 -17170255.09742  21775198.051    21775193.440
  22077924.936   -14855824.22143 -11535146.55842  22077925.692    22077922.606
  20493943.565   -27961840.51844 -21784013.70342  20493945.023    20493941.154
  23647777.355    -8026333.02343  -6246636.03242  23647778.636    23647775.376
  24010925.888    -9135874.10443  -7085816.54242  24010926.876    24010924.319
 04  1  8  1 22  0.0000000  0  9G29G17G26G30G21G10G 6G18G 5
  23731953.345    -7365413.01543  -5731502.96842  23731955.124    23731951.534
  22021878.280   -17106905.64043 -13321891.18642  22021878.808    22021875.664
  23762573.394    -9144287.34043  -7094287.10442  23762575.191    23762572.503
  21426889.947   -20894869.30643 -16270809.23442  21426891.757    21426887.822
  21765377.895   -22128888.56543 -17210462.44842  21765378.992    21765374.323
  22092565.918   -14778885.32343 -11475194.16042  22092566.656    22092563.579
  20488906.593   -27988310.06644 -21804639.31842  20488908.044    20488904.148
  23627516.200    -8132805.76243  -6329601.75542  23627517.491    23627514.194
  24031526.195    -9027618.89943  -7001461.84042  24031527.196    24031524.685
 04  1  8  1 22 30.0000000  0  9G29G17G26G30G21G10G 6G18G 5
  23721284.282    -7421479.29343  -5775190.92942  23721285.989    23721282.426
  22033135.768   -17047746.89943 -13275793.44742  22033136.328    22033133.198
  23746209.132    -9230281.64143  -7161295.57442  23746210.949    23746208.227
  21442063.841   -20815130.02043 -16208674.72742  21442065.677    21442061.711
  21755602.416   -22180259.01243 -17250491.33242  21755603.503    21755598.826
  22107286.968   -14701525.63943 -11414913.87442  22107287.718    22107284.619
  20483931.963   -28014451.77244 -21825009.46442  20483933.425    20483929.549
  23607284.952    -8239121.60043  -6412445.21142  23607286.229    23607282.981
  24052134.761    -8919320.32543  -6917073.37842  24052135.745    24052133.291
 04  1  8  1 23  0.0000000  0  9G29G17G26G30G21G10G 6G18G 5
  23710672.115    -7477246.63043  -5818645.94642  23710673.836    23710670.233
  22044415.564   -16988471.02243 -13229604.43942  22044416.117    22044413.027
  23729873.388    -9316126.28443  -7228187.41842  23729875.223    23729872.405
  21457308.682   -20735017.90943 -16146249.71742  21457310.516    21457306.570
  21745867.998   -22231413.59843 -17290352.01942  21745869.102    21745864.408
  22122085.018   -14623761.24043 -11354318.22742  22122085.773    22122082.629
  20479017.468   -28040277.66744 -21845133.52642  20479018.908    20479015.025
  23587081.445    -8345291.67043  -6495175.08542  23587082.736    23587079.463
  24072748.444    -8810994.59943  -6832663.71642  24072749.468    24072746.943
 04  1  8  1 23 30.0000000  0  9G29G17G26G30G21G10G 6G18G 5
  23700119.087    -7532702.55143  -5861858.28842  23700120.826    23700117.198
  22055719.292   -16929069.53443 -13183317.55342  22055719.813    22055716.752
  23713568.645    -9401808.20943  -7294952.46142  23713570.467    23713567.605
  21472625.737   -20654526.19143 -16083528.90542  21472627.586    21472623.637
  21736176.358   -22282343.36243 -17330037.51742  21736177.475    21736172.755
  22136961.419   -14545585.21243 -11293401.83542  22136962.182    22136958.999
  20474165.166   -28065776.61344 -21865002.82342  20474166.605    20474162.713
  23566907.945    -8451303.75543  -6577781.85042  23566909.185    23566905.889
  24093368.696    -8702634.68143  -6748227.42942  24093369.708    24093367.261
 04  1  8  1 24  0.0000000  0  9G29G17G26G30G21G10G 6G18G 5
  23689624.925    -7587849.55143  -5904829.90642  23689626.671    23689623.120
  22067045.855   -16869548.13343 -13136937.22742  22067046.350    22067043.279
  23697294.557    -9487328.73443  -7361591.73242  23697296.402    23697293.535
  21488013.603   -20573662.48643 -16020518.23642  21488015.455    21488011.498
  21726526.606   -22333053.02743 -17369551.50842  21726527.729    21726522.985
  22151914.667   -14467005.35643 -11232170.76642  22151915.405    22151912.226
  20469374.437   -28090952.08644 -21884620.05742  20469375.872    20469371.974
  23546764.037    -8557160.79543  -6660267.81242  23546765.289    23546761.918
  24113993.927    -8594248.09343  -6663770.38342  24113994.924    24113992.623
 04  1  8  1 24 30.0000000  0  9G29G17G26G30G21G10G 6G18G 5
  23679190.634    -7642681.93743  -5947556.39142  23679192.358    23679188.803
  22078395.503   -16809905.27643 -13090462.26442  22078395.985    22078392.934
  23681052.405    -9572681.74043  -7428100.48742  23681054.166    23681051.354
  21503472.291   -20492426.75443 -15957217.67742  21503474.137    21503470.136
  21716919.159   -22383540.43343 -17408892.31442  21716920.267    21716915.515
  22166944.757   -14388021.72543 -11170625.06742  22166945.484    22166942.279
  20464646.080   -28115799.70244 -21903981.81942  20464647.531    20464643.613
  23526650.532    -8662857.30843  -6742628.66342  23526651.836    23526648.498
  24134624.453    -8485834.46343  -6579292.20842  24134625.421    24134622.909
 04  1  8  1 25  0.0000000  0  9G29G17G26G30G21G10G 6G18G 5
  23668816.941    -7697195.79443  -5990034.67042  23668818.643    23668815.133
  22089768.365   -16750140.49943 -13043892.29842  22089768.839    22089765.779
  23664842.985    -9657862.24843  -7494474.78942  23664844.810    23664841.992
  21519001.505   -20410820.31643 -15893628.26342  21519003.341    21518999.331
  21707354.316   -22433803.90843 -17448058.62342  21707355.402    21707350.677
  22182051.414   -14308635.68743 -11108765.80342  22182052.166    22182048.925
  20459980.678   -28140316.53544 -21923085.83142  20459982.129    20459978.199
  23506568.247    -8768390.00943  -6824861.88942  23506569.531    23506566.201
  24155259.774    -8377395.21143  -6494794.11342  24155260.676    24155258.258
 04  1  8  1 25 30.0000000  0  9G29G17G26G30G21G10G 6G18G 5
  23658502.924    -7751395.57443  -6032268.18842  23658504.693    23658501.203
  22101162.861   -16690262.04443 -12997233.75242  22101163.315    22101160.267
  23648665.641    -9742874.24743  -7560717.80842  23648667.480    23648664.659
  21534599.275   -20328853.38143 -15829757.94042  21534601.133    21534597.127
  21697830.654   -22483851.09143 -17487056.39642  21697831.724    21697826.958
  22197232.727   -14228857.43343 -11046600.91542  22197233.458    22197230.172
  20455377.080   -28164508.46744 -21941936.67242  20455378.543    20455374.628
  23486516.227    -8873764.02243  -6906971.46242  23486517.520    23486514.156
  24175898.052    -8268940.23743  -6410283.77742  24175898.979    24175896.631
 04  1  8  1 26  0.0000000  0  9G29G17G26G30G21G10G 6G18G 5
  23648250.478    -7805272.67643  -6074250.30042  23648252.213    23648248.661
  22112579.954   -16630264.77243 -12950482.62142  22112580.408    22112577.342
  23632522.176    -9827707.94743  -7626821.89242  23632524.069    23632521.284
  21550266.345   -20246522.61643 -15765604.10542  21550268.179    21550264.167
  21688349.257   -22533676.05043 -17525881.00442  21688350.321    21688345.544
  22212489.267   -14148683.59043 -10984127.77142  22212490.031    22212486.720
  20450836.779   -28188367.89744 -21960528.42042  20450838.224    20450834.305
  23466495.939    -8978970.75243  -6988950.66942  23466497.294    23466493.975
  24196539.997    -8160466.05343  -6325758.42842  24196540.951    24196538.528
 04  1  8  1 26 30.0000000  0  9G29G17G26G30G21G10G 6G18G 5
  23638059.299    -7858826.67043  -6115980.60042  23638061.125    23638057.662
  22124019.055   -16570151.97543 -12903641.46742  22124019.474    22124016.422
  23616412.914    -9912362.03143  -7692786.01042  23616414.816    23616412.021
  21566001.657   -20163833.11243 -15701170.74042  21566003.475    21565999.478
  21678909.674   -22583281.31143 -17564534.42942  21678910.741    21678905.938
  22227820.113   -14068119.30743 -10921350.39142  22227820.879    22227817.551
  20446359.610   -28211895.57944 -21978861.66642  20446361.045    20446357.131
  23446507.629    -9084010.18443  -7070799.54242  23446508.938    23446505.561
  24217184.592    -8051977.62343  -6241222.01642  24217185.545    24217183.255
 04  1  8  1 27  0.0000000  0  9G29G17G26G30G21G10G 6G18G 5
  23627930.955    -7912051.69643  -6157454.61142  23627932.802    23627929.136
  22135480.530   -16509921.51543 -12856708.62942  22135480.931    22135477.882
  23600339.035    -9996830.29243  -7758605.31242  23600341.023    23600338.141
  21581805.292   -20080784.61743 -15636457.64042  21581807.117    21581803.070
  21669512.401   -22632664.30043 -17603014.66242  21669513.444    21669508.620
  22243225.331   -13987164.37843 -10858268.61342  22243226.104    22243222.751
  20441946.385   -28235087.10144 -21996932.96842  20441947.831    20441943.933
  23426552.011    -9188877.03243  -7152513.89642  23426553.330    23426550.047
  24237832.185    -7943474.18343  -6156673.89742  24237833.085    24237830.873
 04  1  8  1 27 30.0000000  0  9G29G17G26G30G21G10G 6G18G 5
  23617864.945    -7964948.56443  -6198672.89642  23617866.779    23617863.128
  22146963.643   -16449577.38343 -12809687.20742  22146964.002    22146960.948
  23584300.634   -10081112.28743  -7824279.48342  23584302.629    23584299.716
  21597676.067   -19997383.12843 -15571469.47642  21597677.904    21597673.883
  21660156.823   -22681828.03343 -17641324.02842  21660157.874    21660153.036
  22258703.687   -13905825.07143 -10794887.31842  22258704.449    22258701.085
  20437596.803   -28257944.16044 -22014743.64642  20437598.269    20437594.365
  23406629.179    -9293572.31043  -7234094.57542  23406630.462    23406627.079
  24258481.448    -7834961.44943  -6072118.51142  24258482.398    24258480.160
 04  1  8  1 28  0.0000000  0 10G29G17G26G30G21G10G 6G18G 5G16
  23607860.003    -8017524.87243  -6239641.40042  23607861.792    23607858.112
  22158466.168   -16389131.15143 -12762586.23742  22158466.515    22158463.489
  23568296.333   -10165215.01443  -7889813.96742  23568298.277    23568295.372
  21613611.481   -19913641.96243 -15506216.63042  21613613.312    21613609.302
  21650840.905   -22730783.36943 -17679471.01042  21650841.946    21650837.115
  22274252.643   -13824114.57843 -10731216.78442  22274253.414    22274250.046
  20433309.168   -28280475.76644 -22032300.72642  20433310.624    20433306.721
  23386737.368    -9398104.41443  -7315548.10242  23386738.587    23386735.225
  24279129.967    -7726452.51043  -5987566.11042  24279130.860    24279128.746
  24738316.963    -4901604.85753  -3611535.63952  24738318.266    24738314.048
 04  1  8  1 28 30.0000000  0 10G29G17G26G30G21G10G 6G18G 5G16
  23597921.021    -8069754.48343  -6280339.76342  23597922.814    23597919.124
  22169992.376   -16328560.36343 -12715388.21442  22169992.697    22169989.699
  23552331.316   -10249111.49243  -7955187.74542  23552333.228    23552330.313
  21629615.482   -19829540.42443 -15440682.97542  21629617.307    21629613.319
  21641569.114   -22779506.87443 -17717437.35042  21641570.148    21641565.299
  22289876.206   -13742012.02743 -10667240.75342  22289876.992    22289873.622
  20429088.240   -28302656.84744 -22049584.67142  20429089.686    20429085.801
  23366881.544    -9502447.59643  -7396854.43942  23366882.756    23366879.349
  24299781.868    -7617926.62843  -5903000.48242  24299782.753    24299780.555
  24721440.431    -4990291.78543  -3680642.28842  24721441.785    24721437.374
 04  1  8  1 29  0.0000000  0 10G29G17G26G30G21G10G 6G18G 5G16
  23588046.570    -8121644.77343  -6320773.70042  23588048.412    23588044.696
  22181540.310   -16267875.58643 -12668101.35642  22181540.606    22181537.602
  23536404.299   -10332808.12743  -8020405.79842  23536406.207    23536403.322
  21645685.643   -19745091.28243 -15374878.46742  21645687.455    21645683.460
  21632339.509   -22828008.67743 -17755230.93042  21632340.530    21632335.690
  22305571.936   -13659530.40243 -10602969.33542  22305572.693    22305569.331
  20424932.380   -28324496.01744 -22066602.18842  20424933.821    20424929.935
  23347060.265    -9606609.07843  -7478019.17142  23347061.468    23347058.060
  24320434.517    -7509396.11243  -5818431.28542  24320435.361    24320433.224
  24704620.132    -5078683.40143  -3749518.85042  24704621.475    24704616.960
 04  1  8  1 29 30.0000000  0 10G29G17G26G30G21G10G 6G18G 5G16
  23578236.669    -8173195.71343  -6360943.22442  23578238.532    23578234.858
  22193109.174   -16207080.53443 -12620728.57342  22193109.505    22193106.486
  23520515.453   -10416304.02443  -8085467.46742  23520517.414    23520514.463
  21661820.929   -19660299.74743 -15308807.16142  21661822.745    21661818.773
  21623151.529   -22876291.72943 -17792854.06042  21623152.519    21623147.699
  22321338.777   -13576674.94443 -10538406.62542  22321339.590    22321336.171
  20420841.392   -28345994.33044 -22083354.11042  20420842.839    20420838.907
  23327273.369    -9710589.49543  -7559042.81142  23327274.625    23327271.170
  24341087.179    -7400866.15043  -5733862.47142  24341088.029    24341085.752
  24687856.041    -5166779.40343  -3818165.04042  24687857.272    24687852.975
 04  1  8  1 30  0.0000000  0 10G29G17G26G30G21G10G 6G18G 5G16
  23568492.052    -8224404.08743  -6400845.82342  23568493.776    23568490.162
  22204699.050   -16146175.46943 -12573270.06342  22204699.314    22204696.305
  23504665.692   -10499595.03243  -8150369.46942  23504667.617    23504664.597
  21678020.877   -19575168.40043 -15242471.06542  21678022.711    21678018.760
  21614005.236   -22924355.61243 -17830306.40542  21614006.241    21614001.424
  22337176.330   -13493448.22243 -10473554.62042  22337177.113    22337173.686
  20416815.611   -28367149.93244 -22099838.98042  20416817.036    20416813.112
  23307521.527    -9814386.16043  -7639923.26842  23307522.808    23307519.268
  24361739.165    -7292338.92543  -5649295.82642  24361740.064    24361737.784
  24671148.620    -5254577.11943  -3886578.82742  24671149.920    24671145.554
 04  1  8  1 30 30.0000000  0 10G29G17G26G30G21G10G 6G18G 5G16
  23558813.432    -8275265.09243  -6440477.72942  23558815.214    23558811.626
  22216310.111   -16085158.84643 -12525724.63342  22216310.390    22216307.358
  23488855.929   -10582675.49643  -8215107.42142  23488857.823    23488854.796
  21694285.388   -19489697.80943 -15175870.62042  21694287.224    21694283.297
  21604901.015   -22972198.56543 -17867586.60342  21604902.010    21604897.185
  22353084.406   -13409850.62343 -10408413.61942  22353085.178    22353081.761
  20412855.780   -28387958.92944 -22116053.77142  20412857.215    20412853.266
  23287805.492    -9917994.25843  -7720656.79242  23287806.778    23287803.227
  24382390.619    -7183814.58543  -5564731.43242  24382391.565    24382389.291
  24654498.903    -5342071.74443  -3954756.42342  24654500.238    24654495.869
 04  1  8  1 31  0.0000000  0 10G29G17G26G30G21G10G 6G18G 5G16
  23549200.806    -8325779.58743  -6479839.63342  23549202.541    23549198.960
  22227941.554   -16024035.23343 -12478095.82342  22227941.828    22227938.793
  23473086.320   -10665545.05243  -8279681.02642  23473088.183    23473085.159
  21710613.314   -19403894.16743 -15109010.66442  21710615.123    21710611.235
  21595838.230   -23019823.70443 -17904697.07242  21595839.238    21595834.410
  22369061.905   -13325888.41043 -10342988.49442  22369062.643    22369059.211
  20408961.525   -28408423.25544 -22131999.98142  20408962.971    20408959.026
  23268125.092   -10021415.37043  -7801244.60942  23268126.397    23268122.807
  24403040.411    -7075299.31143  -5480174.07842  24403041.328    24403039.074
  24637906.768    -5429264.00343  -4022698.42642  24637908.163    24637903.559
 04  1  8  1 31 30.0000000  0 10G29G17G26G30G21G10G 6G18G 5G16
  23539654.805    -8375943.85243  -6518928.62642  23539656.542    23539652.986
  22239593.377   -15962804.39743 -12430383.47442  22239593.668    22239590.597
  23457357.692   -10748199.29443  -8344086.85342  23457359.560    23457356.508
  21727004.207   -19317759.24243 -15041892.55642  21727006.024    21727002.158
  21586817.027   -23067230.24843 -17941637.20942  21586818.036    21586813.219
  22385108.400   -13241563.57343 -10277280.81142  22385109.137    22385105.685
  20405133.316   -28428540.49644 -22147675.73042  20405134.795    20405130.806
  23248480.953   -10124645.91743  -7881683.93242  23248482.246    23248478.647
  24423688.251    -6966794.29143  -5395624.70942  24423689.181    24423686.943
  24621372.830    -5516150.49643  -4090402.15442  24621374.093    24621369.657
 04  1  8  1 32  0.0000000  0 10G29G17G26G30G21G10G 6G18G 5G16
  23530176.558    -8425752.46043  -6557740.48742  23530178.205    23530174.666
  22251265.986   -15901464.18543 -12382585.88842  22251266.303    22251263.234
  23441671.199   -10830631.97543  -8408320.04642  23441673.064    23441670.008
  21743458.229   -19231292.94243 -14974516.24242  21743460.044    21743456.185
  21577837.914   -23114415.68943 -17978405.04942  21577838.905    21577834.105
  22401223.927   -13156875.88443 -10211290.39042  22401224.682    22401221.204
  20401372.017   -28448306.25844 -22163077.60942  20401373.489    20401369.494
  23228874.076   -10227680.47743  -7961970.55842  23228875.381    23228871.726
  24444334.178    -6858299.04243  -5311082.97742  24444335.103    24444332.953
  24604898.067    -5602725.72643  -4157863.34742  24604899.442    24604894.952
 04  1  8  1 32 30.0000000  0 10G29G17G26G30G21G10G 6G18G 5G16
  23520766.212    -8475203.58043  -6596273.76042  23520767.957    23520764.424
  22262959.101   -15840016.38043 -12334704.46642  22262959.438    22262956.322
  23426027.402   -10912840.24943  -8472378.37042  23426029.308    23426026.238
  21759974.566   -19144498.98843 -14906884.60942  21759976.399    21759972.510
  21568900.712   -23161380.84643 -18015001.24242  21568901.700    21568896.902
  22417407.749   -13071829.11043 -10145020.15542  22417408.524    22417405.043
  20397677.717   -28467719.83144 -22178205.05642  20397679.188    20397675.192
  23209304.737   -10330517.97743  -8042103.62942  23209306.014    23209302.337
  24464977.648    -6749816.81543  -5226551.37842  24464978.618    24464976.475
  24588482.778    -5688988.20843  -4225080.82842  24588484.273    24588479.699
 04  1  8  1 33  0.0000000  0 10G29G17G26G30G21G10G 6G18G 5G16
  23511423.029    -8524302.34743  -6634532.50042  23511424.784    23511421.250
  22274671.027   -15778469.54043 -12286745.86942  22274671.418    22274668.274
  23410425.598   -10994828.30243  -8536265.11442  23410427.399    23410424.367
  21776551.242   -19057388.03643 -14839005.96542  21776553.052    21776549.235
  21560003.885   -23208133.77043 -18051432.05842  21560004.880    21560000.091
  22433657.932   -12986433.78643 -10078478.33542  22433658.681    22433655.238
  20394049.265   -28486787.67144 -22193063.09942  20394050.686    20394046.683
  23189771.854   -10433163.88543  -8122087.37942  23189773.108    23189769.508
  24485616.731    -6641357.91443  -5142037.93742  24485617.664    24485615.501
  24572126.030    -5774943.17343  -4292058.69242  24572127.434    24572123.092
 04  1  8  1 33 30.0000000  0 10G29G17G26G30G21G10G 6G18G 5G16
  23502149.813    -8573033.02543  -6672504.39842  23502151.597    23502148.005
  22286404.298   -15716810.79743 -12238700.08042  22286404.692    22286401.516
  23394868.881   -11076579.27243  -8599967.09542  23394870.658    23394867.606
  21793190.236   -18969949.59543 -14770872.12942  21793192.059    21793188.208
  21551149.988   -23254661.19443 -18087687.15942  21551150.975    21551146.203
  22449976.416   -12900679.57343 -10011656.85542  22449977.130    22449973.714
  20390489.422   -28505494.98944 -22207640.21642  20390490.793    20390486.786
  23170278.343   -10535602.68043  -8201909.76042  23170279.584    23170275.944
  24506253.383    -6532911.55143  -5057534.29442  24506254.292    24506252.111
  24555830.856    -5860574.60743  -4358784.44142  24555832.317    24555827.914
 04  1  8  1 34  0.0000000  0 10G29G17G26G30G21G10G 6G18G 5G16
  23492944.979    -8621404.48843  -6710196.38842  23492946.742    23492943.173
  22298156.447   -15655052.67043 -12190576.85042  22298156.892    22298153.659
  23379355.775   -11158100.83543  -8663490.31642  23379357.592    23379354.445
  21809888.865   -18882197.68743 -14702494.03742  21809890.691    21809886.895
  21542336.712   -23300975.01743 -18123775.81542  21542337.707    21542332.972
  22466360.529   -12814580.48843  -9944566.64742  22466361.240    22466357.821
  20386996.272   -28523851.51344 -22221943.98542  20386997.651    20386993.633
  23150822.587   -10637843.17443  -8281577.63042  23150823.829    23150820.207
  24526885.081    -6424491.57943  -4973051.21042  24526885.906    24526883.702
  24539595.589    -5945891.42043  -4425265.03542  24539596.996    24539592.657
 04  1  8  1 34 30.0000000  0 10G29G17G26G30G21G10G 6G18G 5G16
  23483810.241    -8669407.82743  -6747601.54042  23483811.886    23483808.381
  22309928.546   -15593189.89443 -12142372.06942  22309928.986    22309925.743
  23363888.115   -11239383.52743  -8726827.41042  23363889.997    23363886.852
  21826647.727   -18794129.43443 -14633869.44442  21826649.525    21826645.705
  21533565.276   -23347068.95143 -18159693.13142  21533566.291    21533561.565
  22482810.819   -12728133.47343  -9877205.32042  22482811.562    22482808.142
  20383571.293   -28541849.75044 -22235968.56542  20383572.696    20383568.669
  23131406.141   -10739877.19043  -8361084.60542  23131407.370    23131403.756
  24547512.445    -6316094.24943  -4888585.76642  24547513.254    24547511.040
  24523421.801    -6030885.06243  -4491493.80242  24523423.254    24523418.954
 04  1  8  1 35  0.0000000  0 10G29G17G26G30G21G10G 6G18G 5G16
  23474745.081    -8717045.26143  -6784721.56042  23474746.756    23474743.220
  22321719.524   -15531227.65643 -12094089.79042  22321720.006    22321716.708
  23348465.816   -11320428.19643  -8789979.04142  23348467.640    23348464.531
  21843465.448   -18705751.85643 -14565003.81742  21843467.266    21843463.448
  21524834.744   -23392947.97743 -18195442.98642  21524835.777    21524831.052
  22499325.990   -12641345.85143  -9809578.59042  22499326.679    22499323.294
  20380213.887   -28559492.80644 -22249716.38842  20380215.318    20380211.295
  23112028.479   -10841707.25843  -8440432.65842  23112029.739    23112026.050
  24568134.058    -6207726.81243  -4804143.60842  24568134.840    24568132.744
  24507309.194    -6115557.51443  -4557472.30342  24507310.460    24507306.302
 04  1  8  1 35 30.0000000  0 10G29G17G26G30G21G10G 6G18G 5G16
  23465751.054    -8764308.75843  -6821550.21142  23465752.782    23465749.234
  22333530.337   -15469161.44743 -12045726.48642  22333530.830    22333527.509
  23333090.496   -11401225.95343  -8852938.26242  23333092.246    23333089.154
  21860342.454   -18617062.56043 -14495895.28942  21860344.262    21860340.444
  21516146.093   -23438606.79443 -18231021.25142  21516147.156    21516142.452
  22515906.410   -12554214.91143  -9741684.33642  22515907.133    22515903.778
  20376925.397   -28576773.82144 -22263182.10442  20376926.852    20376922.819
  23092691.123   -10943325.34043  -8519615.51342  23092692.424    23092688.783
  24588750.568    -6099386.33543  -4719722.46042  24588751.399    24588749.234
  24491259.179    -6199900.79243  -4623194.29742  24491260.557    24491256.234
 04  1  8  1 36  0.0000000  0 10G29G17G26G30G21G10G 6G18G 5G16
  23456828.093    -8811198.93443  -6858087.96942  23456829.908    23456826.224
  22345360.162   -15406995.31243 -11997285.32742  22345360.631    22345357.317
  23317762.161   -11481776.51643  -8915704.84142  23317763.904    23317760.774
  21877277.599   -18528067.86843 -14426548.79642  21877279.415    21877275.628
  21507498.779   -23484048.51243 -18266430.34942  21507499.857    21507495.153
  22532551.025   -12466746.74343  -9673527.31042  22532551.766    22532548.439
  20373705.436   -28593694.81344 -22276367.28442  20373706.879    20373702.855
  23073393.924   -11044732.49243  -8598634.03542  23073395.230    23073391.504
  24609360.964    -5991078.14643  -4635326.47042  24609361.850    24609359.629
  24475271.592    -6283915.94543  -4688660.61642  24475272.939    24475268.662
 04  1  8  1 36 30.0000000  0 10G29G17G26G30G21G10G 6G18G 5G16
  23447976.775    -8857712.56243  -6894332.30742  23447978.622    23447974.967
  22357209.061   -15344728.80043 -11948765.94842  22357209.563    22357206.219
  23302481.677   -11562075.30143  -8978275.24342  23302483.530    23302480.414
  21894270.541   -18438769.48343 -14356965.65342  21894272.364    21894268.538
  21498892.942   -23529272.41043 -18301669.72142  21498894.040    21498889.289
  22549259.437   -12378943.36043  -9605109.07942  22549260.184    22549256.843
  20370554.496   -28610253.02844 -22289269.77342  20370555.939    20370551.898
  23054137.542   -11145925.37443  -8677485.56942  23054138.847    23054135.044
  24629964.810    -5882803.87143  -4550956.93542  24629965.723    24629963.514
  24459347.156    -6367599.40743  -4753868.47242  24459348.401    24459344.173
 04  1  8  1 37  0.0000000  0 10G29G17G26G30G21G10G 6G18G 5G16
  23439197.113    -8903849.88243  -6930283.42742  23439198.951    23439195.318
  22369076.352   -15282365.69443 -11900171.31042  22369076.856    22369073.500
  23287249.273   -11642121.60743  -9040648.88642  23287251.168    23287248.031
  21911320.133   -18349173.19543 -14287150.38742  21911321.960    21911318.193
  21490327.985   -23574281.45443 -18336741.66842  21490329.082    21490324.319
  22566030.576   -12290810.32643  -9536433.97342  22566031.304    22566028.004
  20367472.323   -28626449.93544 -22301890.72742  20367473.749    20367469.712
  23034921.657   -11246905.19043  -8756171.06742  23034922.981    23034919.239
  24650561.240    -5774568.66343  -4466617.81242  24650562.190    24650559.935
  24443485.716    -6450951.68643  -4818818.26142  24443486.939    24443482.814
 04  1  8  1 37 30.0000000  0 10G29G17G26G30G21G10G 6G18G 5G16
  23430490.600    -8949602.85443  -6965935.05342  23430492.382    23430488.718
  22380962.980   -15219901.10643 -11851497.58342  22380963.464    22380960.097
  23272066.684   -11721906.38643  -9102818.75442  23272068.591    23272065.393
  21928427.001   -18259276.28043 -14217100.84742  21928428.820    21928424.959
  21481804.866   -23619070.73843 -18371642.37942  21481805.949    21481801.159
  22582864.945   -12202344.85043  -9467499.82042  22582865.707    22582862.425
  20364460.211   -28642278.61744 -22314224.75542  20364461.653    20364457.613
  23015747.834   -11347663.95643  -8834684.34042  23015749.177    23015745.374
  24671150.818    -5666369.70543  -4382306.90242  24671151.872    24671149.405
  24427688.858    -6533964.36843  -4883503.43742  24427690.089    24427685.945
 04  1  8  1 38  0.0000000  0 10G29G17G26G30G21G10G 6G18G 5G16
  23421857.399    -8994971.04143  -7001286.86042  23421859.094    23421855.446
  22392868.353   -15157337.86743 -11802746.99942  22392868.842    22392865.490
  23256934.131   -11801428.05943  -9164783.59542  23256936.052    23256932.786
  21945590.073   -18169083.65943 -14146820.91142  21945591.898    21945588.072
  21473323.170   -23663642.35943 -18406373.48342  21473324.247    21473319.429
  22599761.719   -12113551.82643  -9398310.43642  22599762.424    22599759.157
  20361518.057   -28657739.65444 -22326272.30342  20361519.492    20361515.461
  22996616.203   -11448201.13343  -8913024.94042  22996617.571    22996613.778
  24691732.612    -5558211.53743  -4298027.80342  24691733.722    24691731.154
  24411956.608    -6616637.40643  -4947923.94742  24411957.920    24411953.844
 04  1  8  1 38 30.0000000  0 10G29G17G26G30G21G10G 6G18G 5G16
  23413296.759    -9039957.51043  -7036341.22942  23413298.493    23413294.743
  22404791.284   -15094682.39443 -11753924.53542  22404791.764    22404788.418
  23241851.385   -11880688.77143  -9226545.13042  23241853.213    23241849.925
  21962807.832   -18078603.86043 -14076317.18642  21962809.664    21962805.759
  21464881.760   -23708002.01543 -18440939.41642  21464882.855    21464878.039
  22616719.097   -12024440.04243  -9328872.67142  22616719.820    22616716.546
  20358645.060   -28672837.27044 -22338036.66242  20358646.509    20358642.488
  22977526.092   -11548520.30443  -8991195.67542  22977527.465    22977523.558
  24712305.244    -5450101.86043  -4213786.53142  24712306.348    24712303.901
  24396288.485    -6698973.75443  -5012082.11142  24396289.740    24396285.705
 04  1  8  1 39  0.0000000  0 10G29G17G26G30G21G10G 6G18G 5G16
  23404810.476    -9084553.30543  -7071091.15542  23404812.200    23404808.451
  22416732.887   -15031928.62543 -11705025.47942  22416733.361    22416730.080
  23226820.114   -11959678.23043  -9288095.26842  23226821.974    23226818.666
  21980080.947   -17987833.15843 -14005586.78442  21980082.767    21980078.916
  21456481.983   -23752143.05743 -18475335.00542  21456483.077    21456478.263
  22633737.928   -11935005.50543  -9259183.41242  22633738.617    22633735.334
  20355842.800   -28687563.24244 -22349511.42542  20355844.228    20355840.202
  22958479.124   -11648612.49843  -9069189.54342  22958480.507    22958476.534
  24732869.430    -5342036.55743  -4129579.82342  24732870.528    24732868.034
  24380686.223    -6780964.27143  -5075970.79642  24380687.381    24380683.411
 04  1  8  1 39 30.0000000  0 10G29G17G26G30G21G10G 6G18G 5G16
  23396399.017    -9128755.78243  -7105534.61442  23396400.766    23396396.908
  22428693.141   -14969077.01543 -11656050.17942  22428693.603    22428690.349
  23211841.139   -12038392.79043  -9349431.18542  23211843.056    23211839.691
  21997408.882   -17896774.26443 -13934631.81642  21997410.704    21997406.853
  21448123.736   -23796065.77443 -18509560.46542  21448124.828    21448120.012
  22650817.603   -11845250.89643  -9189244.73342  22650818.332    22650815.039
  20353111.515   -28701916.09044 -22360695.44542  20353112.966    20353108.931
  22939475.794   -11748475.62643  -9147004.89642  22939477.169    22939473.218
  24753424.844    -5234017.61043  -4045409.15742  24753425.926    24753423.326
  24365150.245    -6862606.33743  -5139587.96042  24365151.409    24365147.389
 04  1  8  1 40  0.0000000  0 10G29G17G26G30G21G10G 6G18G 5G16
  23388061.431    -9172569.79643  -7139675.36842  23388063.197    23388059.409
  22440670.469   -14906135.69343 -11607004.97242  22440670.949    22440667.661
  23196913.746   -12116836.16843  -9410555.80442  23196915.691    23196912.322
  22014789.791   -17805437.29143 -13863460.15442  22014791.616    22014787.698
  21439805.701   -23839777.21343 -18543621.29842  21439806.793    21439801.965
  22667956.345   -11755186.13043  -9119064.39342  22667957.087    22667953.787
  20350450.124   -28715901.72744 -22371593.33142  20350451.580    20350447.535
  22920515.133   -11848114.36943  -9224645.43042  22920516.515    22920512.470
  24773969.493    -5126054.89843  -3961282.35942  24773970.576    24773967.926
  24349679.610    -6943904.97943  -5202937.52942  24349680.828    24349676.762
 04  1  8  1 40 30.0000000  0 10G29G17G26G30G21G10G 6G18G 5G16
  23379800.060    -9215983.85243  -7173504.46442  23379801.803    23379797.915
  22452666.477   -14843096.42043 -11557883.45842  22452666.904    22452663.621
  23182040.370   -12194995.91843  -9471459.42342  23182042.307    23182038.913
  22032224.689   -17713816.12143 -13792067.06842  22032226.522    22032222.668
  21431529.509   -23883268.77343 -18577510.79642  21431530.610    21431525.754
  22685155.282   -11664804.98343  -9048637.51542  22685156.051    22685152.732
  20347860.579   -28729509.74744 -22382196.96542  20347862.047    20347858.002
  22901599.351   -11947517.42643  -9302102.30742  22901600.740    22901596.708
  24794504.732    -5018141.79743  -3877194.24242  24794505.851    24794503.139
  24334276.518    -7024848.73343  -5266010.56042  24334277.697    24334273.640
 04  1  8  1 41  0.0000000  0 10G29G17G26G30G21G10G 6G18G 5G16
  23371614.155    -9259000.59543  -7207023.96542  23371615.928    23371612.031
  22464680.068   -14779964.55443 -11508689.78042  22464680.481    22464677.185
  23167220.774   -12272873.17543  -9532142.94942  23167222.737    23167219.242
  22049712.241   -17621918.58543 -13720458.58842  22049714.092    22049710.160
  21423294.177   -23926545.70143 -18611233.04642  21423295.240    21423290.393
  22702412.987   -11574115.23743  -8977970.16942  22702413.694    22702410.418
  20345342.260   -28742743.53444 -22392508.98842  20345343.724    20345339.686
  22882727.816   -12046687.87643  -9379377.93242  22882729.216    22882725.107
  24815029.061    -4910285.73743  -3793150.56842  24815030.116    24815027.476
  24318940.455    -7105439.69843  -5328808.68442  24318941.726    24318937.753
 04  1  8  1 41 30.0000000  0  9G29G17G26G30G21G10G 6G18G16
  23363504.639    -9301616.45543  -7240231.09042  23363506.405    23363502.519
  22476711.285   -14716740.09443 -11459423.96342  22476711.681    22476708.417
  23152455.683   -12350463.65343  -9592602.98742  23152457.723    23152454.163
  22067251.936   -17529746.71143 -13648636.37642  22067253.775    22067249.965
  21415099.837   -23969607.17043 -18644787.40642  21415100.896    21415096.045
  22719728.996   -11483118.96743  -8907063.98342  22719729.724    22719726.415
  20342895.585   -28755600.86844 -22402527.68042  20342897.028    20342893.001
  22863901.199   -12145622.33243  -9456469.66942  22863902.568    22863898.388
  24303672.200    -7185674.65843  -5391329.40242  24303673.507    24303669.502
 04  1  8  1 42  0.0000000  0  9G29G17G26G30G21G10G 6G18G16
  23355472.335    -9343826.06743  -7273121.64242  23355474.150    23355470.244
  22488760.627   -14653420.44643 -11410083.97442  22488760.972    22488757.736
  23137746.575   -12427760.37443  -9652834.10642  23137748.585    23137744.969
  22084843.933   -17437300.08643 -13576600.04742  22084845.798    22084841.937
  21406947.087   -24012449.97543 -18678171.38442  21406948.152    21406943.285
  22737103.404   -11391815.66743  -8835918.54142  22737104.135    22737100.842
  20340521.413   -28768077.07944 -22412249.39442  20340522.864    20340518.855
  22845120.451   -12244315.54043  -9533373.40942  22845121.824    22845117.722
  24288472.822    -7265547.91443  -5453568.27842  24288474.127    24288470.104
 04  1  8  1 42 30.0000000  0  9G29G17G26G30G21G10G 6G18G16
  23347516.757    -9385632.97643  -7305698.42342  23347518.516    23347514.597
  22500826.802   -14590012.05243 -11360674.82242  22500827.175    22500823.984
  23123092.842   -12504765.98243  -9712838.40042  23123094.839    23123091.233
  22102486.551   -17344587.69943 -13504356.64742  22102488.398    22102484.611
  21398834.807   -24055080.22743 -18711389.72942  21398835.873    21398830.979
  22754534.573   -11300214.26143  -8764540.80542  22754535.310    22754531.993
  20338218.894   -28780176.81544 -22421677.74542  20338220.350    20338216.332
  22826384.926   -12342771.41743  -9610092.24142  22826386.290    22826382.014
  24273341.552    -7345063.24443  -5515528.24042  24273342.824    24273338.796
 04  1  8  1 43  0.0000000  0  9G29G17G26G30G21G10G 6G18G16
  23339637.825    -9427036.84343  -7337961.13742  23339639.658    23339635.718
  22512909.444   -14526517.61643 -11311198.62642  22512909.777    22512906.592
  23108494.817   -12581478.85943  -9772614.59142  23108496.854    23108493.215
  22120178.757   -17251614.35843 -13431909.89442  22120180.587    22120176.807
  21390762.612   -24097499.76143 -18744443.88642  21390763.677    21390758.782
  22772021.566   -11208319.44543  -8692934.44742  22772022.305    22772018.967
  20335987.923   -28791900.58144 -22430813.13742  20335989.377    20335985.353
  22807694.635   -12440989.53443  -9686625.79442  22807695.964    22807691.775
  24258278.512    -7424220.16643  -5577208.92442  24258279.667    24258275.703
 04  1  8  1 43 30.0000000  0  9G29G17G26G30G21G10G 6G18G16
  23331837.766    -9468025.92243  -7369900.63342  23331839.607    23331835.695
  22525010.053   -14462928.49643 -11261648.65042  22525010.353    22525007.190
  23093954.993   -12657885.94843  -9832152.53742  23093957.001    23093953.314
  22137922.003   -17158373.50343 -13359254.68742  22137923.808    22137919.999
  21382732.172   -24139699.88343 -18777327.06842  21382733.238    21382728.324
  22789565.683   -11116124.56543  -8621094.26642  22789566.406    22789563.062
  20333830.580   -28803237.56144 -22439647.13442  20333832.016    20333827.979
  22789051.806   -12538958.21643  -9762964.98342  22789053.126    22789048.874
  24243285.861    -7503006.74343  -5638601.01642  24243287.047    24243283.083
 04  1  8  1 44  0.0000000  0  9G29G17G26G30G21G10G 6G18G16
  23324115.524    -9508606.50943  -7401521.82342  23324117.376    23324113.401
  22537126.902   -14399253.92143 -11212032.08642  22537127.193    22537124.076
  23079472.351   -12733992.43643  -9891456.21442  23079474.332    23079470.657
  22155713.726   -17064876.92443 -13286400.23142  22155715.553    22155711.822
  21374741.764   -24181689.65943 -18810046.34642  21374742.819    21374737.900
  22807164.651   -11023641.32843  -8549029.38442  22807165.393    22807162.020
  20331745.382   -28814195.26944 -22448185.60042  20331746.806    20331742.782
  22770455.107   -12636684.10543  -9839114.98242  22770456.466    22770452.216
  24228362.547    -7581429.17843  -5699709.37942  24228363.734    24228359.725
 04  1  8  1 44 30.0000000  0  9G29G17G26G30G21G10G 6G18G16
  23316472.541    -9548770.73043  -7432818.57342  23316474.315    23316470.404
  22549260.968   -14335488.90643 -11162345.04442  22549261.280    22549258.137
  23065048.696   -12809789.18843  -9950518.56142  23065050.645    23065046.973
  22173554.807   -16971121.75343 -13213344.25342  22173556.659    22173552.850
  21366792.519   -24223463.08643 -18842597.04142  21366793.591    21366788.653
  22824819.091   -10930866.64643  -8476737.41842  22824819.799    22824816.443
  20329733.759   -28824766.40944 -22456422.84242  20329735.159    20329731.144
  22751906.239   -12734159.25643  -9915069.60242  22751907.567    22751903.335
  24213510.000    -7659479.64943  -5760527.88342  24213511.165    24213507.140
 04  1  8  1 45  0.0000000  0  9G29G17G26G30G21G10G 6G18G16
  23308908.655    -9588518.93743  -7463791.16542  23308910.438    23308906.541
  22561411.629   -14271636.76443 -11112590.11942  22561411.927    22561408.765
  23050684.096   -12885275.48043 -10009338.97942  23050686.016    23050682.324
  22191443.896   -16877113.54443 -13140091.12942  22191445.755    22191442.088
  21358883.868   -24265023.25043 -18874981.55542  21358884.950    21358880.000
  22842527.928   -10837806.09443  -8404222.68842  22842528.644    22842525.251
  20327795.430   -28834952.43644 -22464360.00042  20327796.822    20327792.809
  22733404.859   -12831384.28843  -9990829.33342  22733406.154    22733401.863
  24198728.272    -7737158.16943  -5821056.56342  24198729.407    24198725.430
 04  1  8  1 45 30.0000000  0  9G29G17G26G30G21G10G 6G18G16
  23301424.378    -9627848.75743  -7494437.73942  23301426.220    23301422.289
  22573578.759   -14207697.90543 -11062767.62142  22573579.094    22573575.935
  23036379.289   -12960447.68943 -10067914.68142  23036381.154    23036377.504
  22209380.694   -16782855.21943 -13066643.07242  22209382.536    22209378.771
  21351015.840   -24306369.95643 -18907199.73742  21351016.912    21351011.968
  22860290.664   -10744462.43243  -8331487.35542  22860291.370    22860287.933
  20325930.629   -28844751.99644 -22471996.01042  20325932.043    20325927.988
  22714951.618   -12928356.70843 -10066392.21042  22714952.914    22714948.702
  24184017.742    -7814462.41943  -5881293.59942  24184018.825    24184014.848
 04  1  8  1 46  0.0000000  0  9G29G17G26G30G21G10G 6G18G16
  23294020.538    -9666755.95443  -7524754.99942  23294022.368    23294018.450
  22585762.640   -14143671.06743 -11012876.57042  22585762.972    22585759.813
  23022135.315   -13035300.21143 -10126241.26142  23022137.186    23022133.522
  22227364.856   -16688347.82643 -12993000.98342  22227366.685    22227363.043
  21343188.711   -24347501.52943 -18939250.28242  21343189.809    21343184.880
  22878107.077   -10650836.53843  -8258532.09542  22878107.751    22878104.360
  20324140.001   -28854161.70844 -22479328.24442  20324141.416    20324137.377
  22696547.140   -13025072.58043 -10141755.18542  22696548.428    22696544.138
  24169379.270    -7891388.19243  -5941235.72242  24169380.335    24169376.293
 04  1  8  1 46 30.0000000  0  9G29G17G26G30G21G10G 6G18G16
  23286697.018    -9705241.08643  -7554743.37942  23286698.783    23286694.919
  22597962.615   -14079559.52043 -10962919.51242  22597962.971    22597959.817
  23007952.265   -13109832.30443 -10184318.15142  23007954.170    23007950.401
  22245395.385   -16593596.82643 -12919169.03142  22245397.218    22245393.481
  21335402.078   -24388420.48743 -18971135.15442  21335403.165    21335398.225
  22895976.113   -10556933.93143  -8185361.21442  22895976.802    22895973.404
  20322423.308   -28863182.91744 -22486357.74642  20322424.734    20322420.685
  22678191.445   -13121532.46943 -10216918.68642  22678192.718    22678188.464
  24154812.736    -7967935.71343  -6000883.09642  24154813.784    24154809.706
 04  1  8  1 47  0.0000000  0  9G29G17G26G30G21G10G 6G18G16
  23279454.500    -9743300.89843  -7584400.34942  23279456.227    23279452.337
  22610178.882   -14015362.74443 -10912896.04642  22610179.203    22610176.045
  22993831.089   -13184039.34343 -10242141.75042  22993832.939    22993829.196
  22263471.926   -16498604.15643 -12845148.77842  22263473.739    22263470.083
  21327655.988   -24429126.34544 -19002853.97542  21327657.074    21327652.127
  22913897.505   -10462756.27843  -8111976.01742  22913898.193    22913894.813
  20320781.011   -28871813.24244 -22493082.67142  20320782.443    20320778.374
  22659884.990   -13217733.15443 -10291880.21642  22659886.244    22659881.987
  24140318.838    -8044101.69143  -6060233.16942  24140319.858    24140315.810
 04  1  8  1 47 30.0000000  0  9G29G17G26G30G21G10G 6G18G16
  23272293.453    -9780932.37043  -7613723.54442  23272295.133    23272291.274
  22622411.328   -13951080.79843 -10862806.20142  22622411.653    22622408.492
  22979772.541   -13257917.28443 -10299708.90842  22979774.394    22979770.566
  22281593.902   -16403372.06743 -12770941.95442  22281595.768    22281592.128
  21319950.520   -24469618.73944 -19034406.46242  21319951.617    21319946.631
  22931870.838   -10368305.72143  -8038378.16142  22931871.512    22931868.139
  20319213.486   -28880050.72644 -22499501.47442  20319214.898    20319210.809
  22641628.514   -13313671.39143 -10366637.24442  22641629.750    22641625.513
  24125898.045    -8119882.94443  -6119283.45542  24125899.186    24125895.089
 04  1  8  1 48  0.0000000  0  9G29G17G26G30G21G10G 6G18G16
  23265214.124    -9818134.29943  -7642712.03042  23265215.854    23265211.943
  22634659.649   -13886715.18043 -10812651.16442  22634660.024    22634656.865
  22965777.194   -13331463.35743 -10357017.49042  22965779.013    22965775.124
  22299760.870   -16307904.43043 -12696551.58342  22299762.739    22299759.011
  21312285.481   -24509898.73144 -19065793.43742  21312286.588    21312281.587
  22949895.404   -10273585.93643  -7964570.53042  22949896.062    22949892.689
  20317720.763   -28887895.03344 -22505613.91242  20317722.201    20317718.081
  22623422.159   -13409346.20443 -10441188.99042  22623423.389    22623419.203
  24111550.847    -8195277.95143  -6178032.76542  24111551.934    24111547.895
 04  1  8  1 48 30.0000000  0  9G29G17G26G30G21G10G 6G18G16
  23258217.253    -9854903.20743  -7671363.09042  23258218.936    23258215.061
  22646924.059   -13822265.29043 -10762430.46442  22646924.427    22646921.271
  22951845.829   -13404673.08843 -10414063.98142  22951847.617    22951843.797
  22317972.187   -16212202.97343 -12621979.05542  22317974.066    22317970.459
  21304660.932   -24549965.88244 -19097014.56142  21304662.049    21304657.018
  22967970.892   -10178598.53343  -7890554.35542  22967971.543    22967968.160
  20316303.312   -28895343.73144 -22511418.07642  20316304.756    20316300.620
  22605266.445   -13504754.72043 -10515533.25442  22605267.678    22605263.467
  24097277.741    -8270283.31343  -6236478.46342  24097278.835    24097274.834
 04  1  8  1 49  0.0000000  0 10G29G17G26G15G30G21G10G 6G18G16
  23251300.220    -9891252.31743  -7699687.04342  23251301.917    23251298.000
  22659201.490   -13757746.85543 -10712156.34842  22659201.880    22659198.704
  22937976.278   -13477558.11443 -10470857.46942  22937978.039    22937974.171
  24734769.485    -5564012.02953  -4325463.36252  24734769.993    24734768.567
  22336224.723   -16116285.87743 -12547238.45742  22336226.561    22336222.782
  21297074.162   -24589834.46344 -19128080.95942  21297075.286    21297070.247
  22986093.870   -10083361.38943  -7816343.57342  22986094.561    22986091.163
  20314958.500   -28902410.68644 -22516924.78642  20314959.942    20314955.815
  22587158.954   -13599909.99543 -10589680.16442  22587160.223    22587156.088
  24083076.266    -8344912.07243  -6294630.70942  24083077.470    24083073.401
 04  1  8  1 49 30.0000000  0 10G29G17G26G15G30G21G10G 6G18G16
  23244469.230    -9927149.09643  -7727658.51042  23244470.923    23244467.009
  22671497.619   -13693130.22043 -10661805.70642  22671498.006    22671494.801
  22924174.887   -13550084.69043 -10527371.63342  22924176.677    22924172.695
  24719294.829    -5645331.61843  -4388829.21342  24719295.280    24719294.072
  22354523.263   -16020125.73043 -12472308.50742  22354525.155    22354521.570
  21289530.887   -24629474.59343 -19158969.34542  21289532.008    21289526.951
  23004269.516    -9987847.49543  -7741917.15242  23004270.230    23004266.845
  20313692.359   -28909064.31144 -22522109.42042  20313693.786    20313689.657
  22569105.804   -13694779.56443 -10663604.46642  22569107.079    22569102.870
  24068952.787    -8419131.43443  -6352463.93142  24068954.037    24068949.853
 04  1  8  1 50  0.0000000  0 10G29G17G26G15G30G21G10G 6G18G16
  23237721.497    -9962608.83543  -7755289.44142  23237723.151    23237719.192
  22683809.098   -13628432.99443 -10611392.27042  22683809.474    22683806.268
  22910439.035   -13622266.77143 -10583617.36142  22910440.893    22910436.856
  24703835.927    -5726568.26643  -4452130.42642  24703836.307    24703835.319
  22372864.338   -15923742.94643 -12397205.02242  22372866.245    22372862.543
  21282027.720   -24668903.91744 -19189693.46842  21282028.848    21282023.777
  23022494.108    -9892076.66043  -7667290.51442  23022494.813    23022491.417
  20312501.788   -28915320.65844 -22526984.48542  20312503.231    20312499.107
  22551104.218   -13789378.47043 -10737317.85442  22551105.484    22551101.302
  24054904.326    -8492956.48443  -6409989.91042  24054905.597    24054901.377
 04  1  8  1 50 30.0000000  0 10G29G17G26G15G30G21G10G 6G18G16
  23231057.137    -9997630.10343  -7782578.70142  23231058.802    23231054.817
  22696135.549   -13563656.78843 -10560917.29142  22696135.962    22696132.751
  22896769.262   -13694101.53643 -10639592.46242  22896771.195    22896767.071
  24688392.749    -5807722.32143  -4515367.32342  24688393.252    24688392.010
  22391247.049   -15827140.95143 -12321930.77142  22391248.954    22391245.364
  21274564.500   -24708123.39344 -19220254.06742  21274565.592    21274560.527
  23040766.886    -9796052.73743  -7592466.66342  23040767.537    23040764.169
  20311386.944   -28921179.10244 -22531549.49742  20311388.404    20311384.264
  22533154.308   -13883705.24443 -10810819.18242  22533155.597    22533151.422
  24040931.210    -8566385.56743  -6467207.33842  24040932.539    24040928.194
 04  1  8  1 51  0.0000000  0 10G29G17G26G15G30G21G10G 6G18G16
  23224476.613   -10032210.85443  -7809524.69942  23224478.295    23224474.266
  22708476.992   -13498802.02543 -10510381.11242  22708477.379    22708474.204
  22883166.247   -13765585.61043 -10695294.26242  22883168.144    22883164.149
  24672965.141    -5888794.30943  -4578540.26742  24672965.807    24672964.472
  22409670.945   -15730322.94743 -12246488.17642  22409672.826    22409669.241
  21267141.083   -24747133.50744 -19250651.52842  21267142.177    21267137.136
  23059087.263    -9699778.29343  -7517447.60242  23059087.932    23059084.564
  20310348.024   -28926638.64344 -22535803.67342  20310349.476    20310345.343
  22515256.599   -13977758.31543 -10884107.24742  22515257.904    22515253.698
  24027033.788    -8639416.64943  -6524114.64342  24027035.096    24027030.739
 04  1  8  1 51 30.0000000  0 10G29G17G26G15G30G21G10G 6G18G16
  23217981.669   -10066341.59843  -7836120.05442  23217983.405    23217979.336
  22720834.610   -13433862.01443 -10459778.50142  22720835.067    22720831.841
  22869632.034   -13836708.21043 -10750714.42742  22869633.908    22869629.936
  24657554.707    -5969776.62543  -4641643.33142  24657555.296    24657553.863
  22428136.716   -15633284.52943 -12170873.82242  22428138.569    22428134.995
  21259758.984   -24785926.61644 -19280879.89842  21259760.076    21259755.008
  23077456.236    -9603248.62843  -7442229.66442  23077456.940    23077453.568
  20309386.664   -28931690.62344 -22539740.27342  20309388.123    20309383.957
  22497412.832   -14071527.65143 -10957174.21042  22497414.116    22497409.962
  24013213.993    -8712040.07643  -6580704.28942  24013215.326    24013210.952
 04  1  8  1 52  0.0000000  0 10G29G17G26G15G30G21G10G 6G18G16
  23211570.970   -10100029.88743  -7862370.63242  23211572.679    23211568.650
  22733206.679   -13368846.45043 -10409117.02642  22733207.115    22733203.867
  22856165.498   -13907475.20743 -10805857.49742  22856167.337    22856163.344
  24642159.635    -6050678.08243  -4704683.38242  24642160.176    24642158.713
  22446642.165   -15536037.89443 -12095097.24642  22446644.016    22446640.519
  21252416.340   -24824512.44943 -19310946.75742  21252417.412    21252412.320
  23095871.468    -9506475.91243  -7366822.33142  23095872.147    23095868.746
  20308501.310   -28936343.22044 -22543365.66142  20308502.755    20308498.598
  22479621.586   -14165020.94143 -11030026.08742  22479622.855    22479618.674
  23999470.422    -8784262.84643  -6636981.73742  23999471.746    23999467.418
 04  1  8  1 52 30.0000000  0 10G29G17G26G15G30G21G10G 6G18G16
  23205245.607   -10133269.66943  -7888271.73542  23205247.391    23205243.283
  22745593.710   -13303752.16643 -10358394.17942  22745594.138    22745590.846
  22842767.920   -13977879.59043 -10860718.01642  22842769.760    22842765.799
  24626780.637    -6131494.95243  -4767657.47942  24626781.228    24626779.738
  22465187.323   -15438582.30343 -12019157.81442  22465189.194    22465185.591
  21245113.813   -24862887.33344 -19340849.23642  21245114.882    21245109.794
  23114333.091    -9409459.36143  -7291225.00142  23114333.795    23114330.415
  20307692.904   -28940591.46644 -22546675.97142  20307694.323    20307690.163
  22461884.101   -14258232.25243 -11102658.22542  22461885.335    22461881.167
  23985804.220    -8856079.02043  -6692942.35842  23985805.549    23985801.183
 04  1  8  1 53  0.0000000  0 10G29G17G26G15G30G21G10G 6G18G16
  23199006.483   -10166056.38343  -7913819.78842  23199008.240    23199004.201
  22757996.087   -13238577.19743 -10307608.47642  22757996.538    22757993.227
  22829440.549   -14047915.17243 -10915291.15342  22829442.342    22829438.415
  24611418.165    -6212224.67643  -4830563.67142  24611418.894    24611417.353
  22483772.215   -15340918.08543 -11943055.84542  22483774.076    22483770.549
  21237851.830   -24901049.22044 -19370585.74342  21237852.893    21237847.801
  23132841.101    -9312199.12343  -7215437.78742  23132841.789    23132838.370
  20306962.158   -28944431.43244 -22549668.13542  20306963.583    20306959.433
  22444201.077   -14351156.78943 -11175066.91442  22444202.322    22444198.090
  23972216.341    -8927483.78343  -6748582.41042  23972217.593    23972213.284
 04  1  8  1 53 30.0000000  0 10G29G17G26G15G30G21G10G 6G18G16
  23192852.994   -10198392.99143  -7939017.12742  23192854.752    23192850.680
  22770412.757   -13173327.04043 -10256764.18642  22770413.199    22770409.873
  22816183.023   -14117583.63243 -10969578.22142  22816184.794    22816180.894
  24596071.401    -6292871.93043  -4893405.60242  24596072.232    24596070.568
  22502395.358   -15243053.04943 -11866797.38342  22502397.205    22502393.591
  21230629.481   -24939002.83843 -19400159.96842  21230630.521    21230625.439
  23151394.000    -9214702.68643  -7139466.52242  23151394.699    23151391.288
  20306308.432   -28947866.80344 -22552345.03842  20306309.848    20306305.696
  22426572.104   -14443797.55443 -11247254.47742  22426573.390    22426569.193
  23958706.254    -8998479.68043  -6803903.85942  23958707.504    23958703.182
 04  1  8  1 54  0.0000000  0 10G29G17G26G15G30G21G10G 6G18G16
  23186786.136   -10230274.59843  -7963859.90942  23186787.884    23186783.818
  22782844.221   -13107999.06843 -10205859.25842  22782844.694    22782841.344
  22802996.644   -14186878.57643 -11023574.25142  22802998.336    22802994.417
  24580740.949    -6373433.83843  -4956181.05442  24580741.850    24580740.176
  22521056.630   -15144987.33343 -11790382.53942  22521058.446    22521054.846
  21223447.287   -24976745.49543 -19429569.80542  21223448.294    21223443.206
  23169991.932    -9116970.03443  -7063311.18642  23169992.606    23169989.171
  20305732.456   -28950893.59444 -22554703.57542  20305733.857    20305729.697
  22408998.023   -14536149.76143 -11319217.20542  22408999.294    22408994.983
  23945274.884    -9069061.88743  -6858902.95442  23945276.145    23945271.760
 04  1  8  1 54 30.0000000  0 10G29G17G26G15G30G21G10G 6G18G16
  23180805.845   -10261701.08343  -7988348.05542  23180807.593    23180803.528
  22795290.107   -13042595.72443 -10154895.60242  22795290.557    22795287.201
  22789881.593   -14255798.30143 -11077277.88442  22789883.340    22789879.395
  24565426.482    -6453911.91043  -5018891.18842  24565427.395    24565425.663
  22539755.319   -15046725.64143 -11713815.01242  22539757.062    22539753.529
  21216304.876   -25014279.10044 -19458816.74842  21216305.862    21216300.776
  23188633.895    -9019005.76743  -6986975.38142  23188634.585    23188631.113
  20305234.084   -28953512.38744 -22556744.17942  20305235.522    20305231.363
  22391478.929   -14628213.00643 -11390954.74242  22391480.231    22391475.982
  23931922.396    -9139229.70943  -6913579.15442  23931923.600    23931919.213
 04  1  8  1 55  0.0000000  0 10G29G17G26G15G30G21G10G 6G18G16
  23174913.020   -10292668.06643  -8012478.15642  23174914.770    23174910.666
  22807750.665   -12977115.09043 -10103871.71942  22807751.076    22807747.766
  22776839.004   -14324337.21243 -11130684.77942  22776840.796    22776836.829
  24550128.449    -6534303.58743  -5081534.01842  24550129.390    24550127.457
  22558491.018   -14948268.51443 -11637095.16542  22558492.800    22558489.181
  21209202.624   -25051601.62643 -19487899.20942  21209203.597    21209198.497
  23207319.854    -8920810.29343  -6910459.41742  23207320.539    23207317.092
  20304814.062   -28955719.60644 -22558464.08742  20304815.486    20304811.342
  22374015.759   -14719982.84743 -11462463.67942  22374017.032    22374012.656
  23918649.558    -9208978.85943  -6967929.11242  23918650.737    23918646.380
 04  1  8  1 55 30.0000000  0 10G29G17G26G15G30G21G10G 6G18G16
  23169108.337   -10323171.66743  -8036247.18142  23169110.127    23169105.978
  22820226.217   -12911555.49243 -10052786.29642  22820226.627    22820223.335
  22763869.993   -14392489.80043 -11183790.65442  22763871.734    22763867.781
  24534847.224    -6614606.88543  -5144107.96042  24534848.185    24534846.159
  22577263.873   -14849616.93943 -11560223.82642  22577265.642    22577262.071
  21202140.866   -25088711.26044 -19516815.78442  21202141.859    21202136.753
  23226049.718    -8822384.20443  -6833763.74142  23226050.432    23226046.965
  20304473.011   -28957511.90344 -22559860.67842  20304474.410    20304470.268
  22356609.005   -14811455.29443 -11533740.84842  22356610.308    22356606.061
  23905457.242    -9278304.91743  -7021949.39342  23905458.388    23905454.043
 04  1  8  1 56  0.0000000  0 10G29G17G26G15G30G21G10G 6G18G16
  23163390.560   -10353218.59043  -8059660.34942  23163392.321    23163388.208
  22832715.008   -12845926.36443 -10001646.69642  22832715.437    22832712.160
  22750973.360   -14460261.65043 -11236599.82842  22750975.130    22750971.211
  24519581.135    -6694830.46543  -5206619.79342  24519582.205    24519580.065
  22596071.364   -14750782.64743 -11483210.09742  22596073.101    22596069.614
  21195117.964   -25125616.67744 -19545573.22642  21195118.979    21195113.853
  23244821.258    -8723739.07243  -6756897.39842  23244821.964    23244818.471
  20304209.435   -28958896.88744 -22560939.87942  20304210.856    20304206.713
  22339257.697   -14902637.12543 -11604791.59442  22339258.990    22339254.624
  23892344.120    -9347214.49943  -7075645.13742  23892345.360    23892341.015
 04  1  8  1 56 30.0000000  0 10G29G17G26G15G30G21G10G 6G18G16
  23157761.340   -10382799.87043  -8082710.66342  23157763.112    23157759.050
  22845218.216   -12780221.04543  -9950447.72342  22845218.729    22845215.442
  22738151.246   -14527641.98643 -11289103.95542  22738153.016    22738149.069
  24504331.668    -6774966.90143  -5269063.71842  24504332.737    24504330.520
  22614914.579   -14651761.29543 -11406050.59542  22614916.312    22614912.729
  21188135.261   -25162310.86944 -19574166.07642  21188136.302    21188131.144
  23263635.346    -8624870.36643  -6679856.82642  23263636.069    23263632.551
  20304024.972   -28959866.27044 -22561695.23542  20304026.372    20304022.229
  22321963.383   -14993518.89743 -11675608.51442  22321964.666    22321960.400
  23879312.131    -9415698.29243  -7129009.11042  23879313.343    23879308.932
 04  1  8  1 57  0.0000000  0 10G29G17G26G15G30G21G10G 6G18G16
  23152221.342   -10411912.69743  -8105395.95942  23152223.104    23152219.063
  22857736.156   -12714438.84243  -9899188.84042  22857736.673    22857733.348
  22725404.391   -14594626.76643 -11341299.84542  22725406.188    22725402.264
  24489098.901    -6855015.39143  -5331439.08442  24489099.912    24489097.752
  22633792.848   -14552555.01643 -11328747.01642  22633794.580    22633791.155
  21181192.871   -25198793.26744 -19602593.89242  21181193.917    21181188.757
  23282491.506    -8525780.33243  -6602643.79142  23282492.267    23282488.763
  20303919.931   -28960418.17644 -22562125.27842  20303921.333    20303917.186
  22304726.720   -15084097.99243 -11746189.57942  22304728.002    22304723.722
  23866361.738    -9483753.06543  -7182038.77142  23866362.902    23866358.525
 04  1  8  1 57 30.0000000  0 10G29G17G26G15G30G21G10G 6G18G16
  23146769.962   -10440559.81143  -8127718.36742  23146771.687    23146767.639
  22870267.791   -12648584.86343  -9847874.04142  22870268.256    22870264.922
  22712732.567   -14661217.28743 -11393188.52042  22712734.392    22712730.465
  24473882.035    -6934980.38843  -5393749.42542  24473883.036    24473880.849
  22652704.937   -14453171.50043 -11251305.31142  22652706.674    22652703.103
  21174289.911   -25235068.56444 -19630860.33742  21174290.961    21174285.762
  23301388.444    -8426476.09143  -6525263.84642  23301389.195    23301385.749
  20303893.677   -28960556.02444 -22562232.68442  20303895.097    20303890.956
  22287547.171   -15174377.21243 -11816536.99842  22287548.458    22287544.113
  23853492.490    -9551381.55443  -7234736.27242  23853493.615    23853489.240
 04  1  8  1 58  0.0000000  0 10G29G17G26G15G30G21G10G 6G18G16
  23141408.008   -10468736.84743  -8149674.47242  23141409.765    23141405.705
  22882813.411   -12582657.09543  -9796501.72042  22882813.915    22882810.540
  22700136.973   -14727407.39943 -11444765.20342  22700138.774    22700134.884
  24458681.589    -7014859.02543  -5455992.48342  24458682.571    24458680.371
  22671650.669   -14353610.81343 -11173725.58242  22671652.417    22671648.930
  21167426.854   -25271134.05244 -19658963.29142  21167427.896    21167422.702
  23320326.140    -8326957.77743  -6447717.08942  23320326.877    23320323.443
  20303946.954   -28960276.01644 -22562014.48942  20303948.360    20303944.233
  22270425.487   -15264351.70643 -11886646.93342  22270426.793    22270422.541
  23840705.247    -9618578.95243  -7287097.85642  23840706.298    23840701.927
 04  1  8  1 58 30.0000000  0 10G29G17G26G15G30G21G10G 6G18G16
  23136135.564   -10496443.61943  -8171264.14042  23136137.302    23136133.260
  22895372.689   -12516657.61043  -9745073.53642  22895373.190    22895369.823
  22687617.908   -14793195.40343 -11496028.54842  22687619.665    22687615.762
  24443497.325    -7094652.73943  -5518169.36542  24443498.363    24443496.089
  22690629.305   -14253877.74843 -11096011.52442  22690631.040    22690627.519
  21160603.293   -25306992.04944 -19686904.56942  21160604.326    21160599.133
  23339303.734    -8227229.68343  -6370006.84642  23339304.482    23339301.075
  20304079.626   -28959578.72344 -22561471.13842  20304081.055    20304076.913
  22253361.978   -15354021.07743 -11956519.15042  22253363.295    22253358.957
  23828000.084    -9685344.92343  -7339123.26342  23828001.179    23827996.827
 04  1  8  1 59  0.0000000  0 10G29G17G26G15G30G21G10G 6G18G16
  23130953.223   -10523677.20243  -8192485.07842  23130954.925    23130950.883
  22907945.667   -12450585.94543  -9693589.09742  22907946.199    22907942.857
  22675176.109   -14858577.31543 -11546975.46642  22675177.888    22675173.950
  24428329.379    -7174360.66243  -5580279.39042  24428330.369    24428328.149
  22709640.275   -14153974.12543 -11018164.52742  22709642.044    22709638.482
  21153819.444   -25342641.34244 -19714683.22142  21153820.483    21153815.265
  23358320.980    -8127293.46843  -6292134.46442  23358321.709    23358318.282
  20304292.105   -28958462.16344 -22560601.07942  20304293.527    20304289.375
  22236356.999   -15443382.62143 -12026151.46242  22236358.307    22236354.039
  23815377.614    -9751676.27043  -7390810.00942  23815378.721    23815374.381
 04  1  8  1 59 30.0000000  0 10G29G17G26G15G30G21G10G 6G18G16
  23125861.147   -10550436.08343  -8213336.13642  23125862.882    23125858.811
  22920532.296   -12384442.47243  -9642048.71342  22920532.811    22920529.513
  22662812.235   -14923549.89743 -11597603.43342  22662814.012    22662810.079
  24413177.806    -7253982.70643  -5642322.50242  24413178.756    24413176.516
  22728683.190   -14053903.08943 -10940187.11742  22728684.969    22728681.435
  21147075.202   -25378082.45744 -19742299.65442  21147076.223    21147071.024
  23377377.262    -8027151.90443  -6214102.05842  23377378.001    23377374.587
  20304584.515   -28956925.45444 -22559403.63142  20304585.941    20304581.795
  22219410.955   -15532434.57643 -12095542.56442  22219412.234    22219407.938
  23802838.220    -9817570.94143  -7442156.48142  23802839.383    23802835.011
 04  1  8  2  0  0.0000000  0 10G29G17G26G15G30G21G10G 6G18G16
  23120860.120   -10576716.58043  -8233814.43042  23120861.820    23120857.740
  22933132.944   -12318225.62343  -9590451.15342  22933133.417    22933130.183
  22650527.255   -14988107.81543 -11647908.25742  22650529.024    22650525.100
  24398042.932    -7333516.94143  -5704297.15242  24398043.771    24398041.617
  22747757.703   -13953665.68343 -10862080.04442  22747759.506    22747755.919
  21140370.956   -25413313.38244 -19769752.30742  21140371.997    21140366.781
  23396472.473    -7926805.94843  -6135910.39042  23396473.189    23396469.759
  20304957.448   -28954965.64044 -22557876.49442  20304958.875    20304954.728
  22202524.593   -15621172.78943 -12164689.17142  22202525.897    22202521.660
  23790382.727    -9883025.04843  -7493159.65042  23790383.879    23790379.478
 04  1  8  2  0 30.0000000  0 10G29G17G26G15G30G21G10G 6G18G16
  23115949.382   -10602522.66843  -8253923.03642  23115951.073    23115946.965
  22945746.313   -12251942.05943  -9538801.60542  22945746.725    22945743.524
  22638320.723   -15052253.77343 -11697892.08842  22638322.465    22638318.509
  24382923.762    -7412969.14443  -5766207.92742  24382924.449    24382922.246
  22766862.234   -13853270.66543 -10783850.16842  22766864.059    22766860.488
  21133705.527   -25448340.30144 -19797045.99142  21133706.565    21133701.361
  23415604.878    -7826264.21843  -6057566.15442  23415605.619    23415602.163
  20305410.005   -28952587.35344 -22556023.28342  20305411.445    20305407.300
  22185697.151   -15709601.22343 -12233594.41042  22185698.441    22185694.192
  23778010.283    -9948042.27743  -7543822.39842  23778011.491    23778007.100
 04  1  8  2  1  0.0000000  0 10G29G17G26G15G30G21G10G 6G18G16
  23111130.656   -10627845.10743  -8273654.78442  23111132.341    23111128.238
  22958373.787   -12185584.25443  -9487094.20542  22958374.187    22958370.996
  22626194.634   -15115976.68543 -11747546.25942  22626196.382    22626192.421
  24367821.619    -7492331.58643  -5828048.75842  24367822.226    24367819.947
  22785997.663   -13752713.35943 -10705493.84242  22785999.492    22785995.958
  21127080.360   -25483155.73344 -19824174.87542  21127081.372    21127076.176
  23434775.544    -7725521.57443  -5979065.37342  23434776.263    23434772.825
  20305943.840   -28949781.95144 -22553837.25342  20305945.285    20305941.125
  22168930.466   -15797710.58743 -12302251.01042  22168931.769    22168927.578
  23765722.835   -10012613.15543  -7594137.34842  23765724.039    23765719.661
 04  1  8  2  1 30.0000000  0 10G29G17G26G15G30G21G10G 6G18G16
  23106403.346   -10652687.04743  -8293012.12342  23106405.089    23106400.945
  22971014.382   -12119157.41143  -9435333.01642  22971014.764    22971011.576
  22614148.755   -15179278.26943 -11796872.12542  22614150.491    22614146.499
  24352735.671    -7571608.74043  -5889823.15242  24352736.249    24352733.891
  22805162.491   -13652001.41243 -10627016.98942  22805164.338    22805160.682
  21120494.494   -25517764.57544 -19851142.78542  21120495.523    21120490.311
  23453983.008    -7624585.78243  -5900414.08442  23453983.681    23453980.226
  20306558.248   -28946553.18044 -22551321.32842  20306559.684    20306555.542
  22152223.975   -15885503.66443 -12370661.16842  22152225.274    22152221.029
  23753519.875   -10076740.26743  -7644106.49642  23753521.057    23753516.643
 04  1  8  2  2  0.0000000  0 10G29G17G26G15G30G21G10G 6G18G16
  23101768.151   -10677045.12943  -8311992.41742  23101769.911    23101765.730
  22983668.348   -12052660.46243  -9383517.19642  22983668.667    22983665.453
  22602183.935   -15242153.65143 -11845865.89442  22602185.698    22602181.702
  24337666.181    -7650799.01943  -5951529.81942  24337666.806    24337664.510
  22824356.549   -13551136.26343 -10548420.77742  22824358.369    22824354.758
  21113948.224   -25552165.43944 -19877948.63042  21113949.239    21113944.015
  23473226.977    -7523457.68243  -5821612.93942  23473227.686    23473224.292
  20307253.744   -28942898.36144 -22548473.41142  20307255.158    20307251.011
  22135578.322   -15972976.88643 -12438822.07042  22135579.610    22135575.458
  23741401.994   -10140420.01643  -7693727.06142  23741403.146    23741398.818
 04  1  8  2  2 30.0000000  0 10G29G17G26G15G30G21G10G 6G18G16
  23097224.921   -10700920.11443  -8330596.28542  23097226.631    23097222.406
  22996335.013   -11986096.21043  -9331648.93542  22996335.373    22996332.197
  22590300.376   -15304602.08543 -11894526.97642  22590302.175    22590298.090
  24322612.761    -7729904.97543  -6013170.73942  24322613.351    24322611.169
  22843578.618   -13450123.40543 -10469709.48042  22843580.450    22843576.863
  21107441.024   -25586360.97244 -19904594.47842  21107442.010    21107436.808
  23492506.621    -7422142.38343  -5742665.92742  23492507.313    23492504.008
  20308029.982   -28938819.04244 -22545294.71142  20308031.430    20308027.271
  22118993.560   -16060130.50343 -12506733.95142  22118994.822    22118990.588
  23729369.164   -10203653.01543  -7742999.49442  23729370.302    23729365.970
 04  1  8  2  3  0.0000000  0 10G29G17G26G15G30G21G10G 6G18G16
  23092774.291   -10724308.07943  -8348820.63742  23092776.032    23092771.767
  23009015.003   -11919462.55043  -9279726.59042  23009015.335    23009012.109
  22578499.096   -15366617.90343 -11942850.96142  22578500.912    22578496.830
  24307575.944    -7808924.05243  -6074743.97942  24307576.501    24307574.393
  22862828.825   -13348963.07243 -10390883.22642  22862830.667    22862826.967
  21100973.302   -25620348.93544 -19931078.58442  21100974.285    21100969.091
  23511821.791    -7320640.26443  -5663573.34442  23511822.474    23511819.195
  20308887.677   -28934311.87444 -22541782.62342  20308889.104    20308884.946
  22102470.259   -16146960.66443 -12574393.76442  22102471.568    22102467.365
  23717422.221   -10266434.51943  -7791920.12042  23717423.335    23717419.024
 04  1  8  2  3 30.0000000  0 10G29G17G26G15G30G21G10G 6G18G16
  23088416.547   -10747208.34743  -8366664.97842  23088418.269    23088413.998
  23021707.980   -11852760.85343  -9227751.23142  23021708.280    23021704.991
  22566780.598   -15428198.98043 -11990836.18442  22566782.408    22566778.350
  24292555.467    -7887857.02443  -6136250.13242  24292556.007    24292553.970
  22882106.223   -13247659.44143 -10311945.35842  22882108.063    22882104.443
  21094544.916   -25654130.16044 -19957401.59642  21094545.910    21094540.740
  23531171.793    -7218955.04343  -5584338.08442  23531172.432    23531169.193
  20309826.768   -28929376.74644 -22537937.05942  20309828.209    20309824.072
  22086008.772   -16233466.36443 -12641800.77242  22086010.072    22086005.788
  23705561.380   -10328763.66643  -7840488.26642  23705562.481    23705558.164
 04  1  8  2  4  0.0000000  0 10G29G17G26G15G30G21G10G 6G18G16
  23084151.874   -10769619.06643  -8384127.83542  23084153.632    23084149.335
  23034413.665   -11785991.46843  -9175723.12942  23034414.059    23034410.734
  22555145.491   -15489341.91943 -12038480.01242  22555147.340    22555143.200
  24277551.386    -7966703.55543  -6197688.93242  24277551.943    24277549.871
  22901410.444   -13146215.21643 -10232897.90342  22901412.303    22901408.648
  21088155.807   -25687705.10744 -19983563.87842  21088156.784    21088151.616
  23550556.204    -7117089.27843  -5504962.14142  23550556.813    23550553.509
  20310847.568   -28924012.50744 -22533757.12242  20310848.989    20310844.847
  22069609.394   -16319645.57343 -12708953.35742  22069610.717    22069606.449
  23693786.942   -10390638.63943  -7888702.50442  23693788.017    23693783.670
 04  1  8  2  4 30.0000000  0 10G29G17G26G15G30G21G10G 6G18G16
  23079980.950   -10791537.01443  -8401206.72542  23079982.754    23079978.456
  23047132.600   -11719153.01243  -9123641.18942  23047133.016    23047129.674
  22543594.621   -15550041.88943 -12085778.68342  22543596.461    22543592.381
  24262564.102    -8045462.05443  -6259059.14742  24262564.558    24262562.591
  22920741.087   -13044631.55243 -10153741.80542  22920743.027    22920739.331
  21081806.372   -25721071.62544 -20009563.75042  21081807.333    21081802.163
  23569974.740    -7015043.91843  -5425446.25242  23569975.383    23569972.055
  20311950.515   -28918216.46444 -22529240.71742  20311951.948    20311947.785
  22053272.811   -16405494.63343 -12775848.69742  22053274.126    22053269.839
  23682099.666   -10452055.53943  -7936559.80042  23682100.798    23682096.409
 04  1  8  2  5  0.0000000  0 10G29G17G26G15G30G21G10G 6G18G16
  23075903.218   -10812965.46443  -8417904.18142  23075905.050    23075900.738
  23059863.705   -11652250.56143  -9071509.39842  23059864.154    23059860.785
  22532127.767   -15610300.48043 -12132733.40942  22532129.581    22532125.532
  24247592.696    -8124137.22943  -6320364.39842  24247593.129    24247591.171
  22940096.981   -12942916.13543 -10074483.06542  22940098.813    22940095.192
  21075495.570   -25754235.05044 -20035405.36642  21075496.531    21075491.352
  23589426.101    -6912826.12643  -5345795.99042  23589426.830    23589423.406
  20313134.929   -28911992.34744 -22524390.75142  20313136.361    20313132.185
  22036998.532   -16491016.50643 -12842489.07642  22036999.834    22036995.585
  23670498.998   -10513017.19343  -7984062.36042  23670500.127    23670495.724
 04  1  8  2  5 30.0000000  0 10G29G17G26G15G30G21G10G 6G18G16
  23071920.161   -10833896.46243  -8434214.02642  23071921.994    23071917.659
  23072608.124   -11585278.15643  -9019323.09942  23072608.562    23072605.211
  22520746.656   -15670108.30143 -12179336.88142  22520748.483    22520744.376
  24232638.427    -8202722.62043  -6381599.71442  24232638.848    24232636.829
  22959478.485   -12841065.64743  -9995119.03642  22959480.283    22959476.614
  21069224.574   -25787189.22544 -20061083.92742  21069225.533    21069220.372
  23608910.962    -6810432.45243  -5266008.68842  23608911.676    23608908.246
  20314402.156   -28905333.11944 -22519201.74342  20314403.562    20314399.381
  22020788.067   -16576203.14743 -12908868.24842  22020789.358    22020785.017
  23658986.569   -10573515.29743  -8031203.71042  23658987.695    23658983.276
 04  1  8  2  6  0.0000000  0 10G29G17G26G15G30G21G10G 6G18G16
  23068031.321   -10854332.42743  -8450138.11442  23068033.132    23068028.795
  23085364.967   -11518240.13743  -8967085.66842  23085365.457    23085362.110
  22509451.277   -15729465.99243 -12225589.60742  22509453.046    22509448.991
  24217700.407    -8281222.11143  -6442768.07742  24217700.841    24217698.840
  22978884.395   -12739086.89843  -9915655.07642  22978886.198    22978882.553
  21062992.666   -25819937.98444 -20086602.42342  21062993.639    21062988.475
  23628428.043    -6707869.51343  -5186089.48542  23628428.715    23628425.303
  20315751.643   -28898241.66144 -22513675.92942  20315753.032    20315748.829
  22004640.964   -16661056.51843 -12974987.70942  22004642.246    22004637.978
  23647561.925   -10633552.07243  -8077985.59142  23647563.046    23647558.621
 04  1  8  2  6 30.0000000  0 10G29G17G26G15G30G21G10G 6G18G16
  23064237.054   -10874271.45243  -8465674.99142  23064238.876    23064234.528
  23098134.452   -11451136.10343  -8914796.79942  23098134.911    23098131.514
  22498242.213   -15788370.00143 -12271488.80942  22498243.953    22498239.912
  24202778.896    -8359634.88943  -6503868.87042  24202779.375    24202777.227
  22998314.193   -12636982.22943  -9836093.01342  22998316.086    22998312.462
  21056799.920   -25852480.95344 -20111960.56842  21056800.914    21056795.725
  23647976.945    -6605139.09043  -5106039.78142  23647977.701    23647974.261
  20317183.625   -28890716.47444 -22507812.13542  20317185.033    20317180.822
  21988557.776   -16745574.20643 -13040845.62242  21988559.069    21988554.711
  23636225.556   -10693125.05043  -8124406.07342  23636226.701    23636222.193
 04  1  8  2  7  0.0000000  0 10G29G17G26G15G30G21G10G 6G18G16
  23060537.139   -10893714.45543  -8480825.35542  23060538.978    23060534.607
  23110915.858   -11383969.21843  -8862458.95642  23110916.336    23110912.942
  22487119.658   -15846819.65443 -12317033.97142  22487121.396    22487117.315
  24187873.448    -8437963.38443  -6564904.00242  24187873.827    24187871.742
  23017766.986   -12534757.27943  -9756437.20042  23017768.858    23017765.151
  21050645.812   -25884820.92044 -20137160.53042  21050646.799    21050641.602
  23667556.720    -6502246.50143  -5025863.70742  23667557.470    23667554.101
  20318697.829   -28882759.30444 -22501611.73242  20318699.243    20318695.018
  21972538.273   -16829757.17243 -13106442.69642  21972539.560    21972535.236
  23624977.315   -10752234.77843  -8170465.58242  23624978.484    23624974.009
 04  1  8  2  7 30.0000000  0 10G29G17G26G15G30G21G10G 6G18G16
  23056933.151   -10912652.96343  -8495582.61442  23056935.012    23056930.699
  23123710.538   -11316732.59643  -8810066.75842  23123711.065    23123707.658
  22476085.420   -15904805.02943 -12362217.35542  22476087.151    22476083.003
  24172985.325    -8516200.72843  -6625868.10042  24172985.721    24172983.677
  23037243.446   -12432407.80543  -9676684.38442  23037245.319    23037241.741
  21044531.669   -25916950.97744 -20162196.92342  21044532.643    21044527.439
  23687168.226    -6399187.37543  -4945557.86542  23687168.907    23687165.591
  20320295.731   -28874362.31544 -22495068.62242  20320297.117    20320292.909
  21956584.141   -16913596.59543 -13171772.08242  21956585.408    21956581.041
  23613818.907   -10810872.36443  -8216157.17842  23613820.108    23613815.623
 04  1  8  2  8  0.0000000  0 10G29G17G26G15G30G21G10G 6G18G16
  23053423.895   -10931094.28443  -8509952.44242  23053425.764    23053421.450
  23136516.733   -11249435.30943  -8757627.29342  23136517.328    23136513.905
  22465138.408   -15962331.66343 -12407043.27742  22465140.152    22465136.077
  24158112.869    -8594355.34843  -6686767.71942  24158113.387    24158111.398
  23056741.378   -12329945.22543  -9596843.41842  23056743.277    23056739.752
  21038455.829   -25948879.69044 -20187076.42742  21038456.818    21038451.587
  23706809.237    -6295973.14943  -4865131.17242  23706809.936    23706806.682
  20321975.879   -28865533.01044 -22488188.64442  20321977.280    20321973.064
  21940694.117   -16997099.14343 -13236838.95942  21940695.410    21940691.032
  23602749.094   -10869044.65343  -8261486.21742  23602750.276    23602745.772
 04  1  8  2  8 30.0000000  0 10G29G17G26G15G30G21G10G 6G18G16
  23050011.068   -10949028.85343  -8523927.40142  23050012.871    23050008.581
  23149336.007   -11182069.57543  -8705134.50642  23149336.612    23149333.162
  22454280.867   -16019388.38543 -12451503.04242  22454282.645    22454278.510
  24143257.709    -8672419.25443  -6747596.65142  24143258.179    24143256.219
  23076261.816   -12227364.58043  -9516910.42842  23076263.736    23076260.082
  21032419.770   -25980599.39144 -20211793.06042  21032420.751    21032415.498
  23726480.788    -6192598.22943  -4784579.26442  23726481.514    23726478.355
  20323739.972   -28856262.60644 -22480964.94742  20323741.367    20323737.174
  21924870.060   -17080255.06343 -13301635.75342  21924871.326    21924866.915
  23591769.659   -10926741.90243  -8306445.09142  23591770.849    23591766.300
 04  1  8  2  9  0.0000000  0 10G29G17G26G15G30G21G10G 6G18G16
  23046693.603   -10966462.42943  -8537511.98542  23046695.351    23046691.050
  23162166.884   -11114642.83443  -8652594.16942  23162167.485    23162164.059
  22443511.918   -16075979.38943 -12495599.89342  22443513.701    22443509.601
  24128418.415    -8750399.67543  -6808360.55142  24128418.928    24128416.975
  23095802.851   -12124675.86043  -9436893.26042  23095804.700    23095801.158
  21026422.123   -26012117.15844 -20236352.34442  21026423.118    21026417.835
  23746181.137    -6089072.13543  -4703909.54642  23746181.830    23746178.671
  20325586.834   -28846557.28444 -22473402.36242  20325588.214    20325584.025
  21909110.905   -17163069.68443 -13366166.58242  21909112.186    21909107.795
  23580879.684   -10983969.14043  -8351037.72242  23580880.834    23580876.279
 04  1  8  2  9 30.0000000  0 10G29G17G26G15G30G21G10G 6G18G16
  23043472.423   -10983389.68043  -8550702.03442  23043474.185    23043469.840
  23175010.049   -11047151.27943  -8600003.33142  23175010.685    23175007.299
  22432833.049   -16132097.29443 -12539328.09942  22432834.817    22432830.684
  24113595.985    -8828292.01443  -6869055.84442  24113596.501    24113594.428
  23115364.707   -12021877.86543  -9356790.93742  23115366.524    23115362.963
  21020463.651   -26043429.06644 -20260751.22042  21020464.664    21020459.364
  23765910.557    -5985393.60743  -4623121.06442  23765911.178    23765908.037
  20327517.379   -28836412.12644 -22465497.03942  20327518.784    20327514.580
  21893417.799   -17245537.27343 -13430427.01042  21893419.102    21893414.673
  23570080.229   -11040720.63443  -8395259.64542  23570081.407    23570076.828
 04  1  8  2 10  0.0000000  0 10G29G17G26G15G30G21G10G 6G18G16
  23040348.055   -10999808.07243  -8563495.56242  23040349.853    23040345.492
  23187865.715   -10979594.22743  -8547361.45542  23187866.345    23187862.961
  22422244.852   -16187738.29043 -12582684.68842  22422246.691    22422242.550
  24098790.409    -8906095.44543  -6929681.84442  24098790.943    24098788.897
  23134946.934   -11918972.44743  -9276604.89942  23134948.738    23134945.189
  21014544.449   -26074534.54744 -20284989.24342  21014545.479    21014540.175
  23785668.734    -5881563.76943  -4542214.67042  23785669.347    23785666.164
  20329531.984   -28825825.32044 -22457247.57742  20329533.379    20329529.172
  21877791.282   -17327655.01043 -13494414.82442  21877792.597    21877788.135
  23559371.767   -11096993.65943  -8439108.74442  23559372.974    23559368.455
 04  1  8  2 10 30.0000000  0 10G29G17G26G15G30G21G10G 6G18G16
  23037319.482   -11015723.42743  -8575897.10742  23037321.246    23037316.817
  23200732.356   -10911979.33243  -8494674.51342  23200733.039    23200729.616
  22411746.668   -16242906.49743 -12625672.86042  22411748.541    22411744.366
  24084000.390    -8983816.90943  -6990243.93642  24084000.973    24083998.916
  23154547.751   -11815969.71343  -9196343.03842  23154549.545    23154546.043
  21008663.176   -26105440.78744 -20309072.01142  21008664.204    21008658.894
  23805453.670    -5777592.68543  -4461198.20742  23805454.373    23805451.180
  20331629.398   -28814803.39244 -22448659.06542  20331630.799    20331626.572
  21862230.218   -17409428.63943 -13558134.49442  21862231.518    21862227.105
  23548753.409   -11152793.50843  -8482589.12842  23548754.565    23548750.047
 04  1  8  2 11  0.0000000  0 10G29G17G26G15G30G21G10G 6G18G16
  23034388.484   -11031126.08943  -8587899.15442  23034390.226    23034385.810
  23213611.631   -10844298.10743  -8441935.88142  23213612.327    23213608.905
  22401340.619   -16297590.53843 -12668283.77642  22401342.464    22401338.324
  24069227.673    -9061447.90243  -7050735.56642  24069228.252    24069226.129
  23174168.097   -11712864.02443  -9116000.95242  23174169.919    23174166.430
  21002821.548   -26136138.79944 -20332992.52342  21002822.570    21002817.237
  23825266.656    -5673474.72043  -4380067.30542  23825267.355    23825264.141
  20333811.407   -28803337.01144 -22439724.22342  20333812.774    20333808.565
  21846736.680   -17490847.67643 -13621577.86842  21846737.946    21846733.536
  23538226.967   -11208110.00143  -8525692.88042  23538228.141    23538223.664
 04  1  8  2 11 30.0000000  0 10G29G17G26G15G30G21G10G 6G18G16
  23031555.062   -11046015.57943  -8599501.32542  23031556.775    23031552.435
  23226503.320   -10776551.68843  -8389146.44642  23226504.018    23226500.552
  22391027.141   -16351788.12843 -12710515.62142  22391028.972    22391024.807
  24054472.031    -9138989.00843  -7111157.15842  24054472.615    24054470.426
  23193807.312   -11609659.06843  -9035581.50542  23193809.180    23193805.630
  20997019.291   -26166629.86444 -20356751.78142  20997020.323    20997014.964
  23845106.927    -5569212.95443  -4298824.34542  23845107.700    23845104.480
  20336077.991   -28791426.01344 -22430442.92142  20336079.364    20336075.142
  21831310.788   -17571911.13843 -13684744.17342  21831312.064    21831307.658
  23527792.754   -11262942.16243  -8568419.22242  23527793.865    23527789.405
 04  1  8  2 12  0.0000000  0 10G29G17G26G15G30G21G10G 6G18G16
  23028818.292   -11060397.39943  -8610707.91242  23028819.981    23028815.643
  23239406.056   -10708747.22743  -8336311.78942  23239406.754    23239403.326
  22380805.439   -16405503.19143 -12752371.47842  22380807.270    22380803.138
  24039732.144    -9216447.33243  -7171514.25642  24039732.710    24039730.555
  23213463.586   -11506364.78043  -8955092.46642  23213465.456    23213461.971
  20991255.048   -26196921.12244 -20380355.34542  20991256.070    20991250.714
  23864972.823    -5464816.76143  -4217476.64442  23864973.592    23864970.342
  20338428.014   -28779076.51544 -22420819.93242  20338429.395    20338425.167
  21815951.570   -17652624.01043 -13747637.28242  21815952.851    21815948.459
  23517449.720   -11317295.16743  -8610772.20742  23517450.801    23517446.333
 04  1  8  2 12 30.0000000  0 10G29G17G26G15G30G21G10G 6G18G16
  23026179.201   -11074265.88643  -8621514.50842  23026180.878    23026176.485
  23252320.641   -10640880.58243  -8283428.67042  23252321.334    23252317.913
  22370677.003   -16458728.34943 -12793845.59442  22370678.832    22370674.656
  24025008.834    -9293818.20543  -7231803.18442  24025009.357    24025007.386
  23233137.250   -11402979.23843  -8874532.31442  23233139.089    23233135.613
  20985529.729   -26227007.94344 -20403799.60742  20985530.717    20985525.366
  23884864.771    -5360284.19243  -4136022.67142  23884865.461    23884862.198
  20340862.510   -28766283.22844 -22410851.13342  20340863.870    20340859.651
  21800660.320   -17732980.00243 -13810252.31042  21800661.589    21800657.206
  23507199.072   -11371162.72343  -8652746.92242  23507200.126    23507195.669
 04  1  8  2 13  0.0000000  0 10G29G17G26G15G30G21G10G 6G18G16
  23023638.407   -11087617.62543  -8631918.43242  23023640.103    23023635.674
  23265247.503   -10572949.77443  -8230495.56342  23265248.152    23265244.674
  22360642.762   -16511458.62843 -12834934.08542  22360644.555    22360640.378
  24010302.728    -9371099.41343  -7292022.25042  24010303.216    24010301.231
  23252828.092   -11299503.33343  -8793901.72742  23252829.921    23252826.369
  20979843.671   -26256888.37144 -20427083.04642  20979844.667    20979839.295
  23904782.518    -5255615.50243  -4054462.63442  23904783.273    23904780.016
  20343381.951   -28753043.41444 -22400534.39642  20343383.339    20343379.118
  21785437.666   -17812975.52343 -13872586.45342  21785438.933    21785434.495
  23497041.462   -11424541.04843  -8694340.40842  23497042.515    23497038.099
 04  1  8  2 13 30.0000000  0 10G29G17G26G15G30G21G10G 6G18G16
  23021195.011   -11100457.62243  -8641923.58742  23021196.697    23021192.294
  23278185.294   -10504961.07043  -8177517.32142  23278185.913    23278182.427
  22350702.099   -16563697.12643 -12875639.38042  22350703.894    22350699.674
  23995612.506    -9448296.84543  -7352176.03642  23995613.017    23995610.995
  23272534.484   -11195945.93343  -8713207.68242  23272536.208    23272532.755
  20974195.681   -26286568.62644 -20450210.48842  20974196.681    20974191.305
  23924724.507    -5150819.28343  -3972803.22442  23924725.308    23924722.072
  20345985.375   -28739362.42644 -22389873.88442  20345986.742    20345982.518
  21770282.630   -17892615.39043 -13934643.45342  21770283.903    21770279.535
  23486976.116   -11477434.65643  -8735556.19542  23486977.236    23486972.822
 04  1  8  2 14  0.0000000  0 10G29G17G26G15G30G21G10G 6G18G16
  23018850.399   -11112778.55243  -8651524.27742  23018852.074    23018847.611
  23291135.214   -10436908.97343  -8124489.69842  23291135.775    23291132.275
  22340856.676   -16615435.08543 -12915954.64742  22340858.440    22340854.263
  23980939.271    -9525404.83743  -7412260.14442  23980939.746    23980937.655
  23292256.774   -11092304.13343  -8632447.85942  23292258.516    23292255.179
  20968586.817   -26316043.24444 -20473177.70742  20968587.841    20968582.459
  23944691.351    -5045892.41743  -3891042.01642  23944692.201    23944688.969
  20348673.984   -28725233.63044 -22378864.43242  20348675.360    20348671.128
  21755196.838   -17971891.66443 -13996417.14342  21755198.111    21755193.729
  23477004.407   -11529836.12643  -8776388.49742  23477005.524    23477001.137
 04  1  8  2 14 30.0000000  0 10G29G17G26G15G30G21G10G 6G18G16
  23016604.231   -11124582.48243  -8660722.12242  23016605.878    23016601.386
  23304096.543   -10368796.84543  -8071415.29042  23304097.053    23304093.576
  22331106.482   -16666672.70443 -12955880.04542  22331108.213    22331104.037
  23966282.520    -9602426.24243  -7472276.78542  23966283.113    23966280.928
  23311994.131   -10988583.84443  -8551626.84442  23311995.902    23311992.441
  20963016.611   -26345314.95044 -20495986.82142  20963017.606    20963012.219
  23964682.097    -4940840.32543  -3809183.21742  23964682.924    23964679.655
  20351447.403   -28710659.22644 -22367507.74842  20351448.769    20351444.548
  21740179.885   -18050806.16643 -14057908.93042  21740181.157    21740176.779
  23467126.158   -11581746.63643  -8816838.24742  23467127.288    23467122.845
 04  1  8  2 15  0.0000000  0 10G29G17G26G15G30G21G10G 6G18G16
  23014456.496   -11135868.79243  -8669516.63142  23014458.162    23014453.692
  23317069.172   -10300625.32643  -8018294.60942  23317069.664    23317066.132
  22321451.909   -16717407.77243 -12995413.82742  22321453.659    22321449.428
  23951642.191    -9679361.41843  -7532226.22042  23951642.842    23951640.688
  23331745.725   -10884788.45843  -8470747.34642  23331747.512    23331744.108
  20957484.806   -26374384.82544 -20518638.66242  20957485.783    20957480.390
  23984696.054    -4835666.18743  -3727229.32042  23984696.827    23984693.565
  20354305.648   -28695639.00344 -22355803.66642  20354307.037    20354302.793
  21725232.041   -18129357.50643 -14119117.73342  21725233.289    21725228.898
  23457341.511   -11633165.13443  -8856904.59542  23457342.621    23457338.194
 04  1  8  2 15 30.0000000  0 10G29G17G26G15G30G21G10G 6G18G16
  23012408.523   -11146630.78443  -8677902.58042  23012410.175    23012405.704
  23330054.100   -10232388.93843  -7965123.37442  23330054.602    23330051.063
  22311894.552   -16767631.69743 -13034549.33542  22311896.279    22311892.112
  23937019.374    -9756204.48743  -7592103.85742  23937020.088    23937017.939
  23351512.213   -10780915.03743  -8389807.04042  23351513.987    23351510.555
  20951992.614   -26403246.48644 -20541128.25642  20951993.581    20951988.188
  24004733.916    -4730366.73643  -3645177.79042  24004734.678    24004731.295
  20357249.919   -28680166.70644 -22343747.32742  20357251.306    20357247.095
  21710354.694   -18207538.32643 -14180037.81542  21710355.965    21710351.575
  23447651.879   -11684084.34143  -8896581.90242  23447653.062    23447648.613
 04  1  8  2 16  0.0000000  0 10G29G17G26G15G30G21G10G 6G18G16
  23010458.905   -11156875.88143  -8685885.74342  23010460.582    23010456.089
  23343049.731   -10164096.47343  -7911908.45342  23343050.226    23343046.626
  22302433.381   -16817350.24043 -13073291.02542  22302435.090    22302430.969
  23922412.461    -9832964.03443  -7651916.44142  23922413.188    23922410.904
  23371291.359   -10676975.12943  -8308814.91542  23371293.119    23371289.662
  20946538.304   -26431908.94944 -20563462.62442  20946539.284    20946533.878
  24024793.404    -4624953.08843  -3563037.27442  24024794.216    24024790.874
  20360278.702   -28664250.37144 -22331344.99342  20360280.087    20360275.868
  21695546.637   -18285355.29643 -14240674.38442  21695547.886    21695543.462
  23438055.977   -11734511.35243  -8935875.66542  23438057.146    23438052.637
 04  1  8  2 16 30.0000000  0 10G29G17G26G15G30G21G10G 6G18G16
  23008608.952   -11166597.35643  -8693460.89642  23008610.633    23008606.142
  23356057.053   -10095742.43843  -7858645.54642  23356057.551    23356053.941
  22293070.049   -16866554.86443 -13111632.26842  22293071.758    22293067.591
  23907822.594    -9909634.35343  -7711659.52342  23907823.347    23907820.867
  23391083.724   -10572965.72843  -8227768.65042  23391085.489    23391081.997
  20941122.975   -26460366.62144 -20585637.41242  20941123.964    20941118.553
  24044875.225    -4519421.83643  -3480805.12542  24044876.131    24044872.822
  20363393.242   -28647883.39544 -22318591.50342  20363394.618    20363390.391
  21680809.125   -18362801.37543 -14301021.94342  21680810.365    21680805.943
  23428555.099   -11784438.74243  -8974780.12342  23428556.255    23428551.704
 04  1  8  2 17  0.0000000  0 11G29G17G26G15G30G21G10G 6G18G22G16
  23006858.327   -11175796.97843  -8700629.41442  23006860.008    23006855.498
  23369075.420   -10027330.16743  -7805337.25442  23369075.926    23369072.375
  22283804.363   -16915245.92643 -13149573.33242  22283806.083    22283801.943
  23893248.949    -9986218.60443  -7771335.49042  23893249.820    23893247.348
  23410888.184   -10468892.86643  -8146672.93042  23410889.914    23410886.449
  20935745.986   -26488622.76444 -20607655.17442  20935746.986    20935741.574
  24064978.506    -4413778.48143  -3398485.60542  24064979.344    24064976.055
  20366593.042   -28631068.40744 -22305488.91542  20366594.400    20366590.184
  21666141.880   -18439878.24843 -14361081.80642  21666143.114    21666138.677
  24624257.618    -1918905.32753  -1486483.28152  24624258.018    24624253.560
  23419149.054   -11833867.98143  -9013296.40142  23419150.145    23419145.602
 04  1  8  2 17 30.0000000  0 11G29G17G26G15G30G21G10G 6G18G22G16
  23005207.540   -11184471.88043  -8707389.07142  23005209.235    23005204.675
  23382105.343    -9958857.50443  -7751981.90842  23382105.857    23382102.280
  22274637.430   -16963418.29443 -13187110.22642  22274639.165    22274635.030
  23878692.300   -10062714.08743  -7830942.28842  23878693.139    23878690.733
  23430704.602   -10364756.90043  -8065528.04142  23430706.332    23430702.879
  20930407.800   -26516675.11844 -20629514.14242  20930408.792    20930403.383
  24085103.027    -4308023.16843  -3316078.86742  24085103.905    24085100.597
  20369878.696   -28613802.16744 -22292034.69642  20369880.076    20369875.836
  21651545.659   -18516581.81743 -14420850.78842  21651546.897    21651542.431
  24603891.811    -2025928.69243  -1569878.11442  24603892.148    24603887.340
  23409838.508   -11882795.33343  -9051421.61442  23409839.577    23409835.090
 04  1  8  2 18  0.0000000  0 11G29G17G26G15G30G21G10G 6G18G22G16
  23003656.000   -11192625.17043  -8713742.25742  23003657.698    23003653.176
  23395145.829    -9890329.09443  -7698583.12942  23395146.355    23395142.760
  22265568.896   -17011073.63643 -13224244.22642  22265570.638    22265566.505
  23864151.797   -10139125.26843  -7890483.44042  23864152.539    23864150.041
  23450531.652   -10260565.16743  -7984339.67942  23450533.361    23450529.911
  20925107.556   -26544528.07444 -20651217.73442  20925108.532    20925103.127
  24105247.616    -4202163.00443  -3233590.40942  24105248.430    24105245.084
  20373249.442   -28596088.74644 -22278232.02442  20373250.810    20373246.574
  21637019.916   -18592915.06943 -14480331.20942  21637021.166    21637016.668
  24583548.405    -2132833.75943  -1653180.72942  24583548.701    24583544.085
  23400622.896   -11931223.57943  -9089157.90042  23400623.993    23400619.522
 04  1  8  2 18 30.0000000  0 11G29G17G26G15G30G21G10G 6G18G22G16
  23002204.852   -11200250.95443  -8719684.40842  23002206.544    23002202.030
  23408197.840    -9821740.23043  -7645137.24542  23408198.374    23408194.754
  22256600.173   -17058204.39943 -13260969.46842  22256601.949    22256597.816
  23849628.160   -10215447.08043  -7949954.92242  23849628.940    23849626.443
  23470369.656   -10156315.48643  -7903106.18542  23470371.396    23470367.992
  20919846.167   -26572176.79844 -20672762.18642  20919847.141    20919841.734
  24125412.572    -4096195.41443  -3151018.25842  24125413.375    24125410.003
  20376706.330   -28577922.60344 -22264076.59542  20376707.704    20376703.480
  21622565.870   -18668871.42243 -14539517.94742  21622567.122    21622562.613
  24563228.990    -2239613.16243  -1736385.41342  24563229.320    24563224.520
  23391503.486   -11979146.48743  -9126500.42642  23391504.515    23391500.102
 04  1  8  2 19  0.0000000  0 11G29G17G26G15G30G21G10G 6G18G22G16
  23000854.597   -11207346.71943  -8725213.55542  23000856.269    23000851.769
  23421261.590    -9753089.66343  -7591643.27942  23421262.119    23421258.503
  22247732.097   -17104806.47043 -13297282.74842  22247733.838    22247729.700
  23835121.822   -10291677.99143  -8009355.55042  23835122.543    23835120.184
  23490218.519   -10052009.34343  -7821828.69542  23490220.230    23490216.836
  20914623.955   -26599619.65444 -20694146.22142  20914624.942    20914619.536
  24145597.856    -3990121.23843  -3068363.04042  24145598.644    24145595.290
  20380249.802   -28559301.51644 -22249566.66442  20380251.176    20380246.940
  21608184.159   -18744447.74843 -14598408.56542  21608185.398    21608180.863
  24542934.269    -2346262.85443  -1819489.05442  24542934.613    24542929.591
  23382480.811   -12026561.06943  -9163446.86342  23382481.844    23382477.412
 04  1  8  2 19 30.0000000  0 11G29G17G26G15G30G21G10G 6G18G22G16
  22999603.781   -11213919.92343  -8730335.52042  22999605.435    22999600.872
  23434335.535    -9684385.58543  -7538107.62442  23434336.046    23434332.459
  22238963.652   -17150885.16543 -13333188.21142  22238965.375    22238961.192
  23820631.302   -10367826.12843  -8068691.69342  23820632.053    23820629.684
  23510075.981    -9947657.57443  -7740515.60942  23510077.717    23510074.288
  20909439.304   -26626865.12144 -20715376.44542  20909440.279    20909434.892
  24165801.333    -3883950.97943  -2985632.94942  24165802.180    24165798.839
  20383878.399   -28540233.07444 -22234708.12242  20383879.796    20383875.541
  21593873.536   -18819650.45243 -14657008.04342  21593874.775    21593870.219
  24522662.932    -2452789.40343  -1902496.72242  24522663.253    24522658.109
  23373553.582   -12073473.95143  -9200002.35642  23373554.635    23373550.173
 04  1  8  2 20  0.0000000  0 11G29G17G26G15G30G21G10G 6G18G22G16
  22998453.962   -11219962.11743  -8735043.71242  22998455.632    22998451.049
  23447421.003    -9615620.90543  -7484524.72842  23447421.570    23447417.961
  22230296.612   -17196430.55743 -13368678.09642  22230298.325    22230294.186
  23806157.866   -10443884.09243  -8127957.60942  23806158.636    23806156.210
  23529943.052    -9843255.71943  -7659163.54642  23529944.763    23529941.391
  20904293.600   -26653905.86944 -20736447.13642  20904294.610    20904289.203
  24186024.099    -3777679.70543  -2902824.15142  24186024.892    24186021.540
  20387593.635   -28520709.31644 -22219494.78742  20387595.047    20387590.786
  21579635.626   -18894471.04943 -14715309.77342  21579636.869    21579632.302
  24502416.473    -2559184.31143  -1985401.77442  24502416.970    24502411.787
  23364723.493   -12119876.40643  -9236160.11842  23364724.557    23364720.044
 04  1  8  2 20 30.0000000  0 11G29G17G26G15G30G21G10G 6G18G22G16
  22997404.712   -11225476.04043  -8739340.25742  22997406.360    22997401.764
  23460517.346    -9546799.40643  -7430897.57042  23460517.844    23460514.213
  22221730.892   -17241443.66043 -13403753.23542  22221732.632    22221728.439
  23791700.925   -10519855.26543  -8187155.88242  23791701.720    23791699.298
  23549818.319    -9738810.16843  -7577777.41642  23549820.102    23549816.641
  20899186.152   -26680745.68044 -20757361.25942  20899187.148    20899181.758
  24206264.935    -3671313.57543  -2819941.43942  24206265.695    24206262.286
  20391394.884   -28500733.53444 -22203929.24242  20391396.298    20391392.052
  21565469.988   -18968911.87443 -14773315.58642  21565471.251    21565466.629
  24482195.027    -2665448.37443  -2068204.84742  24482195.496    24482190.559
  23355990.180   -12165770.56043  -9271921.80242  23355991.213    23355986.684
 04  1  8  2 21  0.0000000  0 11G29G17G26G15G30G21G10G 6G18G22G16
  22996456.353   -11230459.38943  -8743223.36042  22996458.028    22996453.461
  23473624.748    -9477919.54343  -7377224.92442  23473625.250    23473621.662
  22213267.264   -17285920.25943 -13438410.30242  22213268.996    22213264.801
  23777260.817   -10595738.19343  -8246285.36542  23777261.663    23777259.281
  23569701.692    -9634322.17743  -7496358.19642  23569703.497    23569700.075
  20894117.250   -26707382.83144 -20778117.47142  20894118.248    20894112.864
  24226523.675    -3564853.41643  -2736985.45942  24226524.351    24226520.930
  20395282.598   -28480303.54744 -22188009.77542  20395283.992    20395279.740
  21551377.236   -19042969.62243 -14831022.88942  21551378.500    21551373.888
  24461999.225    -2771578.09743  -2150903.33142  24461999.600    24461994.606
  23347354.084   -12211153.37843  -9307285.04342  23347355.186    23347350.624
 04  1  8  2 21 30.0000000  0 11G29G17G26G15G30G21G10G 6G18G22G16
  22995609.249   -11234910.88443  -8746692.03642  22995610.910    22995606.323
  23486743.205    -9408981.49743  -7323506.95442  23486743.699    23486740.116
  22204906.312   -17329857.46743 -13472647.06342  22204908.035    22204903.815
  23762837.561   -10671532.60643  -8305345.88542  23762838.461    23762836.035
  23589592.716    -9529794.12243  -7414907.76742  23589594.507    23589591.053
  20889086.952   -26733817.14244 -20798715.62842  20889087.948    20889082.567
  24246799.840    -3458301.02643  -2653957.60042  24246800.628    24246797.164
  20399256.882   -28459418.44944 -22171735.67142  20399258.283    20399254.025
  21537357.778   -19116642.36543 -14888430.19442  21537359.034    21537354.383
  24441829.379    -2877570.93843  -2233495.08042  24441829.712    24441824.914
  23338815.599   -12256023.24843  -9342248.57842  23338816.710    23338812.221
 04  1  8  2 22  0.0000000  0 11G29G17G26G15G30G21G10G 6G18G22G16
  22994862.827   -11238833.23843  -8749748.39842  22994864.507    22994859.893
  23499872.114    -9339988.53543  -7269746.20742  23499872.620    23499869.026
  22196647.813   -17373256.03943 -13506464.11042  22196649.566    22196645.355
  23748430.541   -10747241.57543  -8364339.82642  23748431.426    23748429.035
  23609490.210    -9425232.16243  -7333430.93242  23609491.959    23609488.551
  20884094.626   -26760051.96144 -20819158.33442  20884095.623    20884090.235
  24267092.497    -3351662.30043  -2570862.47842  24267093.285    24267089.868
  20403317.242   -28438081.19744 -22155109.24442  20403318.627    20403314.382
  21523411.138   -19189932.31143 -14945539.21742  21523412.376    21523407.728
  24421685.369    -2983428.50743  -2315981.48342  24421685.624    24421680.866
  23330374.362   -12300382.14743  -9376813.93842  23330375.514    23330371.045
 04  1  8  2 22 30.0000000  0 11G29G17G26G15G30G21G10G 6G18G22G16
  22994218.106   -11242221.17243  -8752388.33242  22994219.773    22994215.140
  23513012.269    -9270936.50843  -7215939.40742  23513012.757    23513009.107
  22188493.101   -17416109.22843 -13539856.17242  22188494.869    22188490.630
  23734040.783   -10822860.76743  -8423263.84742  23734041.599    23734039.042
  23629394.414    -9320635.02743  -7251926.68342  23629396.160    23629392.673
  20879141.031   -26786083.33644 -20839442.50942  20879141.999    20879136.625
  24287401.932    -3244935.43643  -2487698.67342  24287402.746    24287399.342
  20407464.519   -28416287.02244 -22138126.76942  20407465.912    20407461.671
  21509538.467   -19262833.43443 -15002345.25442  21509539.712    21509535.077
  24401568.014    -3089144.92443  -2398357.81842  24401568.349    24401563.778
  23322031.444   -12344224.39843  -9410976.73242  23322032.584    23322028.117
 04  1  8  2 23  0.0000000  0 11G29G17G26G15G30G21G10G 6G18G22G16
  22993674.970   -11245075.37243  -8754612.36242  22993676.655    22993671.990
  23526163.430    -9201826.84443  -7162087.70042  23526163.877    23526160.247
  22180442.486   -17458415.60343 -13572822.17642  22180444.280    22180439.973
  23719667.722   -10898391.45643  -8482118.87642  23719668.536    23719666.077
  23649304.538    -9216006.51343  -7170397.96742  23649306.287    23649302.798
  20874225.945   -26811912.22844 -20859568.90842  20874226.917    20874221.543
  24307727.506    -3138123.92843  -2404468.90342  24307728.299    24307724.930
  20411698.631   -28394036.70344 -22120788.85942  20411700.012    20411695.756
  21495739.920   -19335345.28743 -15058847.97342  21495741.161    21495736.487
  24381477.939    -3194719.21243  -2480623.47642  24381478.265    24381473.656
  23313786.881   -12387550.01443  -9444736.95742  23313788.040    23313783.479
 04  1  8  2 23 30.0000000  0 11G29G17G26G15G30G21G10G 6G18G22G16
  22993233.065   -11247397.18943  -8756421.53342  22993234.787    22993230.133
  23539325.039    -9132662.13743  -7108193.11842  23539325.450    23539321.822
  22172495.939   -17500175.01543 -13605361.96142  22172497.709    22172493.357
  23705311.106   -10973835.74343  -8540906.54642  23705311.876    23705309.424
  23669219.732    -9111351.70043  -7088848.78242  23669221.469    23669217.986
  20869348.965   -26837540.91544 -20879539.30842  20869349.935    20869344.550
  24328068.304    -3031232.37843  -2321176.76142  24328069.135    24328065.688
  20416019.198   -28371331.88944 -22103096.79542  20416020.591    20416016.331
  21482015.192   -19407469.09643 -15115048.31642  21482016.433    21482011.745
  24361414.810    -3300151.55543  -2562778.50342  24361415.169    24361410.433
  23305640.328   -12430360.07443  -9478095.45042  23305641.500    23305636.995
 04  1  8  2 24  0.0000000  0 11G29G17G26G15G30G21G10G 6G18G22G16
  22992892.374   -11249187.53443  -8757816.58142  22992894.069    22992889.457
  23552496.875    -9063443.79943  -7054256.72942  23552497.249    23552493.626
  22164653.681   -17541386.49843 -13637474.79342  22164655.410    22164651.100
  23690970.792   -11049195.06443  -8599628.08042  23690971.458    23690968.911
  23689139.068    -9006674.91343  -7007282.45242  23689140.901    23689137.334
  20864509.790   -26862970.90644 -20899354.87542  20864510.778    20864505.388
  24348423.631    -2924264.51043  -2237825.16042  24348424.422    24348420.888
  20420426.047   -28348173.62144 -22085051.38442  20420427.449    20420423.212
  21468364.310   -19479204.87443 -15170946.30242  21468365.549    21468360.847
  24341378.756    -3405441.15343  -2644822.28342  24341379.157    24341374.460
  23297591.951   -12472654.58343  -9511052.19342  23297593.135    23297588.608
 04  1  8  2 24 30.0000000  0 11G29G17G26G15G30G21G10G 6G18G22G16
  22992654.798   -11250436.14743  -8758789.50042  22992656.456    22992651.854
  23565680.574    -8994162.71743  -7000271.46042  23565680.987    23565677.405
  22156917.903   -17582038.31143 -13669151.51242  22156919.603    22156915.256
  23676648.279   -11124459.95143  -8658275.98742  23676648.918    23676646.438
  23709063.790    -8901969.47543  -6925693.81642  23709065.613    23709062.077
  20859710.206   -26888192.91444 -20919008.38142  20859711.174    20859705.776
  24368794.845    -2817213.47543  -2154408.74342  24368795.565    24368792.004
  20424921.044   -28324552.18744 -22066645.07342  20424922.461    20424918.216
  21454789.309   -19550541.78643 -15226533.48342  21454790.548    21454785.876
  24321372.054    -3510576.74943  -2726746.06042  24321372.435    24321367.771
  23289643.697   -12514422.98243  -9543598.98642  23289644.873    23289640.340
 04  1  8  2 25  0.0000000  0 11G29G17G26G15G30G21G10G 6G18G22G16
  22992518.114   -11251154.18443  -8759348.99042  22992519.850    22992515.226
  23578874.075    -8924830.37443  -6946246.23942  23578874.512    23578870.942
  22149286.878   -17622139.55943 -13700399.22042  22149288.565    22149284.236
  23662341.523   -11199641.99043  -8716859.29242  23662342.151    23662339.788
  23728991.277    -8797249.81143  -6844094.09742  23728993.116    23728989.685
  20854947.917   -26913218.89444 -20938509.13742  20854948.888    20854943.463
  24389179.144    -2710093.10043  -2070938.29542  24389179.920    24389176.275
  20429502.074   -28300478.80444 -22047886.59342  20429503.467    20429499.217
  21441288.276   -19621490.15043 -15281817.89842  21441289.500    21441284.827
  24301392.714    -3615568.83843  -2808558.01642  24301393.149    24301388.410
  23281793.592   -12555675.75843  -9575744.02642  23281794.783    23281790.208
 04  1  8  2 25 30.0000000  0 11G29G17G26G15G30G21G10G 6G18G22G16
  22992483.818   -11251333.73943  -8759488.87942  22992485.645    22992480.988
  23592078.639    -8855439.91643  -6892175.74442  23592079.088    23592075.514
  22141762.469   -17661680.58043 -13731210.39642  22141764.174    22141759.773
  23648052.033   -11274733.88943  -8775372.42842  23648052.700    23648050.182
  23748922.388    -8692511.49343  -6762479.83742  23748924.218    23748920.769
  20850224.314   -26938041.44644 -20957851.37342  20850225.297    20850219.865
  24409577.562    -2602898.60643  -1987410.09742  24409578.347    24409574.661
  20434170.508   -28275946.01144 -22028770.12842  20434171.920    20434167.644
  21427862.752   -19692041.58143 -15336793.01942  21427863.970    21427859.334
  24281442.492    -3720408.18443  -2890250.95742  24281442.841    24281438.037
  23274043.260   -12596404.26043  -9607480.52042  23274044.433    23274039.804
 04  1  8  2 26  0.0000000  0 11G29G17G26G15G30G21G10G 6G18G22G16
  22992551.901   -11250976.19243  -8759210.25242  22992553.667    22992549.043
  23605293.763    -8785993.54143  -6838061.68242  23605294.241    23605290.714
  22134344.656   -17700661.10043 -13761584.80842  22134346.380    22134342.010
  23633779.176   -11349737.71143  -8833816.90442  23633779.841    23633777.342
  23768856.056    -8587759.33743  -6680854.77442  23768857.900    23768854.478
  20845539.099   -26962662.37444 -20977036.50142  20845540.094    20845534.642
  24429989.270    -2495634.05543  -1903827.32242  24429990.120    24429986.450
  20438926.024   -28250955.55244 -22009297.03742  20438927.439    20438923.158
  21414512.712   -19762196.41943 -15391459.10142  21414513.928    21414509.300
  24261521.441    -3825094.25443  -2971824.44642  24261521.797    24261516.969
  23266392.420   -12636609.47143  -9638809.25442  23266393.693    23266388.985
 04  1  8  2 26 30.0000000  0 11G29G17G26G15G30G21G10G 6G18G22G16
  22992722.184   -11250081.19243  -8758512.83842  22992723.946    22992719.367
  23618519.543    -8716491.62243  -6783904.33442  23618520.052    23618516.446
  22127033.921   -17739078.99743 -13791520.81742  22127035.674    22127031.322
  23619523.180   -11424653.49643  -8892192.77542  23619523.792    23619521.416
  23788791.755    -8482996.17743  -6599221.14742  23788793.604    23788790.299
  20840892.157   -26987082.21744 -20996064.94342  20840893.141    20840887.700
  24450413.852    -2388302.13843  -1820192.03542  24450414.695    24450411.042
  20443768.677   -28225507.15844 -21989467.11942  20443770.112    20443765.818
  21401238.298   -19831953.73543 -15445815.42542  21401239.507    21401234.894
  24241629.693    -3929625.36643  -3053277.19242  24241629.997    24241625.187
  23258841.397   -12676290.41843  -9669729.48242  23258842.682    23258837.947
 04  1  8  2 27  0.0000000  0 11G29G17G26G15G30G21G10G 6G18G22G16
  22992994.464   -11248650.04243  -8757397.63442  22992996.285    22992991.703
  23631755.612    -8646935.74943  -6729704.93042  23631756.147    23631752.495
  22119830.422   -17776933.57743 -13821017.87542  22119832.184    22119827.836
  23605283.660   -11499482.80543  -8950501.28742  23605284.268    23605281.815
  23808728.808    -8378226.58443  -6517582.53642  23808730.668    23808727.223
  20836283.171   -27011302.63344 -21014937.98642  20836284.126    20836278.693
  24470850.516    -2280906.98543  -1736507.49142  24470851.290    24470847.604
  20448698.232   -28199602.21744 -21969281.45442  20448699.643    20448695.370
  21388039.496   -19901313.76943 -15499862.18642  21388040.695    21388036.097
  24221767.604    -4034001.30243  -3134609.06142  24221767.952    24221762.991
  23251390.063   -12715447.72143  -9700241.65742  23251391.312    23251386.602
 04  1  8  2 27 30.0000000  0 11G29G17G26G15G30G21G10G 6G18G22G16
  22993369.687   -11246678.23543  -8755861.15142  22993371.490    22993366.843
  23645002.603    -8577322.61843  -6675460.93042  23645003.055    23644999.443
  22112735.244   -17814218.83943 -13850071.30842  22112737.003    22112732.630
  23591061.180   -11574221.90143  -9008739.49142  23591061.765    23591059.260
  23828667.254    -8273449.40343  -6435937.98742  23828669.117    23828665.681
  20831712.744   -27035320.27944 -21033653.02442  20831713.718    20831708.287
  24491299.413    -2173446.96143  -1652772.39142  24491300.231    24491296.441
  20453715.432   -28173236.61544 -21948736.82842  20453716.850    20453712.559
  21374917.217   -19970271.69843 -15553595.61642  21374918.409    21374913.816
  24201935.912    -4138216.79243  -3215815.85442  24201936.369    24201931.513
  23244039.291   -12754076.43443  -9730341.95642  23244040.489    23244035.802
 04  1  8  2 28  0.0000000  0 11G29G17G26G15G30G21G10G 6G18G22G16
  22993847.203   -11244168.94743  -8753905.84342  22993849.002    22993844.368
  23658259.778    -8507655.66043  -6621174.98342  23658260.217    23658256.610
  22105748.211   -17850935.97343 -13878682.05442  22105749.946    22105745.559
  23576855.394   -11648874.13543  -9066910.03142  23576855.919    23576853.380
  23848605.944    -8168671.12543  -6354292.59042  23848607.807    23848604.313
  20827180.324   -27059138.19944 -21052212.43742  20827181.287    20827175.872
  24511759.618    -2065927.83443  -1568991.23042  24511760.411    24511756.682
  20458819.669   -28146413.68544 -21927835.84442  20458821.090    20458816.778
  21361871.014   -20038829.86643 -15607017.53942  21361872.212    21361867.611
  24182134.606    -4242273.71443  -3296899.12442  24182135.018    24182130.069
  23236788.657   -12792178.86343  -9760032.14242  23236789.825    23236785.188
 04  1  8  2 28 30.0000000  0 11G29G17G26G15G30G21G10G 6G18G22G16
  22994427.451   -11241119.80943  -8751529.88042  22994429.227    22994424.556
  23671527.591    -8437933.18343  -6566845.76542  23671527.924    23671524.331
  22098870.065   -17887081.04143 -13906847.03142  22098871.769    22098867.398
  23562666.371   -11723437.85743  -9125011.57042  23562666.959    23562664.372
  23868544.607    -8063892.61443  -6272647.01342  23868546.458    23868543.023
  20822686.279   -27082754.49044 -21070614.73542  20822687.256    20822681.854
  24532230.934    -1958350.31743  -1485164.54742  24532231.742    24532227.987
  20464011.313   -28119131.47644 -21906576.98042  20464012.721    20464008.416
  21348901.521   -20106984.93743 -15660125.36142  21348902.709    21348898.122
  24162364.231    -4346167.48043  -3377855.21642  24162364.698    24162359.769
  23229638.679   -12829752.33243  -9789310.16442  23229639.851    23229635.153
 04  1  8  2 29  0.0000000  0 11G29G17G26G15G30G21G10G 6G18G22G16
  22995110.480   -11237530.45943  -8748732.96642  22995112.239    22995107.567
  23684805.836    -8368155.47343  -6512473.51442  23684806.175    23684802.562
  22092101.077   -17922651.92143 -13934564.56342  22092102.835    22092098.484
  23548494.137   -11797913.09543  -9183044.16642  23548494.694    23548492.151
  23888482.804    -7959116.69843  -6191003.43642  23888484.733    23888481.242
  20818230.544   -27106169.42544 -21088860.13142  20818231.528    20818226.147
  24552712.921    -1850716.67643  -1401294.15642  24552713.672    24552710.046
  20469290.393   -28091389.76644 -21884960.06942  20469291.796    20469287.500
  21336008.999   -20174735.40243 -15712917.90542  21336010.195    21336005.624
  24142625.174    -4449896.34843  -3458682.82542  24142625.658    24142620.746
  23222589.492   -12866796.01443  -9818175.36742  23222590.667    23222585.967
 04  1  8  2 29 30.0000000  0 11G29G17G26G15G30G21G10G 6G18G22G16
  22995896.028   -11233402.49943  -8745516.34942  22995897.740    22995893.112
  23698094.166    -8298324.76943  -6458059.98442  23698094.515    23698090.902
  22085441.495   -17957648.36043 -13961834.49642  22085443.257    22085438.855
  23534338.441   -11872301.90143  -9241009.43942  23534339.013    23534336.324
  23908419.482    -7854348.07843  -6109365.59042  23908421.374    23908418.074
  20813812.707   -27129385.34244 -21106950.44742  20813813.679    20813808.300
  24573204.768    -1743031.12043  -1317383.29742  24573205.576    24573201.915
  20474656.591   -28063190.26844 -21862986.43142  20474657.964    20474653.679
  21323193.226   -20242082.67743 -15765396.28242  21323194.424    21323189.837
  24122917.328    -4553461.20043  -3539382.64842  24122917.870    24122912.898
  23215640.907   -12903310.87943  -9846628.51742  23215642.101    23215637.433
 04  1  8  2 30  0.0000000  0 11G29G17G26G15G30G21G10G 6G18G22G16
  22996784.713   -11228732.12443  -8741877.08242  22996786.428    22996781.790
  23711393.232    -8228437.47243  -6403602.33242  23711393.633    23711390.055
  22078892.242   -17992064.86943 -13988652.54142  22078894.005    22078889.591
  23520199.754   -11946600.75443  -9298904.57742  23520200.335    23520197.708
  23928355.053    -7749586.17843  -6027732.94642  23928356.864    23928353.533
  20809433.402   -27152398.76044 -21124882.97942  20809434.360    20809429.002
  24593706.698    -1635292.45443  -1233431.07642  24593707.534    24593703.767
  20480110.581   -28034529.32844 -21840653.22942  20480111.957    20480107.683
  21310455.054   -20309022.05443 -15817556.81242  21310456.266    21310451.685
  24103241.810    -4656856.41743  -3619950.29742  24103242.298    24103237.330
  23208793.880   -12939292.20343  -9874665.92842  23208795.092    23208790.443
 04  1  8  2 30 30.0000000  0 11G29G17G26G15G30G21G10G 6G18G22G16
  22997776.591   -11223519.87843  -8737815.57742  22997778.267    22997773.636
  23724702.913    -8158494.89843  -6349101.62542  23724703.211    23724699.659
  22072453.639   -18025900.10143 -14015017.64242  22072455.340    22072450.932
  23506078.076   -12020810.58643  -9356730.37442  23506078.663    23506075.997
  23948288.665    -7644834.50343  -5946108.27742  23948290.465    23948287.150
  20805092.487   -27175210.43744 -21142658.30242  20805093.439    20805088.068
  24614218.145    -1527503.95043  -1149440.00642  24614219.104    24614215.308
  20485652.278   -28005407.64844 -21817961.00642  20485653.639    20485649.337
  21297794.609   -20375552.99443 -15869399.08142  21297795.820    21297791.218
  24083598.836    -4760080.74743  -3700384.74942  24083599.296    24083594.352
  23202048.334   -12974740.13843  -9902287.70142  23202049.547    23202044.926
 04  1  8  2 31  0.0000000  0 11G29G17G26G15G30G21G10G 6G18G22G16
  22998871.653   -11217765.50843  -8733331.63642  22998873.293    22998868.628
  23738023.078    -8088497.09243  -6294557.87542  23738023.381    23738019.812
  22066125.975   -18059151.93043 -14040928.13242  22066127.685    22066123.284
  23491973.334   -12094931.11443  -9414486.60242  23491973.974    23491971.214
  23968219.822    -7540095.76643  -5864493.67542  23968221.601    23968218.275
  20800789.918   -27197820.40244 -21160276.44942  20800790.878    20800785.525
  24634738.635    -1419667.73143  -1065411.75142  24634739.491    24634735.808
  20491281.632   -27975825.12144 -21794909.68142  20491283.007    20491278.686
  21285212.107   -20441674.20743 -15920922.07642  21285213.341    21285208.776
  24063988.816    -4863132.19543  -3780684.53342  24063989.253    24063984.209
  23195404.517   -13009653.70743  -9929493.06342  23195405.714    23195401.078
 04  1  8  2 31 30.0000000  0 11G29G17G26G15G30G21G10G 6G18G22G16
  23000069.249   -11211471.92443  -8728427.53642  23000070.962    23000066.251
  23751352.997    -8018447.49443  -6239973.78242  23751353.330    23751349.752
  22059909.103   -18091821.88343 -14066385.21842  22059910.787    22059906.387
  23477884.887   -12168965.73143  -9472175.84942  23477885.591    23477882.921
  23988147.338    -7435376.12143  -5782893.99042  23988149.101    23988145.737
  20796525.156   -27220231.89844 -21177739.94042  20796526.107    20796520.742
  24655267.195    -1311789.30943   -981350.64642  24655268.014    24655264.333
  20496998.091   -27945784.82444 -21771501.64842  20496999.486    20496995.165
  21272707.132   -20507388.21643 -15972127.77242  21272708.376    21272703.773
  24044411.193    -4966013.11743  -3860851.41542  24044411.601    24044406.588
  23188861.959   -13044035.25343  -9956283.88342  23188863.139    23188858.511
 04  1  8  2 32  0.0000000  0 11G29G17G26G15G30G21G10G 6G18G22G16
  23001370.089   -11204635.76543  -8723100.64742  23001371.837    23001367.101
  23764693.452    -7948342.99143  -6185346.88242  23764693.732    23764690.141
  22053803.912   -18123904.62143 -14091384.73142  22053805.626    22053801.214
  23463813.505   -12242911.34243  -9529795.76842  23463814.178    23463811.476
  24008071.289    -7330675.33543  -5701308.94542  24008073.083    24008069.659
  20792298.617   -27242442.38144 -21195046.80142  20792299.592    20792294.227
  24675803.764    -1203868.10943   -897256.18042  24675804.728    24675801.036
  20502802.293   -27915283.56244 -21747734.42642  20502803.676    20502799.359
  21260280.481   -20572690.67843 -16023012.77942  21260281.719    21260277.092
  24024867.020    -5068718.02943  -3940881.15642  24024867.419    24024862.332
  23182421.309   -13077880.94443  -9982657.15142  23182422.513    23182417.861
 04  1  8  2 32 30.0000000  0 11G29G17G26G15G30G21G10G 6G18G22G16
  23002774.071   -11197257.64743  -8717351.45442  23002775.844    23002771.145
  23778044.111    -7878184.68743  -6130678.08142  23778044.415    23778040.872
  22047810.692   -18155398.98043 -14115925.76742  22047812.415    22047808.034
  23449758.841   -12316768.71543  -9587346.92742  23449759.563    23449756.774
  24027990.920    -7225996.77843  -5619741.25942  24027992.692    24027989.287
  20788110.254   -27264452.42444 -21212197.47542  20788111.220    20788105.836
  24696348.145    -1095906.98143   -813130.63142  24696348.896    24696345.471
  20508694.066   -27884322.02744 -21723608.55042  20508695.481    20508691.151
  21247932.173   -20637581.39243 -16073576.94442  21247933.407    21247928.796
  24005356.396    -5171246.54743  -4020773.41542  24005356.830    24005351.760
  23176082.703   -13111190.69343 -10008612.81742  23176083.895    23176079.192
 04  1  8  2 33  0.0000000  0 10G29G17G26G15G30G21G 6G18G22G16
  23004282.846   -11189328.87443  -8711173.18342  23004284.609    23004279.923
  23791406.641    -7807964.09343  -6075960.73042  23791406.957    23791403.435
  22041931.476   -18186294.35043 -14140000.06042  22041933.205    22041928.829
  23435722.696   -12390529.22743  -9644822.60842  23435723.449    23435720.609
  24047907.506    -7121334.66443  -5538186.39142  24047909.265    24047905.885
  20783961.660   -27286253.44044 -21229185.28042  20783962.628    20783957.228
  20514675.087   -27852891.68744 -21699117.37742  20514676.474    20514672.135
  21235664.045   -20702050.75243 -16123812.78842  21235665.262    21235660.625
  23985881.508    -5273587.78243  -4100519.75042  23985881.907    23985876.895
  23169847.901   -13143955.04643 -10034143.47842  23169849.078    23169844.331
 04  1  8  2 33 30.0000000  0 10G29G17G26G15G30G21G 6G18G22G16
  23005893.038   -11180867.24943  -8704579.69242  23005894.799    23005890.131
  23804777.614    -7737699.42443  -6021209.03742  23804777.828    23804774.351
  22036163.088   -18216607.10843 -14163620.36542  22036164.874    22036160.496
  23421701.506   -12464211.04343  -9702236.97142  23421702.264    23421699.404
  24067817.034    -7016709.90143  -5456660.61542  24067818.834    24067815.403
  20779849.369   -27307863.70744 -21246024.44142  20779850.332    20779844.928
  20520741.837   -27821010.58544 -21674274.95342  20520743.258    20520738.903
  21223472.915   -20766115.49543 -16173733.34342  21223474.144    21223469.493
  23966439.126    -5375758.10243  -4180132.91942  23966439.489    23966434.502
  23163713.599   -13176191.30243 -10059262.64042  23163714.755    23163709.954
 04  1  8  2 34  0.0000000  0 10G29G17G26G15G30G21G 6G18G22G16
  23007607.149   -11171859.49043  -8697560.64042  23007608.918    23007604.266
  23818159.360    -7667377.89443  -5966413.05142  23818159.563    23818156.139
  22030508.520   -18246322.12143 -14186774.91242  22030510.293    22030505.901
  23407697.740   -12537801.08043  -9759579.81742  23407698.516    23407695.626
  24087721.303    -6912112.02043  -5375155.80342  24087723.116    24087719.734
  20775775.858   -27329270.11944 -21262704.75242  20775776.823    20775771.411
  20526896.872   -27788665.62344 -21649071.07142  20526898.286    20526893.946
  21211361.394   -20829761.82243 -16223327.86142  21211362.630    21211357.962
  23947032.125    -5477742.37443  -4259601.15142  23947032.526    23947027.379
  23157682.356   -13207885.86443 -10083959.71642  23157683.529    23157678.650
 04  1  8  2 34 30.0000000  0 10G29G17G26G15G30G21G 6G18G22G16
  23009424.186   -11162310.67243  -8690119.99142  23009425.969    23009421.391
  23831551.028    -7597004.56543  -5911576.69542  23831551.221    23831547.695
  22024967.008   -18275442.81143 -14209466.33342  22024968.787    22024964.390
  23393710.527   -12611304.43043  -9816855.12342  23393711.335    23393708.370
  24107618.970    -6807549.07543  -5293678.22742  24107620.750    24107617.360
  20771740.172   -27350477.77644 -21279230.19342  20771741.139    20771735.728
  20533139.193   -27755862.03244 -21623509.82742  20533140.609    20533136.267
  21199328.763   -20892993.55943 -16272599.32142  21199330.003    21199325.336
  23927659.833    -5579544.50643  -4338927.42942  23927660.214    23927654.993
  23151753.371   -13239042.81443 -10108237.86342  23151754.518    23151749.701
 04  1  8  2 35  0.0000000  0 10G29G17G26G15G30G21G 6G18G22G16
  23011344.755   -11152218.04043  -8682255.60542  23011346.523    23011341.909
  23844952.921    -7526576.91743  -5856698.00242  23844953.122    23844949.631
  22019539.530   -18303964.46743 -14231690.97542  22019541.302    22019536.864
  23379740.251   -12684718.41443  -9874060.78242  23379741.060    23379738.138
  24127510.101    -6703020.96043  -5212227.73742  24127511.996    24127508.512
  20767742.800   -27371484.12844 -21295598.77042  20767743.770    20767738.333
  20539469.373   -27722596.84444 -21597588.90342  20539470.752    20539466.441
  21187375.708   -20955807.15343 -16321544.95742  21187376.946    21187372.276
  23908323.099    -5681159.50643  -4418107.88642  23908323.455    23908318.255
  23145927.326   -13269658.76343 -10132094.46142  23145928.500    23145923.643
 04  1  8  2 35 30.0000000  0 10G29G17G26G15G30G21G 6G18G22G16
  23013369.136   -11141579.99843  -8673966.21742  23013370.841    23013366.242
  23858365.525    -7456093.52243  -5801775.86842  23858365.686    23858362.204
  22014226.640   -18331883.75043 -14253446.24742  22014228.420    22014223.992
  23365787.324   -12758041.48143  -9931195.59642  23365788.135    23365785.139
  24147394.274    -6598528.84843  -5130805.33042  24147396.275    24147392.784
  20763783.981   -27392287.81244 -21311809.42742  20763784.954    20763779.510
  20545887.646   -27688868.54244 -21571307.10742  20545889.022    20545884.704
  21175502.716   -21018200.27643 -16370162.95542  21175503.911    21175499.230
  23889022.533    -5782584.40543  -4497140.22042  23889022.900    23889017.646
  23140204.688   -13299731.42143 -10155527.67642  23140205.845    23140200.988
 04  1  8  2 36  0.0000000  0 10G29G17G26G15G30G21G 6G18G22G16
  23015496.442   -11130400.53443  -8665254.93242  23015498.184    23015493.614
  23871787.782    -7385558.64143  -5746813.61542  23871787.980    23871784.482
  22009027.953   -18359202.97643 -14274733.93242  22009029.752    22009025.286
  23351850.833   -12831277.77543  -9988262.79742  23351851.693    23351848.724
  24167270.266    -6494079.67843  -5049416.37442  24167272.279    24167268.883
  20759863.016   -27412892.70144 -21327865.17342  20759863.965    20759858.534
  20552393.221   -27654681.48744 -21544667.83442  20552394.619    20552390.281
  21163709.154   -21080175.85843 -16418455.60342  21163710.346    21163705.640
  23869757.723    -5883821.27643  -4576026.03242  23869758.110    23869752.888
  23134584.713   -13329264.50643 -10178540.47742  23134585.846    23134581.025
 04  1  8  2 36 30.0000000  0 10G29G17G26G15G30G21G 6G18G22G16
  23017727.346   -11118677.18543  -8656119.84842  23017729.064    23017724.460
  23885220.333    -7314969.85143  -5691809.35142  23885220.568    23885217.134
  22003944.227   -18385918.06243 -14295550.86242  22003946.032    22003941.528
  23337931.394   -12904424.91243 -10045260.54542  23337932.230    23337929.231
  24187138.033    -6389673.81343  -4968061.18042  24187140.008    24187136.567
  20755980.350   -27433296.27844 -21343764.06542  20755981.278    20755975.855
  20558986.532   -27620033.33644 -21517669.27142  20558987.937    20558983.607
  21151995.748   -21141730.24943 -16466420.05342  21151996.931    21151992.198
  23850529.566    -5984866.15043  -4654762.25542  23850529.910    23850524.635
  23129068.018   -13358254.92143 -10201130.40442  23129069.125    23129064.370
 04  1  8  2 37  0.0000000  0 10G29G17G26G15G30G21G 6G18G22G16
  23020061.940   -11106408.81043  -8646560.06742  23020063.629    23020059.069
  23898663.369    -7244326.36943  -5636762.48942  23898663.542    23898660.161
  21998976.030   -18412025.97243 -14315894.67142  21998977.810    21998973.321
  23324029.134   -12977481.73343 -10102187.93042  23324029.984    23324026.934
  24206997.352    -6285312.49243  -4886740.67342  24206999.329    24206995.845
  20752136.184   -27453497.40544 -21359505.19942  20752137.140    20752131.693
  20565667.832   -27584922.81144 -21490310.42042  20565669.238    20565664.894
  21140362.864   -21202861.40543 -16514054.70942  21140364.045    21140359.292
  23831338.490    -6085715.83143  -4733346.35442  23831338.802    23831333.599
  23123654.989   -13386700.57743 -10223295.86942  23123656.075    23123651.341
 04  1  8  2 37 30.0000000  0 10G29G17G26G15G30G21G 6G18G22G16
  23022499.428   -11093599.90543  -8636579.09442  23022501.080    23022496.505
  23912115.929    -7173632.42043  -5581676.28742  23912116.192    23912112.792
  21994122.882   -18437529.41643 -14335767.46742  21994124.654    21994120.170
  23310143.213   -13050452.65343 -10159048.37442  23310144.057    23310141.035
  24226846.814    -6181002.99443  -4805460.56342  24226848.771    24226845.268
  20748329.600   -27473501.16144 -21375092.52942  20748330.555    20748325.099
  20572436.235   -27549354.57644 -21462594.89542  20572437.644    20572433.305
  21128809.838   -21263572.88443 -16561362.33942  21128811.022    21128806.268
  23812183.882    -6186373.79343  -4811781.08342  23812184.220    23812178.875
  23118344.815   -13414605.65943 -10245040.10542  23118345.925    23118341.214
 04  1  8  2 38  0.0000000  0 10G29G17G26G15G30G21G 6G18G22G16
  23025041.372   -11080242.05543  -8626170.37142  23025042.994    23025038.399
  23925579.581    -7102879.99643  -5526544.52842  23925579.947    23925576.384
  21989386.634   -18462418.51543 -14355161.55542  21989388.418    21989383.897
  23296275.241   -13123329.08143 -10215835.14442  23296276.132    23296273.114
  24246687.491    -6076739.51843  -4724216.33242  24246689.430    24246686.005
  20744562.241   -27493298.72444 -21390519.18442  20744563.190    20744557.740
  20579293.301   -27513320.39444 -21434516.30342  20579294.733    20579290.390
  21117338.359   -21323855.85443 -16608336.07042  21117339.547    21117334.767
  23793067.763    -6286829.31643  -4890058.07142  23793068.140    23793062.691
  23113139.264   -13441960.95543 -10266355.92042  23113140.346    23113135.708
 04  1  8  2 38 30.0000000  0 10G29G17G26G15G30G21G 6G18G22G16
  23027685.950   -11066344.46043  -8615341.06542  23027687.622    23027683.004
  23939052.670    -7032078.14443  -5471374.26042  23939053.068    23939049.559
  21984765.947   -18486700.48343 -14374082.55942  21984767.682    21984763.147
  23282423.460   -13196120.46643 -10272555.67842  23282424.316    23282421.309
  24266517.225    -5972533.96443  -4643017.21742  24266519.090    24266515.693
  20740832.397   -27512899.21444 -21405792.28142  20740833.336    20740827.903
  20586237.319   -27476829.37544 -21406081.73942  20586238.724    20586234.386
  21105947.014   -21383717.79143 -16654981.72342  21105948.200    21105943.398
  23773988.808    -6387090.04743  -4968183.30142  23773989.107    23773983.584
  23108036.729   -13468775.02043 -10287250.01342  23108037.832    23108033.172
 04  1  8  2 39  0.0000000  0 10G29G17G26G15G30G21G 6G18G22G16
  23030434.061   -11051902.86943  -8604087.86342  23030435.735    23030431.156
  23952535.989    -6961222.66543  -5416162.17742  23952536.330    23952532.840
  21980261.844   -18510369.62643 -14392526.02742  21980263.581    21980259.056
  23268588.766   -13268822.37143 -10329206.51342  23268589.604    23268586.573
  24286336.288    -5868384.60943  -4561861.84542  24286338.150    24286334.581
  20737140.772   -27532298.81344 -21420908.83642  20737141.709    20737136.254
  20593269.052   -27439877.29544 -21377287.90042  20593270.462    20593266.129
  21094636.717   -21443153.73543 -16701295.43342  21094637.898    21094633.103
  23754947.980    -6487149.87643  -5046151.91042  23754948.307    23754942.801
  23103038.118   -13495042.81743 -10307718.38342  23103039.215    23103034.570
 04  1  8  2 39 30.0000000  0 10G29G17G26G15G30G21G 6G18G22G16
  23033285.416   -11036918.81343  -8592411.96242  23033287.089    23033282.529
  23966029.231    -6890315.02943  -5360909.46642  23966029.632    23966026.058
  21975874.403   -18533425.62743 -14410491.73442  21975876.150    21975871.635
  23254770.783   -13341436.07943 -10385788.60942  23254771.593    23254768.582
  24306143.761    -5764295.73343  -4480753.65442  24306145.647    24306142.012
  20733487.083   -27551498.83744 -21435869.88242  20733488.051    20733482.602
  20600388.253   -27402465.70744 -21348136.01242  20600389.647    20600385.308
  21083407.377   -21502164.31243 -16747277.68642  21083408.534    21083403.734
  23735945.485    -6587008.34643  -5123963.64542  23735945.800    23735940.350
  23098143.259   -13520765.59543 -10327762.11642  23098144.341    23098139.694
 04  1  8  2 40  0.0000000  0 10G29G17G26G15G30G21G 6G18G22G16
  23036240.148   -11021391.42843  -8580312.68542  23036241.852    23036237.278
  23979532.602    -6819354.29243  -5305615.36942  23979532.990    23979529.414
  21971604.231   -18555865.53443 -14427977.36442  21971605.963    21971601.449
  23240969.950   -13413960.11943 -10442300.82942  23240970.715    23240967.713
  24325939.494    -5660268.41443  -4399693.43342  24325941.357    24325937.918
  20729871.809   -27570497.18244 -21450673.77842  20729872.767    20729867.318
  20607595.058   -27364593.49744 -21318625.18242  20607596.474    20607592.139
  21072259.361   -21560747.40844 -16792926.83642  21072260.558    21072255.752
  23716981.961    -6686662.46943  -5201616.16442  23716982.287    23716976.790
  23093352.421   -13545941.61943 -10347379.80742  23093353.511    23093348.851
 04  1  8  2 40 30.0000000  0 10G29G17G26G15G30G21G 6G18G22G16
  23039298.601   -11005319.15643  -8567788.82942  23039300.296    23039295.747
  23993046.308    -6748339.01643  -5250278.78442  23993046.701    23993043.106
  21967451.812   -18577686.48543 -14444980.69142  21967453.574    21967449.056
  23227186.337   -13486393.26143 -10498742.20342  23227187.025    23227184.117
  24345723.188    -5556304.18943  -4318682.38242  24345725.104    24345721.664
  20726295.126   -27589292.73944 -21465319.65642  20726296.073    20726290.622
  20614889.712   -27326259.67344 -21288754.65842  20614891.144    20614886.805
  21061193.132   -21618900.87144 -16838241.21042  21061194.331    21061189.500
  23698057.796    -6786109.72843  -5279107.49542  23698058.080    23698052.546
  23088665.982   -13570568.97743 -10366569.95342  23088667.095    23088662.424
 04  1  8  2 41  0.0000000  0 10G29G17G26G15G30G21G 6G18G22G16
  23042460.890   -10988701.17143  -8554839.74542  23042462.597    23042458.008
  24006570.595    -6677268.13243  -5194898.87142  24006571.047    24006567.502
  21963417.651   -18598885.99643 -14461499.78142  21963419.441    21963414.891
  23213420.355   -13558734.32443 -10555111.85442  23213420.993    23213418.016
  24365494.713    -5452404.61843  -4237721.68942  24365496.555    24365493.017
  20722757.085   -27607885.22044 -21479807.29342  20722758.029    20722752.579
  20622272.390   -27287463.27744 -21258523.68442  20622273.829    20622269.506
  21050209.053   -21676622.63644 -16883219.19642  21050210.239    21050205.404
  23679173.487    -6885347.28543  -5356435.42842  23679173.748    23679168.247
  23084084.309   -13594645.90343 -10385331.20542  23084085.397    23084080.725
 04  1  8  2 41 30.0000000  0 10G29G17G26G15G30G21G 6G18G22G16
  23045725.606   -10971545.08543  -8541471.34942  23045727.284    23045722.671
  24020103.995    -6606149.14943  -5139481.48042  24020104.505    24020100.971
  21959500.638   -18619469.91343 -14477539.18842  21959502.421    21959497.892
  23199670.331   -13630990.91543 -10611415.67442  23199670.983    23199668.023
  24385251.997    -5348579.63343  -4156819.12242  24385253.865    24385250.266
  20719256.425   -27626281.38244 -21494141.95042  20719257.340    20719251.888
  20629741.640   -27248212.06344 -21227938.31642  20629743.071    20629738.749
  21039305.825   -21733919.38244 -16927865.99042  21039307.026    21039302.213
  23660328.152    -6984380.08543  -5433603.78742  23660328.422    23660322.933
  23079606.008   -13618179.60443 -10403669.14242  23079607.104    23079602.398
 04  1  8  2 42  0.0000000  0 10G29G17G26G15G30G21G 6G18G22G16
  23049094.301   -10953842.53043  -8527677.13942  23049095.943    23049091.323
  24033648.188    -6534973.66543  -5084020.06642  24033648.734    24033645.266
  21955702.755   -18639428.11143 -14493091.01442  21955704.504    21955699.934
  23185938.086   -13703154.38143 -10667646.92642  23185938.671    23185935.703
  24404996.199    -5244823.20243  -4075969.94542  24404998.020    24404994.414
  20715794.750   -27644472.54744 -21508316.86942  20715795.673    20715790.228
  20637299.034   -27208497.62044 -21196991.99742  20637300.473    20637296.150
  21028485.257   -21790781.78544 -16972174.33642  21028486.451    21028481.629
  23641523.702    -7083198.02043  -5510604.73042  23641523.920    23641518.435
  23075232.838   -13641160.92943 -10421576.66542  23075233.940    23075229.197
 04  1  8  2 42 30.0000000  0 10G29G17G26G15G30G21G 6G18G22G16
  23052565.669   -10935600.26443  -8513462.37442  23052567.349    23052562.666
  24047201.905    -6463747.97243  -5028519.53042  24047202.483    24047199.086
  21952022.959   -18658765.76743 -14508159.31042  21952024.700    21952020.068
  23172222.266   -13775231.09543 -10723810.56042  23172222.808    23172219.928
  24424725.639    -5141144.47643  -3995181.35542  24424727.453    24424723.805
  20712370.839   -27662465.15644 -21522337.08042  20712371.764    20712366.346
  20644943.316   -27168326.50644 -21165689.82142  20644944.761    20644940.446
  21017746.275   -21847215.41344 -17016148.56742  21017747.481    21017742.660
  23622759.216    -7181805.99143  -5587442.07942  23622759.431    23622753.867
  23070963.573   -13663596.08543 -10439058.58942  23070964.682    23070959.945
 04  1  8  2 43  0.0000000  0 10G29G17G26G15G30G21G 6G18G22G16
  23056140.364   -10916815.26143  -8498824.69242  23056142.054    23056137.359
  24060765.806    -6392469.06843  -4972977.52242  24060766.461    24060763.057
  21948462.123   -18677477.92743 -14522740.21142  21948463.907    21948459.273
  23158523.725   -13847217.53243 -10779903.85742  23158524.176    23158521.341
  24444440.403    -5037542.72243  -3914452.73442  24444442.250    24444438.559
  20708985.375   -27680256.01844 -21536200.08242  20708986.278    20708980.835
  20652675.136   -27127695.66444 -21134029.42342  20652676.535    20652672.225
  21007089.710   -21903215.93443 -17059785.31442  21007090.927    21007086.109
  23604035.570    -7280199.57543  -5664112.37542  23604035.808    23604030.135
  23066798.947   -13685481.26243 -10456111.97642  23066800.092    23066795.346
 04  1  8  2 43 30.0000000  0 10G29G17G26G15G30G21G 6G18G22G16
  23059818.316   -10897487.25143  -8483763.90142  23059820.039    23059815.383
  24074339.978    -6321136.32643  -4917393.55642  24074340.660    24074337.080
  21945020.657   -18695562.97843 -14536832.44342  21945022.422    21945017.789
  23144842.332   -13919113.37143 -10835926.55842  23144842.818    23144840.006
  24464140.064    -4934020.18843  -3833785.84842  24464141.926    24464138.207
  20705638.326   -27697844.79944 -21549905.61542  20705639.228    20705633.803
  20660494.378   -27086605.15844 -21102010.84342  20660495.789    20660491.502
  20996515.706   -21958782.55244 -17103083.95242  20996516.924    20996512.114
  23585353.121    -7378376.13643  -5740613.54442  23585353.390    23585347.680
  23062739.078   -13706815.77443 -10472736.26942  23062740.231    23062735.523
 04  1  8  2 44  0.0000000  0 10G29G17G26G15G30G21G 6G18G22G16
  23063599.680   -10877616.05043  -8468279.83442  23063601.382    23063596.686
  24087924.528    -6249749.08043  -4861767.12742  24087925.187    24087921.655
  21941698.953   -18713018.55343 -14550434.18842  21941700.736    21941696.099
  23131178.506   -13990917.46443 -10891877.77142  23131178.956    23131176.095
  24483824.355    -4830578.42043  -3753181.90042  24483826.157    24483822.413
  20702329.974   -27715230.32944 -21563452.76442  20702330.862    20702325.447
  20668401.278   -27045054.13044 -21069633.41942  20668402.687    20668398.383
  20986024.670   -22013913.22844 -17146042.89642  20986025.884    20986021.093
  23566712.508    -7476333.06343  -5816943.57342  23566712.808    23566707.077
  23058784.287   -13727598.33043 -10488930.46742  23058785.441    23058780.769
 04  1  8  2 44 30.0000000  0 10G29G17G26G15G30G21G 6G18G22G16
  23067483.783   -10857204.92343  -8452375.04342  23067485.480    23067480.782
  24101518.735    -6178310.75143  -4806100.89242  24101519.366    24101515.908
  21938496.674   -18729846.74043 -14563547.04942  21938498.430    21938493.769
  23117531.281   -14062633.50543 -10947760.36942  23117531.797    23117528.934
  24503492.122    -4727223.40043  -3672645.53542  24503493.991    24503490.192
  20699059.628   -27732416.01644 -21576844.19742  20699060.524    20699055.110
  20676395.079   -27003046.43644 -21036900.14442  20676396.480    20676392.193
  20975616.007   -22068611.01844 -17188664.52142  20975617.231    20975612.430
  23548113.380    -7574072.24543  -5893103.95042  23548113.653    23548107.805
  23054933.893   -13747832.26243 -10504697.16042  23054935.013    23054930.422
 04  1  8  2 45  0.0000000  0 10G29G17G26G15G30G21G 6G18G22G16
  23071470.728   -10836253.38543  -8436049.16142  23071472.381    23071467.720
  24115122.907    -6106820.58743  -4750394.25642  24115123.588    24115119.973
  21935414.201   -18746045.34843 -14576169.32842  21935415.950    21935411.253
  23103901.119   -14134260.37243 -11003573.48342  23103901.598    23103898.759
  24523143.085    -4623956.92543  -3592178.16142  24523144.929    24523141.171
  20695827.492   -27749400.88144 -21590079.14042  20695828.407    20695822.974
  20684475.910   -26960581.35944 -21003810.47142  20684477.311    20684473.012
  20965290.090   -22122874.07044 -17230947.38942  20965291.321    20965286.494
  23529556.036    -7671591.64343  -5969093.04542  23529556.277    23529550.470
  23051188.167   -13767516.28943 -10520035.36242  23051189.292    23051184.646
 04  1  8  2 45 30.0000000  0 10G29G17G26G15G30G21G 6G18G22G16
  23075560.848   -10814759.64943  -8419300.78142  23075562.471    23075557.863
  24128737.401    -6035275.97243  -4694645.19042  24128738.114    24128734.447
  21932452.222   -18761610.84443 -14588298.27042  21932453.931    21932449.238
  23090288.383   -14205795.72443 -11059315.27642  23090288.858    23090286.023
  24542776.996    -4520779.21843  -3511779.95342  24542778.812    24542775.191
  20692633.993   -27766182.66544 -21603155.83742  20692634.940    20692629.508
  20692644.147   -26917657.05444 -20970362.95942  20692645.525    20692641.233
  20955047.459   -22176699.39544 -17272889.17242  20955048.693    20955043.849
  23511041.426    -7768886.54943  -6044907.21542  23511041.675    23511035.841
  23047547.512   -13786647.91143 -10534943.11442  23047548.661    23047544.029
 04  1  8  2 46  0.0000000  0 10G29G17G26G15G30G21G 6G18G22G16
  23079753.719   -10792725.86543  -8402131.59242  23079755.348    23079750.735
  24142361.886    -5963678.76643  -4638855.16042  24142362.687    24142358.973
  21929610.627   -18776543.67243 -14599934.24142  21929612.305    21929607.614
  23076692.756   -14277241.08143 -11114986.94242  23076693.271    23076690.366
  24562393.321    -4417694.44243  -3431454.15242  24562395.147    24562391.654
  20689478.856   -27782762.92344 -21616075.50342  20689479.796    20689474.352
  20700899.339   -26874275.55944 -20936559.19942  20700900.756    20700896.465
  20944887.899   -22230088.22844 -17314490.82942  20944889.120    20944884.276
  23492569.431    -7865957.44843  -6120546.85342  23492569.658    23492563.745
  23044011.766   -13805228.38443 -10549421.39942  23044012.878    23044008.242
 04  1  8  2 46 30.0000000  0 10G29G17G26G15G30G21G 6G18G22G16
  23084049.803   -10770149.60543  -8384539.69142  23084051.469    23084046.838
  24155996.970    -5892026.32043  -4583022.07642  24155997.586    24155993.955
  21926890.127   -18790839.84243 -14611074.09842  21926891.816    21926887.131
  23063114.751   -14348593.76843 -11170586.39642  23063115.236    23063112.359
  24581991.968    -4314702.42843  -3351200.70142  24581993.634    24581990.386
  20686362.664   -27799138.51944 -21628835.69542  20686363.628    20686358.161
  20709242.017   -26830434.46144 -20902397.30442  20709243.428    20709239.151
  20934812.078   -22283036.97844 -17355749.57242  20934813.283    20934808.451
  23474140.945    -7962799.61743  -6196008.25242  23474141.152    23474135.224
  23040581.449   -13823254.98043 -10563468.09342  23040582.526    23040577.861
 04  1  8  2 47  0.0000000  0 10G29G17G26G15G30G21G 6G18G22G16
  23088447.833   -10747037.76043  -8366530.44842  23088449.511    23088444.821
  24169641.266    -5820325.32743  -4527151.16442  24169641.809    24169638.175
  21924289.814   -18804504.55543 -14621721.91442  21924291.501    21924286.815
  23049553.169   -14419859.94343 -11226118.43642  23049553.694    23049550.832
  24601571.416    -4211812.10543  -3271026.46542  24601573.065    24601569.771
  20683284.075   -27815316.52644 -21641441.92442  20683285.032    20683279.576
  20717670.859   -26786140.62344 -20867882.62442  20717672.265    20717667.988
  20924818.982   -22335550.93944 -17396669.52142  20924820.183    20924815.340
  23455755.012    -8059418.12943  -6271295.36742  23455755.252    23455749.395
  23037255.397   -13840733.71343 -10577087.88142  23037256.491    23037251.740
 04  1  8  2 47 30.0000000  0 10G29G17G26G15G30G21G 6G18G22G16
  23092948.723   -10723385.46643  -8348100.07942  23092950.386    23092945.733
  24183295.898    -5748569.97443  -4471237.91042  24183296.445    24183292.657
  21921810.905   -18817531.29243 -14631872.61042  21921812.600    21921807.918
  23036009.115   -14491034.20343 -11281578.84542  23036009.663    23036006.839
  24621132.107    -4109020.76943  -3190929.25842  24621133.865    24621130.323
  20680244.228   -27831290.88444 -21653889.46142  20680245.205    20680239.741
  20726186.766   -26741389.11244 -20833011.31542  20726188.179    20726183.904
  20914909.798   -22387624.04344 -17437245.94642  20914910.987    20914906.148
  23437412.955    -8155806.07443  -6346402.82042  23437413.244    23437407.380
  23034034.628   -13857659.03143 -10590276.44042  23034035.733    23034030.930
 04  1  8  2 48  0.0000000  0 10G29G17G26G15G30G21G 6G18G22G16
  23097552.110   -10699194.33743  -8329249.83942  23097553.815    23097549.101
  24196960.613    -5676761.81643  -4415283.50442  24196961.189    24196957.489
  21919453.362   -18829920.13043 -14641526.23242  21919455.083    21919450.393
  23022482.340   -14562117.52743 -11336968.40642  23022482.944    23022480.087
  24640673.158    -4006331.98543  -3110912.03842  24640674.908    24640671.542
  20677242.953   -27847062.73244 -21666179.19242  20677243.913    20677238.451
  20734789.469   -26696181.57644 -20797784.66642  20734790.884    20734786.605
  20905084.268   -22439257.38444 -17477479.69442  20905085.474    20905080.619
  23419114.877    -8251962.89343  -6421330.15542  23419115.144    23419109.315
  23030918.909   -13874032.33843 -10603034.86642  23030920.015    23030915.182
 04  1  8  2 48 30.0000000  0  9G29G17G26G15G21G 6G18G22G16
  23102259.669   -10674455.92143  -8309973.14942  23102261.364    23102256.660
  24210637.100    -5604891.69143  -4359280.80842  24210637.545    24210634.103
  21917219.150   -18841661.10343 -14650675.03442  21917220.833    21917216.155
  23008974.534   -14633101.10543 -11392280.24742  23008975.195    23008972.293
  20674281.828   -27862623.48844 -21678304.44142  20674282.795    20674277.315
  20743480.580   -26650509.44344 -20762195.98842  20743481.985    20743477.716
  20895344.270   -22490441.38544 -17517363.30442  20895345.475    20895340.609
  23400862.896    -8347877.84843  -6496069.04742  23400863.143    23400857.235
  23027910.002   -13889844.48043 -10615356.02142  23027911.080    23027906.250
 04  1  8  2 49  0.0000000  0  9G29G17G26G15G21G 6G18G22G16
  23107067.916   -10649188.28543  -8290284.07642  23107069.586    23107064.932
  24224322.086    -5532977.19943  -4303243.55342  24224322.503    24224318.968
  21915105.051   -18852770.65943 -14659331.82842  21915106.717    21915102.065
  22995482.383   -14704002.64543 -11447528.13842  22995483.059    22995480.141
  20671357.629   -27877990.25544 -21690278.54042  20671358.578    20671353.109
  20752256.719   -26604390.58844 -20726259.22542  20752258.115    20752253.857
  20885686.544   -22541193.04644 -17556910.01942  20885687.727    20885682.849
  23382653.724    -8443567.24943  -6570632.15942  23382653.976    23382648.107
  23025004.534   -13905112.81543 -10627253.42142  23025005.628    23025000.802
 04  1  8  2 49 30.0000000  0  9G29G17G26G15G21G 6G18G22G16
  23111978.421   -10623383.36043  -8270176.33342  23111980.114    23111975.420
  24238017.108    -5461009.48743  -4247164.84842  24238017.623    24238013.899
  21913112.989   -18863238.83743 -14667488.83842  21913114.684    21913110.042
  22982007.595   -14774813.04343 -11502705.02642  22982008.268    22982005.326
  20668472.053   -27893154.00944 -21702094.44342  20668473.016    20668467.523
  20761119.424   -26557816.75143 -20689967.92442  20761120.836    20761116.559
  20876112.869   -22591502.86844 -17596112.44242  20876114.070    20876109.173
  23364489.572    -8539020.16343  -6645011.00442  23364489.823    23364483.981
  23022204.226   -13919828.49343 -10638720.17542  23022205.320    23022200.488
 04  1  8  2 50  0.0000000  0  9G29G17G26G15G21G 6G18G22G16
  23116991.466   -10597039.91143  -8249648.96742  23116993.115    23116988.403
  24251722.682    -5388986.96543  -4191043.39942  24251722.937    24251719.423
  21911243.471   -18873063.12943 -14675144.11942  21911245.173    21911240.549
  22968550.472   -14845530.55443 -11557809.54842  22968551.178    22968548.185
  20665625.429   -27908113.15244 -21713750.90042  20665626.372    20665620.877
  20770068.951   -26510786.68144 -20653321.11642  20770070.366    20770066.090
  20866623.768   -22641368.34744 -17634968.63442  20866624.965    20866620.051
  23346371.075    -8634233.63143  -6719203.29142  23346371.312    23346365.401
  23019509.436   -13933989.80843 -10649754.96542  23019510.575    23019505.675
 04  1  8  2 50 30.0000000  0 10G29G17G26G 2G15G21G 6G18G22G16
  23122103.977   -10570173.69043  -8228714.24342  23122105.590    23122100.872
  24265435.724    -5316924.77243  -4134891.01642  24265436.117    24265432.398
  21909493.807   -18882257.52443 -14682308.57442  21909495.516    21909490.872
  25323977.652    -4282405.68253  -3315020.63052  25323978.647    25323975.306
  22955108.129   -14916170.25143 -11612853.42942  22955108.837    22955105.879
  20662814.808   -27922882.94744 -21725259.80942  20662815.773    20662810.288
  20779102.312   -26463315.96943 -20616330.94742  20779103.748    20779099.478
  20857216.330   -22690804.66444 -17673490.41742  20857217.521    20857212.591
  23328295.387    -8729221.84643  -6793220.04342  23328295.630    23328289.736
  23016917.277   -13947611.83943 -10660369.53542  23016918.385    23016913.523
 04  1  8  2 51  0.0000000  0 10G29G17G26G 2G15G21G 6G18G22G16
  23127320.526   -10542760.29643  -8207353.14842  23127322.186    23127317.457
  24279160.996    -5244798.03143  -4078688.36542  24279161.184    24279157.774
  21907868.953   -18890796.11043 -14688961.99942  21907870.688    21907866.023
  25314784.665    -4330715.35043  -3352664.53642  25314785.636    25314782.337
  22941685.446   -14986706.85543 -11667816.98042  22941686.175    22941683.185
  20660045.115   -27937437.74444 -21736601.20142  20660046.071    20660040.586
  20788224.195   -26415380.24744 -20578978.44442  20788225.611    20788221.345
  20847895.551   -22739785.60144 -17711657.35442  20847896.740    20847891.797
  23310267.740    -8823957.45043  -6867039.94742  23310268.001    23310262.139
  23014432.448   -13960669.54843 -10670544.37742  23014433.574    23014428.723
 04  1  8  2 51 30.0000000  0 10G29G17G26G 2G15G21G 6G18G22G16
  23132639.192   -10514810.50143  -8185574.09042  23132640.850    23132636.121
  24292896.816    -5172616.48443  -4022443.01542  24292896.846    24292893.395
  21906367.180   -18898688.07143 -14695111.57742  21906368.900    21906364.207
  25305664.501    -4378641.95743  -3390009.93442  25305665.428    25305662.232
  22928280.472   -15057150.32443 -11722707.95342  22928281.200    22928278.187
  20657314.435   -27951787.56744 -21747782.87442  20657315.381    20657309.897
  20797432.577   -26366989.97144 -20541271.74342  20797433.981    20797429.697
  20838659.581   -22788320.78744 -17749476.95542  20838660.765    20838655.839
  23292286.590    -8918448.90043  -6940669.61642  23292286.835    23292280.991
  23012053.117   -13973173.04443 -10680287.36242  23012054.266    23012049.385
 04  1  8  2 52  0.0000000  0 10G29G17G26G 2G15G21G 6G18G22G16
  23138058.797   -10486330.28243  -8163381.69842  23138060.415    23138055.734
  24306641.954    -5100385.71343  -3966159.27942  24306641.786    24306638.330
  21904987.585   -18905937.83943 -14700760.72942  21904989.273    21904984.617
  25296616.409    -4426189.89543  -3427060.27542  25296617.392    25296614.163
  22914892.196   -15127506.02643 -11777530.53842  22914892.913    22914889.897
  20654621.726   -27965937.76544 -21758808.99142  20654622.689    20654617.190
  20806726.303   -26318151.04444 -20503215.43042  20806727.717    20806723.447
  20829507.482   -22836415.29244 -17786953.17642  20829508.658    20829503.712
  23274351.128    -9012700.11943  -7014112.09242  23274351.385    23274345.532
  23009778.191   -13985127.88943 -10689602.82442  23009779.367    23009774.459
 04  1  8  2 52 30.0000000  0 10G29G17G26G 2G15G21G 6G18G22G16
  23143580.160   -10457315.27843  -8140772.60442  23143581.790    23143577.093
  24320397.381    -5028100.58343  -3909833.21442  24320397.348    24320393.526
  21903731.320   -18912539.53943 -14705904.89442  21903733.006    21903728.325
  25287641.568    -4473353.01043  -3463810.74242  25287642.446    25287639.119
  22901521.625   -15197768.73043 -11832280.67342  22901522.367    22901519.307
  20651967.944   -27979883.39244 -21769675.70242  20651968.892    20651963.424
  20816106.255   -26268859.19144 -20464806.20042  20816107.646    20816103.364
  20820440.268   -22884063.65844 -17824081.76342  20820441.464    20820436.506
  23256462.542    -9106705.07543  -7087362.66042  23256462.806    23256456.979
  23007608.598   -13996528.93243 -10698486.75642  23007609.817    23007604.900
 04  1  8  2 53  0.0000000  0 10G29G17G26G 2G15G21G 6G18G22G16
  23149202.918   -10427767.29743  -8117748.18442  23149204.554    23149199.854
  24334162.975    -4955762.02143  -3853465.48142  24334162.727    24334159.362
  21902598.313   -18918493.29143 -14710544.16242  21902600.009    21902595.387
  25278740.058    -4520130.84043  -3500261.00042  25278741.051    25278737.610
  22888168.610   -15267939.17343 -11886958.91442  22888169.345    22888166.269
  20649352.995   -27993624.94544 -21780383.39642  20649353.963    20649348.503
  20825572.105   -26219115.73143 -20426045.06542  20825573.512    20825569.234
  20811457.966   -22931265.91544 -17860862.72542  20811459.150    20811454.188
  23238621.060    -9200462.64543  -7160420.48442  23238621.347    23238615.497
  23005544.159   -14007377.39743 -10706940.10842  23005545.415    23005540.494
 04  1  8  2 53 30.0000000  0 10G29G17G26G 2G15G21G 6G18G22G16
  23154927.209   -10397685.87143  -8094308.12142  23154928.858    23154924.176
  24347939.002    -4883369.16143  -3797055.45742  24347938.687    24347935.343
  21901588.980   -18923797.29543 -14714677.13242  21901590.669    21901586.072
  25269912.233    -4566521.52743  -3536409.57442  25269913.134    25269909.689
  22874833.313   -15338016.47743 -11941564.57842  22874834.074    22874831.018
  20646777.047   -28007161.68544 -21790931.49842  20646777.997    20646772.535
  20835123.968   -26168920.42643 -20386931.85042  20835125.357    20835121.087
  20802560.757   -22978020.96844 -17897295.21542  20802561.942    20802556.965
  23220827.095    -9293970.27143  -7233283.52042  23220827.388    23220821.572
  23003585.045   -14017672.38743 -10714962.18042  23003586.279    23003581.456
 04  1  8  2 54  0.0000000  0 10G29G17G26G 2G15G21G 6G18G22G16
  23160752.734   -10367072.46443  -8070453.51542  23160754.356    23160749.641
  24361725.103    -4810922.46043  -3740603.50742  24361725.051    24361721.886
  21900703.250   -18928451.56443 -14718303.81242  21900704.953    21900700.388
  25261158.147    -4612524.59543  -3572256.12942  25261159.096    25261155.639
  22861515.664   -15408001.15843 -11996098.06842  22861516.373    22861513.329
  20644240.047   -28020493.64344 -21801320.03242  20644241.013    20644235.554
  20844761.597   -26118274.35044 -20347467.38342  20844762.972    20844758.708
  20793748.621   -23024329.03844 -17933379.40642  20793749.793    20793744.811
  23203080.895    -9387227.21343  -7305951.22942  23203081.206    23203075.383
  23001731.172   -14027414.53243 -10722553.46942  23001732.390    23001727.600
 04  1  8  2 54 30.0000000  0  9G29G26G 2G15G21G 6G18G22G16
  23166680.053   -10335924.14043  -8046182.09142  23166681.698    23166676.946
  21899942.067   -18932451.46743 -14721420.60742  21899943.774    21899939.174
  25252478.716    -4658135.28543  -3607796.92542  25252479.646    25252476.197
  22848216.418   -15477889.24543 -12050556.28342  22848217.067    22848214.032
  20641742.735   -28033617.07344 -21811546.07842  20641743.683    20641738.244
  20854485.551   -26067174.66643 -20307649.44542  20854486.928    20854482.668
  20785022.345   -23070185.79644 -17969111.91842  20785023.507    20785018.535
  23185383.350    -9480228.21043  -7378419.50142  23185383.668    23185377.862
  22999983.196   -14036600.37443 -10729711.27242  22999984.356    22999979.577
 04  1  8  2 55  0.0000000  0  9G29G26G 2G15G21G 6G18G22G16
  23172706.989   -10304252.56343  -8021502.93342  23172708.607    23172703.856
  21899303.529   -18935807.16743 -14724035.42942  21899305.231    21899300.586
  25243872.085    -4703363.20443  -3643039.47042  25243873.108    25243869.534
  22834933.491   -15547691.45943 -12104947.58242  22834934.096    22834931.064
  20639283.074   -28046542.62344 -21821617.92042  20639284.051    20639278.584
  20864293.648   -26015632.78643 -20267486.94542  20864295.020    20864290.759
  20776379.969   -23115601.52844 -18004500.77642  20776381.167    20776376.182
  23167732.710    -9572982.88143  -7450695.83242  23167733.016    23167727.174
  22998338.933   -14045241.00043 -10736444.22942  22998340.081    22998335.308
 04  1  8  2 55 30.0000000  0  9G29G26G 2G15G21G 6G18G22G16
  23178834.897   -10272050.32643  -7996410.27642  23178836.501    23178831.753
  21898789.199   -18938509.84343 -14726141.39742  21898790.917    21898786.227
  25235340.031    -4748199.18243  -3677976.59442  25235341.140    25235337.576
  22821668.458   -15617399.47843 -12159265.49842  22821669.040    22821666.058
  20636862.591   -28059262.34744 -21831529.38142  20636863.556    20636858.092
  20874187.325   -25963641.22143 -20226974.04442  20874188.690    20874184.450
  20767823.097   -23160568.04144 -18039539.59142  20767824.294    20767819.333
  23150130.820    -9665481.39243  -7522772.56542  23150131.166    23150125.291
  22996799.919   -14053328.46743 -10742746.15342  22996801.052    22996796.295
 04  1  8  2 56  0.0000000  0  9G29G26G 2G15G21G 6G18G22G16
  23185063.037   -10239321.01643  -7970906.90442  23185064.650    23185059.967
  21898398.780   -18940561.47643 -14727740.06542  21898400.492    21898395.818
  25226882.304    -4792645.05043  -3712609.74042  25226883.398    25226879.701
  22808420.855   -15687015.90843 -12213512.04542  22808421.436    22808418.441
  20634480.842   -28071778.31244 -21841282.07042  20634481.832    20634476.369
  20884165.913   -25911203.22843 -20186113.28342  20884167.302    20884163.082
  20759351.307   -23205087.56743 -18074230.10642  20759352.469    20759347.536
  23132577.406    -9757724.70443  -7594650.43042  23132577.753    23132571.949
  22995365.597   -14060865.84643 -10748619.43842  22995366.744    22995361.967
 04  1  8  2 56 30.0000000  0  9G29G26G 2G15G21G 6G18G22G16
  23191391.985   -10206062.00143  -7944990.79042  23191393.635    23191388.932
  21898133.017   -18941958.13743 -14728828.36442  21898134.705    21898130.011
  25218499.561    -4836696.53443  -3746935.54242  25218500.661    25218496.878
  22795191.381   -15756537.31543 -12267684.56242  22795191.925    22795188.918
  20632138.564   -28084087.04344 -21850873.28442  20632139.553    20632134.100
  20894229.989   -25858316.09543 -20144902.53342  20894231.390    20894227.170
  20750965.318   -23249156.21343 -18108569.29642  20750966.487    20750961.518
  23115073.631    -9849707.83643  -7666325.57142  23115073.955    23115068.085
  22994036.577   -14067849.80843 -10754061.49242  22994037.710    22994032.965
 04  1  8  2 57  0.0000000  0  9G29G26G 2G15G21G 6G18G22G16
  23197820.536   -10172279.56843  -7918666.81042  23197822.230    23197817.523
  21897991.003   -18942704.39543 -14729409.84842  21897992.699    21897987.976
  25210191.108    -4880357.57843  -3780957.17142  25210192.153    25210188.417
  22781979.039   -15825968.49843 -12321786.76442  22781979.564    22781976.602
  20629834.773   -28096193.43344 -21860306.83042  20629835.779    20629830.307
  20904378.408   -25804985.72143 -20103346.39042  20904379.830    20904375.604
  20742664.253   -23292778.60143 -18142560.75242  20742665.404    20742660.437
  23097618.515    -9941434.79743  -7737801.09042  23097618.870    23097613.014
  22992811.861   -14074285.74143 -10759076.50342  22992812.994    22992808.256
 04  1  8  2 57 30.0000000  0  9G29G26G 2G15G21G 6G18G22G16
  23204349.368   -10137970.09243  -7891932.15142  23204351.060    23204346.395
  21897973.688   -18942795.36443 -14729480.72442  21897975.365    21897970.675
  25201958.032    -4923622.85243  -3814670.36742  25201958.959    25201955.409
  22768784.704   -15895305.13343 -12375815.29242  22768785.242    22768782.246
  20627570.318   -28108093.15144 -21869579.33242  20627571.320    20627565.841
  20914611.896   -25751208.48443 -20061442.04742  20914613.307    20914609.089
  20734448.915   -23335950.55443 -18176201.22342  20734450.032    20734445.055
  23080213.275   -10032899.84243  -7809072.51842  23080213.586    23080207.765
  22991692.200   -14080169.62243 -10763661.35542  22991693.342    22991688.574
 04  1  8  2 58  0.0000000  0  9G29G26G 2G15G21G 6G18G22G16
  23210978.241   -10103135.11243  -7864788.00942  23210979.938    23210975.297
  21898081.072   -18942231.18843 -14729041.10342  21898082.748    21898078.046
  25193800.323    -4966491.98943  -3848074.89842  25193801.164    25193797.657
  22755608.263   -15964547.76043 -12429770.56742  22755608.762    22755605.785
  20625345.147   -28119786.47044 -21878690.99342  20625346.141    20625340.675
  20924930.124   -25696985.92143 -20019190.71242  20924931.536    20924927.308
  20726319.280   -23378671.93843 -18209490.60342  20726320.410    20726315.426
  23062858.087   -10124101.94143  -7880139.06342  23062858.398    23062852.556
  22990677.364   -14085502.67643 -10767816.97542  22990678.474    22990673.713
 04  1  8  2 58 30.0000000  0  9G29G26G 2G15G21G 6G18G22G16
  23217706.368   -10067778.54043  -7837237.43042  23217708.036    23217703.452
  21898312.627   -18941014.37143 -14728092.93142  21898314.311    21898309.570
  25185717.601    -5008967.03843  -3881172.35242  25185718.350    25185714.927
  22742449.189   -16033699.07143 -12483654.68842  22742449.673    22742446.715
  20623158.674   -28131276.49444 -21887644.25342  20623159.661    20623154.168
  20935332.427   -25642321.61343 -19976595.15542  20935333.823    20935329.582
  20718274.876   -23420945.44144 -18242430.97842  20718276.016    20718271.028
  23045552.590   -10215042.74043  -7951001.99542  23045552.884    23045547.082
  22989766.770   -14090288.05643 -10771545.84942  22989767.901    22989763.091
 04  1  8  2 59  0.0000000  0  9G29G26G 2G15G21G 6G18G22G16
  23224533.968   -10031899.38743  -7809279.64042  23224535.604    23224531.005
  21898668.915   -18939142.22043 -14726634.11442  21898670.563    21898665.823
  25177710.421    -5051045.06243  -3913960.42842  25177711.229    25177707.697
  22729307.929   -16102756.82543 -12537465.89942  22729308.413    22729305.443
  20621011.373   -28142560.69544 -21896437.12542  20621012.346    20621006.844
  20945819.045   -25587214.04943 -19933654.19342  20945820.453    20945816.211
  20710316.128   -23462768.92543 -18275020.68342  20710317.251    20710312.268
  23028297.571   -10305718.61543  -8021658.49142  23028297.844    23028292.042
  22988960.720   -14094524.12543 -10774846.67942  22988961.832    22988957.024
 04  1  8  2 59 30.0000000  0  9G29G26G 2G15G21G 6G18G22G16
  23231461.269    -9995496.15743  -7780913.49542  23231462.897    23231458.279
  21899150.376   -18936612.18143 -14724662.64942  21899152.036    21899147.271
  25169779.368    -5092722.91443  -3946436.67342  25169780.307    25169776.720
  22716184.927   -16171718.50843 -12591202.24942  22716185.405    22716182.419
  20618903.695   -28153636.66844 -21905067.74442  20618904.640    20618899.163
  20956390.291   -25531661.80543 -19890366.73542  20956391.705    20956387.437
  20702443.556   -23504139.56543 -18307257.53442  20702444.676    20702439.691
  23011093.611   -10396125.62643  -8092105.48842  23011093.881    23011088.106
  22988259.527   -14098208.91343 -10777717.94142  22988260.603    22988255.857
 04  1  8  3  0  0.0000000  0  9G29G26G 2G15G21G 6G18G22G16
  23238487.372    -9958573.67243  -7752142.71942  23238488.996    23238484.393
  21899756.424   -18933427.40343 -14722181.00442  21899758.048    21899753.316
  25161923.973    -5134003.27943  -3978603.21142  25161924.844    25161921.348
  22703079.535   -16240587.75343 -12644866.57742  22703080.017    22703077.003
  20616834.993   -28164507.70044 -21913538.67842  20616835.942    20616830.454
  20967045.256   -25475669.46943 -19846736.34342  20967046.692    20967042.418
  20694656.538   -23545060.60843 -18339144.05542  20694657.647    20694652.662
  22993940.291   -10486266.50443  -8162345.09342  22993940.585    22993934.829
  22987662.494   -14101346.59843 -10780162.88742  22987663.537    22987658.749
 04  1  8  3  0 30.0000000  0  9G29G26G 2G15G21G 6G18G22G16
  23245612.321    -9921131.47243  -7722966.97842  23245613.978    23245609.409
  21900487.381   -18929586.22443 -14719187.87242  21900488.990    21900484.282
  25154144.679    -5174883.87343  -4010458.23842  25154145.467    25154142.085
  22689992.020   -16309362.86143 -12698457.53742  22689992.533    22689989.480
  20614805.578   -28175172.35144 -21921848.79342  20614806.521    20614801.029
  20977784.104   -25419236.51243 -19802762.61542  20977785.530    20977781.256
  20686955.315   -23585530.76843 -18370679.22942  20686956.432    20686951.434
  22976838.338   -10576137.82343  -8232374.67742  22976838.660    22976832.866
  22987169.714   -14103936.31743 -10782180.85042  22987170.797    22987165.906
 04  1  8  3  1  0.0000000  0  9G29G26G 2G15G21G 6G18G22G16
  23252836.302    -9883169.29443  -7693386.05942  23252837.897    23252833.389
  21901343.538   -18925086.95443 -14715681.94042  21901345.197    21901340.466
  25146441.822    -5215362.30243  -4041999.86242  25146442.643    25146439.255
  22676922.685   -16378042.32843 -12751973.97642  22676923.252    22676920.192
  20612815.784   -28185628.64544 -21929996.54542  20612816.737    20612811.256
  20988606.934   -25362362.36143 -19758445.09942  20988608.351    20988604.054
  20679340.240   -23625548.16743 -18401861.60242  20679341.345    20679336.376
  22959787.969   -10665737.57943  -8302192.62642  22959788.319    22959782.571
  22986781.318   -14105977.04243 -10783771.03042  22986782.437    22986777.553
 04  1  8  3  1 30.0000000  0  9G29G26G 2G15G21G 6G18G22G16
  23260158.741    -9844689.85043  -7663402.08642  23260160.286    23260155.801
  21902324.661   -18919930.90743 -14711664.24042  21902326.357    21902321.625
  25138815.300    -5255439.63443  -4073228.95642  25138816.237    25138812.825
  22663871.336   -16446627.59143 -12805417.01742  22663871.909    22663868.805
  20610865.275   -28195878.59144 -21937983.50442  20610866.234    20610860.751
  20999513.195   -25305049.56843 -19713785.78642  20999514.615    20999510.314
  20671810.997   -23665114.55043 -18432692.53242  20671812.096    20671807.119
  22942789.475   -10755065.24243  -8371798.57742  22942789.820    22942784.058
  22986496.994   -14107471.06043 -10784935.19542  22986498.132    22986493.244
 04  1  8  3  2  0.0000000  0  9G29G26G 2G15G21G 6G18G22G16
  23267579.698    -9805692.42543  -7633014.48342  23267581.264    23267576.749
  21903431.279   -18914115.73243 -14707132.92742  21903432.967    21903428.211
  25131265.771    -5295112.70943  -4104143.04042  25131266.733    25131263.311
  22650838.297   -16515116.43443 -12858784.91442  22650838.913    22650835.782
  20608954.540   -28205919.55444 -21945807.61942  20608955.487    20608950.012
  21010503.186   -25247296.92043 -19668783.73242  21010504.575    21010500.261
  20664368.024   -23704227.63243 -18463170.24642  20664369.111    20664364.141
  22925843.224   -10844117.89743  -8441190.21742  22925843.564    22925837.855
  22986317.043   -14108416.78543 -10785672.13242  22986318.155    22986313.265
 04  1  8  3  2 30.0000000  0  9G29G26G 2G15G21G 6G18G22G16
  23275098.212    -9766182.34643  -7602227.40642  23275099.823    23275095.283
  21904662.483   -18907645.76243 -14702091.39042  21904664.174    21904659.398
  25123792.521    -5334385.28243  -4134745.05542  25123793.398    25123790.085
  22637822.804   -16583513.22543 -12912081.08142  22637823.422    22637820.275
  20607082.754   -28215755.92544 -21953472.32142  20607083.692    20607078.211
  21021575.815   -25189109.96843 -19623443.25742  21021577.184    21021572.863
  20657010.435   -23742891.83843 -18493298.18742  20657011.549    20657006.586
  22908948.730   -10932899.06243  -8510370.33042  22908949.050    22908943.286
  22986240.356   -14108819.42743 -10785985.87942  22986241.519    22986236.664
 04  1  8  3  3  0.0000000  0  9G29G26G 2G15G21G 6G18G22G16
  23282714.587    -9726157.66943  -7571039.34442  23282716.262    23282711.719
  21906018.917   -18900517.67943 -14696537.03542  21906020.581    21906015.821
  25116396.171    -5373253.36343  -4165031.87542  25116397.037    25116393.686
  22624825.489   -16651814.55243 -12965302.86342  22624826.102    22624822.907
  20605250.530   -28225384.43944 -21960975.05742  20605251.452    20605245.949
  21032731.525   -25130486.31343 -19577762.48842  21032732.892    21032728.582
  20649738.951   -23781103.54643 -18523073.53042  20649740.078    20649735.122
  22892106.868   -11021403.41343  -8579334.72542  22892107.233    22892101.483
  22986267.537   -14108676.42443 -10785874.44642  22986268.714    22986263.878
 04  1  8  3  3 30.0000000  0  9G29G26G 2G15G21G 6G18G22G16
  23290429.225    -9685617.00743  -7539449.20342  23290430.911    23290426.417
  21907501.120   -18892728.58043 -14690467.60642  21907502.798    21907498.051
  25109077.472    -5411713.55343  -4195000.85542  25109078.315    25109074.960
  22611846.781   -16720017.92943 -13018448.31642  22611847.456    22611844.219
  20603458.390   -28234802.19344 -21968313.55842  20603459.317    20603453.776
  21043970.658   -25071424.23443 -19531740.09042  21043972.048    21043967.720
  20642554.152   -23818859.88443 -18552494.04842  20642555.266    20642550.326
  22875318.365   -11109627.33343  -8648080.58942  22875318.734    22875313.037
  22986398.954   -14107985.72243 -10785336.24142  22986400.076    22986395.308
 04  1  8  3  4  0.0000000  0  9G29G26G 2G15G21G 6G18G22G16
  23298240.792    -9644567.13843  -7507462.29842  23298242.447    23298237.893
  21909108.053   -18884284.10143 -14683887.48142  21909109.727    21909104.977
  25101835.430    -5449770.78143  -4224655.83742  25101836.322    25101832.904
  22598885.722   -16788128.56743 -13071521.49742  22598886.424    22598883.173
  20601705.309   -28244014.60844 -21975492.05642  20601706.251    20601700.717
  21055291.953   -25011930.32443 -19485381.20742  21055293.351    21055289.033
  20635454.867   -23856166.84443 -18581564.40142  20635455.974    20635451.031
  22858582.471   -11197575.13043  -8716611.31342  22858582.821    22858577.096
  22986633.447   -14106753.52943 -10784376.10242  22986634.541    22986629.810
 04  1  8  3  4 30.0000000  0  9G29G26G 2G15G21G 6G18G22G16
  23306150.051    -9603003.81643  -7475075.30042  23306151.664    23306147.145
  21910840.770   -18875178.64043 -14676792.30642  21910842.416    21910837.655
  25094671.198    -5487419.10243  -4253992.19742  25094672.113    25094668.611
  22585943.279   -16856141.13843 -13124518.27042  22585944.074    22585940.801
  20599992.412   -28253015.84444 -21982506.00242  20599993.349    20599987.825
  21066696.287   -24952000.21043 -19438682.43142  21066697.675    21066693.378
  20628442.200   -23893018.61043 -18610280.04442  20628443.304    20628438.366
  22841900.348   -11285239.77143  -8784921.38242  22841900.722    22841895.056
  22986971.872   -14104975.16443 -10782990.36942  22986972.930    22986968.241
 04  1  8  3  5  0.0000000  0  9G29G26G 2G15G21G 6G18G22G16
  23314156.169    -9560931.63943  -7442291.78542  23314157.724    23314153.202
  21912698.615   -18865415.44743 -14669184.61242  21912700.279    21912695.502
  25087584.325    -5524660.82443  -4283011.72142  25087585.248    25087581.787
  22573019.030   -16924058.53643 -13177440.89242  22573019.793    22573016.528
  20598319.128   -28261808.90244 -21989357.73342  20598320.072    20598314.549
  21078182.844   -24891638.09443 -19391647.02442  21078184.212    21078179.900
  20621515.553   -23929418.46443 -18638643.55742  20621516.656    20621511.680
  22825271.715   -11372623.87043  -8853012.85742  22825272.085    22825266.367
  22987413.449   -14102654.52543 -10781182.08942  22987414.544    22987409.838
 04  1  8  3  5 30.0000000  0  9G29G26G 2G15G21G 6G18G22G16
  23322258.810    -9518352.06743  -7409112.88842  23322260.391    23322255.814
  21914681.589   -18854994.94743 -14661064.74042  21914683.252    21914678.454
  25080574.936    -5561495.55443  -4311714.10942  25080575.810    25080572.453
  22560112.890   -16991880.66343 -13230289.26942  22560113.680    22560110.349
  20596685.405   -28270394.24844 -21996047.60842  20596686.334    20596680.814
  21089751.343   -24830845.25343 -19344275.99742  21089752.717    21089748.409
  20614674.864   -23965366.64943 -18666655.13442  20614675.943    20614670.944
  22808696.749   -11459725.82643  -8920884.48342  22808697.072    22808691.333
  22987958.038   -14099792.80543 -10778952.18342  22987959.121    22987954.437
 04  1  8  3  6  0.0000000  0  9G29G26G 2G15G21G 6G18G22G16
  23330458.531    -9475262.03443  -7375536.24642  23330460.139    23330455.587
  21916790.444   -18843912.69143 -14652429.20942  21916792.142    21916787.337
  25073643.975    -5597918.20143  -4340095.38742  25073644.809    25073641.401
  22547225.721   -17059603.05043 -13283059.92642  22547226.526    22547223.213
  20595092.169   -28278766.78944 -22002571.66242  20595093.085    20595087.559
  21101402.448   -24769618.32343 -19296566.70342  21101403.817    21101399.509
  20607920.924   -24000858.84443 -18694311.39242  20607922.001    20607916.996
  22792176.525   -11546540.19543  -8988532.00142  22792176.824    22792171.102
  22988606.307   -14096386.23043 -10776297.71942  22988607.395    22988602.720
 04  1  8  3  6 30.0000000  0  9G29G26G 2G15G21G 6G18G22G16
  23338753.464    -9431671.56043  -7341569.63542  23338755.129    23338750.579
  21919023.639   -18832177.19443 -14643284.66042  21919025.317    21919020.523
  25066789.838    -5633936.70143  -4368161.75442  25066790.679    25066787.309
  22534355.994   -17127233.88943 -13335759.23942  22534356.815    22534353.456
  20593537.764   -28286935.11444 -22008936.58242  20593538.705    20593533.169
  21113134.265   -24707967.04743 -19248526.74842  21113135.672    21113131.382
  20601252.159   -24035903.44443 -18721618.85942  20601253.244    20601248.224
  22775709.598   -11633074.21643  -9055961.06242  22775709.919    22775704.173
  22989356.492   -14092444.17543 -10773225.99042  22989357.575    22989352.877
 04  1  8  3  7  0.0000000  0  9G29G26G 2G15G21G 6G18G22G16
  23347145.313    -9387572.22743  -7307206.51442  23347146.944    23347142.373
  21921382.942   -18819779.11743 -14633623.82442  21921384.589    21921379.809
  25060014.604    -5669540.81143  -4395905.21942  25060015.453    25060012.104
  22521505.469   -17194763.70243 -13388379.82742  22521506.304    22521502.932
  20592024.045   -28294889.58944 -22015134.86542  20592025.004    20592019.458
  21124948.498   -24645882.86443 -19200149.46842  21124949.887    21124945.615
  20594670.400   -24070490.81043 -18748570.03642  20594671.469    20594666.458
  22759298.034   -11719317.23643  -9123163.37642  22759298.369    22759292.648
  22990210.143   -14087958.07543 -10769730.34242  22990211.248    22990206.584
 04  1  8  3  7 30.0000000  0  9G29G26G 2G15G21G 6G18G22G16
  23355632.767    -9342970.44043  -7272451.88042  23355634.373    23355629.852
  21923867.293   -18806723.57343 -14623450.66542  21923868.974    21923864.199
  25053317.318    -5704734.87143  -4423329.15942  25053318.234    25053314.818
  22508673.257   -17262197.41843 -13440925.53542  22508674.088    22508670.687
  20590550.183   -28302634.67844 -22021169.98942  20590551.155    20590545.611
  21136843.963   -24583371.84543 -19151439.59142  21136845.341    21136841.069
  20588174.673   -24104625.97443 -18775168.84442  20588175.767    20588170.740
  22742941.204   -11805273.03743  -9190141.88942  22742941.530    22742935.798
  22991166.272   -14082933.61443 -10765815.18742  22991167.393    22991162.735
 04  1  8  3  8  0.0000000  0  9G29G26G 2G15G21G 6G18G22G16
  23364215.983    -9297865.42243  -7237305.10342  23364217.601    23364213.079
  21926477.183   -18793008.52143 -14612763.60742  21926478.837    21926474.094
  25046698.728    -5739516.14743  -4450431.45842  25046699.585    25046696.191
  22495859.853   -17329532.31243 -13493394.23242  22495860.668    22495857.245
  20589116.608   -28310168.14244 -22027040.22042  20589117.571    20589112.033
  21148820.905   -24520432.73743 -19102396.14542  21148822.278    21148818.002
  20581765.429   -24138306.71043 -18801413.56442  20581766.521    20581761.488
  22726639.705   -11890937.84243  -9256893.65242  22726639.991    22726634.284
  22992225.106   -14077369.64043 -10761479.63142  22992226.226    22992221.517
 04  1  8  3  8 30.0000000  0  9G29G26G 2G15G21G 6G18G22G16
  23372893.797    -9252263.16343  -7201770.86442  23372895.436    23372890.888
  21929211.635   -18778638.72043 -14601566.35042  21929213.298    21929208.560
  25040157.868    -5773888.70543  -4477215.27842  25040158.720    25040155.389
  22483064.362   -17396773.05843 -13545789.58042  22483065.134    22483061.712
  20587722.513   -28317494.25744 -22032748.87642  20587723.465    20587717.923
  21160878.188   -24457071.35343 -19053023.64642  21160879.547    21160875.279
  20575441.767   -24171537.79943 -18827307.91742  20575442.854    20575437.836
  22710392.882   -11976315.39043  -9323421.58042  22710393.203    22710387.438
  22993385.574   -14071271.26843 -10756727.65142  22993386.690    22993382.009
 04  1  8  3  9  0.0000000  0  9G29G26G 2G15G21G 6G18G22G16
  23381666.937    -9206159.94843  -7165846.27942  23381668.558    23381664.016
  21932071.636   -18763609.26043 -14589855.07942  21932073.317    21932068.583
  25033695.859    -5807846.80443  -4503676.13342  25033696.644    25033693.536
  22470287.764   -17463914.37343 -13598107.44842  22470288.545    22470285.095
  20586368.836   -28324607.98844 -22038292.03942  20586369.759    20586364.223
  21173016.579   -24393283.72743 -19003319.01242  21173017.928    21173013.672
  20569204.612   -24204314.35543 -18852848.08742  20569205.701    20569200.647
  22694201.881   -12061399.34543  -9389720.72942  22694202.221    22694196.495
  22994648.505   -14064634.58743 -10751556.22042  22994649.622    22994644.936
 04  1  8  3  9 30.0000000  0  9G29G26G 2G15G21G 6G18G22G16
  23390534.650    -9159560.00243  -7129534.63842  23390536.224    23390531.695
  21935056.559   -18747923.27043 -14577632.21442  21935058.233    21935053.536
  25027312.294    -5841392.47043  -4529815.61042  25027313.075    25027309.930
  22457529.612   -17530958.75043 -13650349.78242  22457530.382    22457526.951
  20585055.171   -28331511.35144 -22043671.27942  20585056.108    20585050.530
  21185235.299   -24329073.87843 -18953285.37142  21185236.654    21185232.415
  20563053.340   -24236639.39744 -18878036.42542  20563054.434    20563049.405
  22678066.641   -12146190.80043  -9455791.96942  22678066.939    22678061.172
  22996013.197   -14057463.25443 -10745968.15842  22996014.317    22996009.588
 04  1  8  3 10  0.0000000  0  9G29G26G 2G15G21G 6G18G22G16
  23399497.437    -9112460.19543  -7092833.48442  23399499.045    23399494.470
  21938167.277   -18731576.33143 -14564894.33642  21938168.949    21938164.235
  25021008.158    -5874520.59543  -4555629.72942  25021008.930    25021005.854
  22444790.872   -17597901.37043 -13702512.83342  22444791.605    22444788.182
  20583782.452   -28338199.51244 -22048882.83442  20583783.383    20583777.805
  21197535.045   -24264438.31543 -18902920.00342  21197536.385    21197532.174
  20556988.930   -24268507.97543 -18902869.07942  20556990.033    20556985.005
  22661987.867   -12230684.87843  -9521631.45742  22661988.230    22661982.488
  22997480.288   -14049753.70243 -10739960.73142  22997481.440    22997476.630
 04  1  8  3 10 30.0000000  0  9G29G26G 2G15G21G 6G18G22G16
  23408554.445    -9064865.22443  -7055746.48742  23408556.120    23408551.523
  21941403.098   -18714571.87943 -14551644.10842  21941404.792    21941400.061
  25014782.875    -5907234.08043  -4581120.76642  25014783.793    25014780.809
  22432070.845   -17664745.28043 -13754598.96042  22432071.610    22432068.176
  20582550.071   -28344675.58444 -22053929.11942  20582551.019    20582545.433
  21209914.957   -24199381.48043 -18852226.37542  21209916.300    21209912.086
  20551010.773   -24299923.49043 -18927348.69842  20551011.859    20551006.821
  22645965.459   -12314883.07443  -9587240.40342  22645965.827    22645960.055
  22999048.986   -14041510.06943 -10733537.12542  22999050.140    22999045.349
 04  1  8  3 11  0.0000000  0  9G29G26G 2G15G21G 6G18G22G16
  23417705.181    -9016777.77843  -7018275.75042  23417706.831    23417702.260
  21944763.603   -18696912.16743 -14537883.28842  21944765.317    21944760.569
  25008636.442    -5939533.80443  -4606289.37542  25008637.319    25008634.344
  22419369.347   -17731491.82943 -13806609.21642  22419370.128    22419366.690
  20581357.791   -28350940.97844 -22058811.23242  20581358.751    20581353.152
  21222374.490   -24133906.16243 -18801206.65642  21222375.842    21222371.610
  20545118.436   -24330887.89143 -18951476.79242  20545119.534    20545114.474
  22629999.301   -12398785.58643  -9652618.95042  22629999.667    22629993.851
  23000718.875   -14032734.96643 -10726699.39642  23000720.023    23000715.211
 04  1  8  3 11 30.0000000  0  9G29G26G 2G15G21G 6G18G22G16
  23426949.215    -8968199.98343  -6980422.91242  23426950.860    23426946.262
  21948248.811   -18678597.39843 -14523612.03342  21948250.511    21948245.752
  25002568.921    -5971419.35843  -4631135.25142  25002569.739    25002566.709
  22406686.484   -17798140.77643 -13858543.42042  22406687.221    22406683.783
  20580205.610   -28356995.78744 -22063529.25442  20580206.550    20580200.955
  21234913.429   -24068013.69143 -18749861.88742  21234914.780    21234910.549
  20539311.904   -24361401.44743 -18975253.57542  20539312.978    20539307.929
  22614089.589   -12482391.64343  -9717766.48542  22614089.912    22614084.154
  23002489.608   -14023429.69743 -10719448.54242  23002490.735    23002485.929
